[[{"header":{"parameterUnit":"m.s-1","parameterCategory":1,"la1":30.6,"la2":29.2853,"lo1":-89.7004,"lo2":-87.6739,"dy":0.0162,"dx":0.0183,"nx":112,"ny":82,"refTime":"2023-07-31T00:00:00:Z","depth":0,"parameterNumber":2,"parameterNumberName":"U-component_of_WINDS"},"data":[0.0,0.0,0.0,0.0,0.0,0.0,0.0,0.0,0.0,0.0,0.0,0.0,0.0,0.0,0.0,0.0,0.0,0.0,0.0,0.0,0.0,0.0,0.0,0.0,0.0,0.0,0.0,0.0,0.0,0.0,0.0,0.0,0.0,0.0,0.0,0.0,0.0,0.0,0.0,0.0,0.0,0.0,0.0,0.0,0.0,0.0,0.0,0.0,0.0,0.0,0.0,0.0,0.0,0.0,0.0,0.0,0.0,0.0,0.0,0.0,0.0,0.0,0.0,0.0,0.0,0.0,0.0,0.0,0.0,0.0,0.0,0.0,0.0,0.0,0.0,0.0,0.0,0.0,0.0,0.0,0.0,0.0,0.0,0.0,0.0,0.0,0.0,0.0,0.0,0.0,0.0,-2.6149,-2.7082,-2.76,-2.76,-2.76,-2.7031,-2.5689,0.0,0.0,0.0,0.0,0.0,0.0,0.0,0.0,0.0,0.0,0.0,0.0,0.0,0.0,0.0,0.0,0.0,0.0,0.0,0.0,0.0,0.0,0.0,0.0,0.0,0.0,0.0,0.0,0.0,0.0,0.0,0.0,0.0,0.0,0.0,0.0,0.0,0.0,0.0,0.0,0.0,0.0,0.0,0.0,0.0,0.0,0.0,0.0,0.0,0.0,0.0,0.0,0.0,0.0,0.0,0.0,0.0,0.0,0.0,0.0,0.0,0.0,0.0,0.0,0.0,0.0,0.0,0.0,0.0,0.0,0.0,0.0,0.0,0.0,0.0,0.0,0.0,0.0,0.0,0.0,0.0,0.0,0.0,0.0,0.0,0.0,0.0,0.0,0.0,0.0,0.0,0.0,0.0,0.0,0.0,0.0,0.0,0.0,0.0,0.0,0.0,0.0,0.0,0.0,-2.4743,-2.5635,-2.6855,-2.76,-2.76,-2.76,-2.7031,-2.5689,0.0,0.0,0.0,0.0,0.0,0.0,0.0,0.0,0.0,0.0,0.0,0.0,0.0,0.0,0.0,0.0,0.0,0.0,0.0,0.0,0.0,0.0,0.0,0.0,0.0,0.0,0.0,0.0,0.0,0.0,0.0,0.0,0.0,0.0,0.0,0.0,0.0,0.0,0.0,0.0,0.0,0.0,0.0,0.0,0.0,0.0,0.0,0.0,0.0,0.0,0.0,0.0,0.0,0.0,0.0,0.0,0.0,0.0,0.0,0.0,0.0,0.0,0.0,0.0,0.0,0.0,0.0,0.0,0.0,0.0,0.0,0.0,0.0,0.0,0.0,0.0,0.0,0.0,0.0,0.0,0.0,0.0,0.0,0.0,0.0,0.0,0.0,0.0,0.0,0.0,0.0,0.0,0.0,0.0,0.0,0.0,0.0,0.0,0.0,0.0,0.0,0.0,0.0,-2.4824,-2.5342,-2.6057,-2.7031,-2.76,-2.76,-2.76,-2.718,-2.6198,-2.5809,0.0,0.0,0.0,0.0,0.0,0.0,0.0,0.0,0.0,0.0,0.0,0.0,0.0,0.0,0.0,0.0,0.0,0.0,0.0,0.0,0.0,0.0,0.0,0.0,0.0,0.0,0.0,0.0,0.0,0.0,0.0,0.0,0.0,0.0,0.0,0.0,0.0,0.0,0.0,0.0,0.0,0.0,0.0,0.0,0.0,0.0,0.0,0.0,0.0,0.0,0.0,0.0,0.0,0.0,0.0,0.0,0.0,0.0,0.0,0.0,0.0,0.0,0.0,0.0,0.0,0.0,0.0,0.0,0.0,0.0,0.0,0.0,0.0,0.0,0.0,0.0,0.0,0.0,0.0,0.0,0.0,0.0,0.0,0.0,0.0,0.0,0.0,0.0,0.0,0.0,0.0,0.0,0.0,0.0,0.0,0.0,0.0,0.0,0.0,0.0,0.0,0.0,-2.5307,-2.6033,-2.6542,-2.721,-2.76,-2.76,-2.76,-2.7315,-2.6632,-2.6123,0.0,0.0,0.0,0.0,0.0,0.0,0.0,0.0,0.0,0.0,0.0,0.0,0.0,0.0,0.0,0.0,0.0,0.0,0.0,0.0,0.0,0.0,0.0,0.0,0.0,0.0,0.0,0.0,0.0,0.0,0.0,0.0,0.0,0.0,0.0,0.0,0.0,0.0,0.0,0.0,0.0,0.0,0.0,0.0,0.0,0.0,0.0,0.0,0.0,0.0,0.0,0.0,0.0,0.0,0.0,0.0,0.0,0.0,0.0,0.0,0.0,0.0,0.0,0.0,0.0,0.0,0.0,0.0,0.0,0.0,0.0,0.0,0.0,0.0,0.0,0.0,0.0,0.0,0.0,0.0,0.0,0.0,0.0,0.0,0.0,0.0,0.0,0.0,0.0,0.0,0.0,0.0,0.0,0.0,0.0,0.0,0.0,0.0,0.0,0.0,0.0,0.0,-2.5734,-2.6542,-2.6587,-2.721,-2.76,-2.76,-2.76,-2.7315,-2.6632,-2.6566,0.0,0.0,0.0,0.0,0.0,0.0,0.0,0.0,0.0,0.0,0.0,0.0,0.0,0.0,0.0,0.0,0.0,0.0,0.0,0.0,0.0,0.0,0.0,0.0,0.0,0.0,0.0,0.0,0.0,0.0,0.0,0.0,0.0,0.0,0.0,0.0,0.0,0.0,0.0,0.0,0.0,0.0,0.0,0.0,0.0,0.0,0.0,0.0,0.0,0.0,0.0,0.0,0.0,0.0,0.0,0.0,0.0,0.0,0.0,0.0,0.0,0.0,0.0,0.0,0.0,0.0,0.0,0.0,0.0,0.0,0.0,0.0,0.0,0.0,0.0,0.0,0.0,0.0,0.0,0.0,0.0,0.0,0.0,0.0,0.0,0.0,0.0,0.0,0.0,0.0,0.0,0.0,0.0,0.0,0.0,0.0,0.0,0.0,0.0,0.0,0.0,0.0,-2.6033,-2.6752,0.0,-2.745,-2.76,-2.76,-2.76,-2.7303,-2.6594,0.0,0.0,0.0,0.0,0.0,0.0,0.0,0.0,0.0,0.0,0.0,0.0,0.0,0.0,0.0,0.0,0.0,0.0,0.0,0.0,0.0,0.0,0.0,0.0,0.0,0.0,0.0,0.0,0.0,0.0,0.0,0.0,0.0,0.0,0.0,0.0,0.0,0.0,0.0,0.0,0.0,0.0,0.0,0.0,0.0,0.0,0.0,0.0,0.0,0.0,0.0,0.0,0.0,0.0,0.0,0.0,0.0,0.0,0.0,0.0,0.0,0.0,0.0,0.0,0.0,0.0,0.0,0.0,0.0,0.0,0.0,0.0,0.0,0.0,0.0,0.0,0.0,0.0,0.0,0.0,0.0,0.0,0.0,0.0,0.0,0.0,0.0,0.0,0.0,0.0,0.0,0.0,0.0,0.0,0.0,0.0,0.0,0.0,0.0,0.0,0.0,0.0,-2.5555,-2.6363,-2.7091,0.0,-2.7382,-2.7255,-2.7255,-2.7255,-2.693,-2.6203,0.0,0.0,0.0,0.0,0.0,0.0,0.0,0.0,0.0,0.0,0.0,0.0,0.0,0.0,0.0,0.0,0.0,0.0,0.0,0.0,0.0,0.0,0.0,0.0,0.0,0.0,0.0,0.0,0.0,0.0,0.0,0.0,0.0,0.0,0.0,0.0,0.0,0.0,0.0,0.0,0.0,0.0,0.0,0.0,0.0,0.0,0.0,0.0,0.0,0.0,0.0,0.0,0.0,0.0,0.0,0.0,0.0,0.0,0.0,0.0,0.0,0.0,0.0,0.0,0.0,0.0,0.0,0.0,0.0,0.0,0.0,0.0,0.0,0.0,0.0,0.0,0.0,0.0,0.0,0.0,0.0,0.0,0.0,0.0,0.0,0.0,0.0,0.0,0.0,0.0,0.0,0.0,0.0,0.0,0.0,0.0,0.0,0.0,0.0,0.0,0.0,0.0,-2.5615,-2.6791,-2.76,-2.76,-2.6945,-2.651,-2.6484,-2.6484,-2.6176,0.0,0.0,0.0,0.0,0.0,0.0,0.0,0.0,0.0,0.0,0.0,0.0,0.0,0.0,0.0,0.0,0.0,0.0,0.0,0.0,0.0,0.0,0.0,0.0,0.0,0.0,0.0,0.0,0.0,0.0,0.0,0.0,0.0,0.0,0.0,0.0,0.0,0.0,0.0,0.0,0.0,0.0,0.0,0.0,0.0,0.0,0.0,0.0,0.0,0.0,0.0,0.0,0.0,0.0,0.0,0.0,0.0,0.0,0.0,0.0,0.0,0.0,0.0,0.0,0.0,0.0,0.0,0.0,0.0,0.0,0.0,0.0,0.0,0.0,0.0,0.0,0.0,0.0,0.0,0.0,0.0,0.0,0.0,0.0,0.0,0.0,0.0,0.0,0.0,0.0,0.0,0.0,0.0,0.0,0.0,0.0,0.0,0.0,0.0,0.0,0.0,0.0,0.0,-2.6243,-2.7061,-2.7408,-2.6878,-2.6642,-2.6283,-2.5755,-2.5728,-2.5398,-2.4681,0.0,0.0,0.0,0.0,0.0,0.0,0.0,0.0,0.0,0.0,0.0,0.0,0.0,0.0,0.0,0.0,0.0,0.0,0.0,0.0,0.0,0.0,0.0,0.0,0.0,0.0,0.0,0.0,0.0,0.0,0.0,0.0,0.0,0.0,0.0,0.0,0.0,0.0,0.0,0.0,0.0,0.0,0.0,0.0,0.0,0.0,0.0,0.0,0.0,0.0,0.0,0.0,0.0,0.0,0.0,0.0,0.0,0.0,0.0,0.0,0.0,0.0,0.0,0.0,0.0,0.0,0.0,0.0,0.0,0.0,0.0,0.0,0.0,0.0,0.0,0.0,0.0,0.0,0.0,0.0,0.0,0.0,0.0,0.0,0.0,0.0,0.0,0.0,0.0,0.0,0.0,0.0,0.0,0.0,0.0,0.0,0.0,0.0,0.0,0.0,0.0,0.0,-2.6145,-2.6739,-2.6878,-2.6149,-2.5783,-2.5425,-2.5007,-2.4951,-2.4652,-2.3884,0.0,0.0,0.0,0.0,0.0,0.0,0.0,0.0,0.0,0.0,0.0,0.0,0.0,0.0,0.0,0.0,0.0,0.0,0.0,0.0,0.0,0.0,0.0,0.0,0.0,0.0,0.0,0.0,0.0,0.0,0.0,0.0,0.0,0.0,0.0,0.0,0.0,0.0,0.0,0.0,0.0,0.0,0.0,0.0,0.0,0.0,0.0,0.0,0.0,0.0,0.0,0.0,0.0,0.0,0.0,0.0,0.0,0.0,0.0,0.0,0.0,0.0,0.0,0.0,0.0,0.0,0.0,0.0,0.0,0.0,0.0,0.0,0.0,0.0,0.0,0.0,0.0,0.0,0.0,0.0,0.0,0.0,0.0,0.0,0.0,0.0,0.0,0.0,0.0,0.0,0.0,0.0,0.0,0.0,0.0,0.0,0.0,0.0,0.0,0.0,0.0,0.0,-2.5577,-2.6017,-2.6122,-2.537,-2.4709,-2.4263,-2.4205,-2.4205,-2.3884,-2.3138,0.0,0.0,0.0,0.0,0.0,0.0,0.0,0.0,0.0,0.0,0.0,0.0,0.0,0.0,0.0,0.0,0.0,0.0,0.0,0.0,0.0,0.0,0.0,0.0,0.0,0.0,0.0,0.0,0.0,0.0,0.0,0.0,0.0,0.0,0.0,0.0,0.0,0.0,0.0,0.0,0.0,0.0,0.0,0.0,0.0,0.0,0.0,0.0,0.0,0.0,0.0,0.0,0.0,0.0,0.0,0.0,0.0,0.0,0.0,0.0,-2.9487,0.0,0.0,0.0,0.0,0.0,0.0,0.0,0.0,0.0,0.0,0.0,0.0,0.0,0.0,0.0,0.0,0.0,0.0,0.0,0.0,0.0,0.0,0.0,0.0,0.0,0.0,0.0,0.0,0.0,0.0,0.0,0.0,0.0,0.0,0.0,0.0,0.0,0.0,0.0,0.0,0.0,-2.5381,-2.5535,-2.5342,-2.4595,-2.4408,-2.4031,-2.3395,-2.3365,-2.3275,-2.3108,0.0,0.0,0.0,0.0,0.0,0.0,0.0,0.0,0.0,0.0,0.0,0.0,0.0,0.0,0.0,0.0,0.0,0.0,0.0,0.0,0.0,0.0,0.0,0.0,0.0,0.0,0.0,0.0,0.0,0.0,0.0,0.0,0.0,0.0,0.0,0.0,0.0,0.0,0.0,0.0,0.0,0.0,0.0,0.0,0.0,0.0,0.0,0.0,0.0,0.0,0.0,0.0,0.0,0.0,0.0,0.0,0.0,0.0,0.0,0.0,0.0,-3.0806,0.0,0.0,0.0,0.0,0.0,0.0,0.0,0.0,0.0,0.0,0.0,0.0,0.0,0.0,0.0,0.0,0.0,0.0,0.0,0.0,0.0,0.0,0.0,0.0,0.0,0.0,0.0,0.0,0.0,0.0,0.0,0.0,0.0,0.0,0.0,0.0,0.0,0.0,0.0,0.0,-2.5218,-2.5027,-2.4702,-2.4197,-2.3918,-2.356,-2.3138,-2.3108,-2.3108,-2.3108,-2.3108,0.0,0.0,0.0,0.0,0.0,0.0,0.0,0.0,0.0,0.0,0.0,0.0,0.0,0.0,0.0,0.0,0.0,0.0,0.0,0.0,0.0,0.0,0.0,0.0,0.0,0.0,0.0,0.0,0.0,0.0,0.0,0.0,0.0,0.0,0.0,0.0,0.0,0.0,0.0,0.0,0.0,0.0,0.0,0.0,0.0,0.0,0.0,0.0,0.0,0.0,0.0,0.0,0.0,0.0,-3.3963,-3.3844,-3.3963,-3.3948,-3.3814,-3.3395,-3.2662,-3.1884,0.0,0.0,0.0,0.0,0.0,0.0,0.0,0.0,0.0,0.0,0.0,0.0,0.0,0.0,0.0,0.0,0.0,0.0,0.0,0.0,0.0,0.0,0.0,0.0,0.0,-2.9924,-2.9924,0.0,0.0,0.0,0.0,0.0,0.0,0.0,0.0,0.0,0.0,0.0,0.0,-2.5272,-2.4751,-2.4318,-2.4155,-2.3684,-2.3358,-2.3258,-2.3258,-2.3208,-2.3108,-2.3108,-2.3108,0.0,0.0,0.0,0.0,0.0,0.0,0.0,0.0,0.0,0.0,0.0,0.0,0.0,0.0,0.0,0.0,0.0,0.0,0.0,0.0,0.0,0.0,0.0,0.0,0.0,0.0,0.0,0.0,0.0,0.0,0.0,0.0,-3.2572,-3.317,0.0,0.0,0.0,0.0,0.0,0.0,0.0,0.0,0.0,0.0,0.0,0.0,0.0,0.0,-3.4369,-3.4384,-3.4651,-3.525,-3.5818,-3.5789,-3.5265,-3.5833,-3.5789,-3.5265,-3.5759,0.0,-3.3245,-3.3335,0.0,0.0,0.0,0.0,0.0,0.0,0.0,0.0,0.0,0.0,0.0,0.0,0.0,0.0,0.0,0.0,0.0,0.0,0.0,0.0,0.0,0.0,-3.0537,-3.1107,-3.1256,-3.1256,0.0,-3.0387,-2.9577,-2.9502,0.0,0.0,0.0,0.0,0.0,0.0,0.0,0.0,-2.5858,-2.5241,-2.4715,-2.4707,-2.4612,-2.4374,-2.3929,-2.3891,-2.3665,-2.3133,-2.3108,-2.3108,-2.3108,-2.3108,0.0,0.0,0.0,0.0,0.0,0.0,0.0,0.0,0.0,0.0,0.0,0.0,0.0,0.0,0.0,0.0,0.0,0.0,0.0,0.0,0.0,0.0,0.0,0.0,0.0,0.0,0.0,0.0,0.0,-3.2303,-3.2766,-3.3425,-3.3245,-3.3066,0.0,0.0,0.0,0.0,0.0,0.0,0.0,0.0,0.0,-3.5669,-3.6058,-3.6387,-3.6705,-3.706,-3.7404,-3.7719,-3.8003,-3.7988,-3.7719,-3.8003,-3.7973,-3.7704,-3.7599,-3.706,-3.6163,-3.507,-3.4008,-3.3066,0.0,0.0,0.0,0.0,0.0,-3.2677,-3.2961,-3.2886,0.0,0.0,0.0,0.0,0.0,0.0,0.0,0.0,0.0,0.0,0.0,0.0,0.0,-3.2557,-3.2211,-3.1845,-3.1845,-3.1098,-3.0382,0.0,-3.0103,-2.9659,-2.8192,0.0,0.0,0.0,0.0,0.0,-2.5736,-2.521,-2.4933,-2.5222,-2.4996,-2.4687,-2.4481,-2.418,-2.3891,-2.364,-2.3283,-2.3246,-2.3572,-2.3283,-2.3258,0.0,0.0,0.0,0.0,0.0,0.0,0.0,0.0,0.0,0.0,0.0,0.0,0.0,0.0,0.0,0.0,0.0,0.0,0.0,0.0,0.0,0.0,0.0,0.0,0.0,0.0,0.0,0.0,-3.2901,-3.326,-3.3933,-3.3858,-3.3739,0.0,0.0,0.0,0.0,0.0,0.0,-3.5346,-3.5922,-3.6611,-3.7469,-3.8236,-3.8736,-3.8901,-3.9409,-3.9753,-3.9918,-3.9918,-3.9918,-3.9918,-3.9918,-3.9918,-3.9888,-3.9379,-3.9065,-3.8751,-3.6791,-3.522,-3.4008,-3.4008,-3.3799,-3.3499,-3.3499,-3.3499,-3.3514,-3.3694,-3.3634,-3.3559,-3.3903,0.0,-3.3709,-3.3544,0.0,0.0,0.0,0.0,-3.2508,-3.2997,-3.296,-3.2819,-3.3084,-3.2616,-3.2108,-3.2108,-3.1717,-3.1149,0.0,-3.038,-2.9913,-2.8221,0.0,0.0,0.0,0.0,-2.5438,-2.6049,-2.5605,-2.5385,-2.5774,-2.5473,-2.5184,-2.5034,-2.4644,-2.4356,-2.4217,-2.3772,-2.3735,-2.4192,-2.376,-2.3747,-2.4205,0.0,0.0,0.0,0.0,0.0,0.0,0.0,0.0,0.0,0.0,0.0,0.0,0.0,0.0,0.0,0.0,0.0,0.0,0.0,0.0,0.0,0.0,0.0,0.0,0.0,0.0,0.0,0.0,0.0,-3.5325,-3.4831,0.0,0.0,0.0,0.0,-3.3917,-3.5425,-3.5979,-3.5148,-3.7099,-3.8064,-3.7713,-3.876,-3.9664,-4.0292,-4.0337,-4.0666,-4.128,-4.128,-4.128,-4.128,-4.128,-4.128,-4.128,-4.125,-4.0876,-4.0142,-3.8138,-3.6567,-3.54,-3.54,-3.4622,-3.3499,-3.3499,-3.3499,-3.3589,-3.4234,-3.4023,-3.3709,-3.4996,-3.4966,-3.4339,-3.3679,-3.3469,0.0,0.0,-3.2821,-3.2144,-3.2173,-3.1476,-3.0999,-3.1947,-3.2141,-3.2108,-3.2108,-3.208,-3.1593,0.0,-3.0075,-2.9602,-2.7363,0.0,-2.7492,-2.6937,-2.6604,-2.6705,-2.7485,-2.6909,-2.6424,-2.6449,-2.6424,-2.6185,-2.5598,-2.5536,-2.531,-2.4775,-2.4725,-2.4713,-2.475,-2.4725,-2.4725,-2.475,-2.4243,0.0,0.0,0.0,0.0,0.0,0.0,0.0,0.0,0.0,0.0,0.0,0.0,0.0,0.0,0.0,0.0,0.0,0.0,0.0,0.0,0.0,0.0,0.0,0.0,0.0,0.0,0.0,0.0,-3.6656,-3.7285,0.0,0.0,-3.6553,-3.6194,-3.5282,-3.577,-3.6329,-3.6743,-3.7524,-3.8587,-4.0043,-4.0894,-4.1615,-4.2243,-4.2701,-4.2821,-4.2626,-4.2626,-4.2626,-4.2626,-4.2626,-4.2626,-4.2611,-4.2192,-4.1916,-4.1617,-4.0442,-3.8931,-3.736,-3.736,-3.6806,-3.6013,-3.6013,-3.6013,-3.6043,-3.6282,-3.6207,-3.6028,-3.6103,-3.5684,-3.4989,-3.4094,-3.3532,-3.3313,-3.3693,-3.3289,-3.2973,-3.4012,-3.4017,-3.3839,-3.4195,-3.3791,-3.3149,-3.2545,-3.2066,-3.1275,-2.9542,-2.9626,-2.9421,-2.7721,-2.7558,-2.7472,-2.6771,-2.6553,-2.6589,-2.6871,-2.6692,-2.6499,-2.6499,-2.6499,-2.6411,-2.6197,-2.5812,-2.5523,-2.5335,-2.5008,-2.4938,-2.531,-2.4963,-2.4938,-2.531,-2.4795,-2.4356,0.0,0.0,0.0,0.0,0.0,0.0,0.0,0.0,0.0,0.0,0.0,0.0,0.0,0.0,0.0,0.0,0.0,0.0,0.0,0.0,0.0,0.0,0.0,0.0,0.0,0.0,-3.6816,-3.7655,-3.8767,-3.8949,-3.7774,-3.8424,-3.8186,-3.6414,-3.7002,-3.7497,-3.7536,-3.8661,-3.9772,-4.0847,-4.2095,-4.2907,-4.3334,-4.3747,-4.3983,-4.3947,-4.3947,-4.3843,-4.3618,-4.3618,-4.3499,-4.3275,-4.288,-4.2686,-4.2656,-4.2222,-4.113,-3.9664,-3.899,-3.8197,-3.7404,-3.7404,-3.7404,-3.7404,-3.7404,-3.7404,-3.73,-3.6686,-3.6193,-3.5609,-3.4385,-3.3705,-3.3408,-3.3488,-3.2994,-3.2797,-3.4158,-3.4274,-3.4138,-3.4457,-3.4007,-3.3276,-3.2321,-3.1792,-3.0967,-2.9238,-2.931,-2.9295,-2.8056,-2.7665,-2.7378,-2.6832,-2.6612,-2.6499,-2.6499,-2.6499,-2.6499,-2.6499,-2.6499,-2.6499,-2.6499,-2.6135,-2.5887,-2.5887,-2.5561,-2.5523,-2.5908,-2.5548,-2.5536,-2.5921,-2.536,-2.482,-2.428,0.0,0.0,0.0,0.0,0.0,0.0,0.0,0.0,0.0,0.0,0.0,0.0,0.0,0.0,0.0,0.0,0.0,0.0,0.0,0.0,0.0,0.0,0.0,-3.6274,-3.6547,-3.711,-3.8382,-3.919,-3.9118,-3.7796,-3.991,-4.0169,-3.7245,-3.9155,-3.9495,-3.7367,-4.0453,-4.1546,-3.9915,-4.213,-4.3386,-4.3415,-4.3401,-4.3992,-4.5248,-4.5206,-4.4821,-4.421,-4.4236,-4.3877,-4.328,-4.3305,-4.329,-4.329,-4.329,-4.294,-4.2201,-4.0232,-3.8676,-3.7494,-3.7479,-3.7464,-3.7464,-3.7464,-3.7464,-3.7345,-3.6746,-3.6537,-3.6205,-3.4525,-3.4002,-3.3802,-3.2847,-3.1901,-3.1426,-3.2357,-3.1924,-3.1462,-3.2393,-3.2593,-3.2357,-3.1389,-3.1217,-3.0762,-2.9227,-2.9207,-2.9129,-2.8243,-2.7657,-2.7341,-2.7281,-2.6864,0.0,-2.6499,-2.6499,-2.6499,-2.6512,-2.6512,-2.6512,-2.6512,-2.6512,-2.6512,-2.6499,-2.6499,-2.6499,-2.6499,-2.6499,-2.6499,-2.6499,-2.5921,-2.536,-2.4838,0.0,0.0,0.0,0.0,0.0,0.0,0.0,0.0,0.0,0.0,0.0,0.0,0.0,0.0,0.0,0.0,0.0,0.0,0.0,0.0,0.0,0.0,-3.5013,-3.5414,-3.7794,-3.9406,-3.9227,-4.1071,-4.1507,-3.9406,-3.9848,-3.9551,-3.7852,-3.8329,-3.8604,-3.8416,-3.9329,-4.0245,-4.1067,-4.1721,-4.2739,-4.4091,-4.3212,-4.3166,-4.392,-4.2964,-4.2467,-4.2284,-4.2739,-4.2831,-4.2684,-4.3108,-4.329,-4.329,-4.329,-4.294,-4.2306,-4.1272,-4.0322,-3.9529,-3.905,-3.8871,-3.8871,-3.8871,-3.8542,-3.8093,-3.7928,-3.7539,-3.6783,-3.4874,-3.4002,-3.3509,-3.2462,-3.1721,-3.1426,-3.2357,-3.2429,-3.2285,-3.2522,-3.2593,-3.2357,-3.1389,-3.1217,-3.088,-2.9757,-2.9644,-2.9352,-2.8284,-2.7984,-2.7745,-2.7379,-2.719,0.0,-2.6549,-2.6499,-2.665,-2.7052,-2.709,-2.709,-2.709,-2.709,-2.6914,-2.6512,-2.6499,-2.6499,-2.6499,-2.6499,-2.6499,-2.6499,-2.5921,-2.5737,0.0,0.0,0.0,0.0,0.0,0.0,0.0,0.0,0.0,0.0,0.0,0.0,0.0,0.0,0.0,0.0,0.0,0.0,0.0,0.0,0.0,0.0,-3.5086,-3.5416,-3.5904,-3.8138,-3.9804,-3.9959,-4.1571,-4.1881,-3.9946,-4.0733,-4.065,-3.8856,-3.923,-3.942,-3.9246,-3.974,-4.0495,-4.1591,-4.1604,-4.2382,-4.4012,-4.3306,-4.3356,-4.4235,-4.4043,-4.3767,-4.3495,-4.3573,-4.3447,0.0,-4.3263,-4.329,-4.329,-4.329,-4.3105,0.0,0.0,0.0,0.0,0.0,-3.9388,-3.9388,-3.9388,-3.9155,-3.8695,-3.7976,-3.7792,-3.7386,-3.5082,-3.4487,-3.4335,-3.302,-3.2163,-3.1811,-3.2691,-3.2463,-3.2064,-3.2308,-3.2173,-3.1756,-3.0809,-3.062,-3.0457,-2.9895,0.0,0.0,-2.8925,-2.8612,-2.8348,-2.8021,-2.777,-2.7507,-2.7228,-2.6977,-2.6964,-2.7291,-2.7115,-2.6964,-2.6964,-2.6964,0.0,0.0,0.0,-2.6499,-2.6499,-2.6499,0.0,0.0,0.0,-2.616,-2.6499,0.0,0.0,0.0,-2.5109,-2.4921,0.0,0.0,0.0,0.0,0.0,0.0,0.0,0.0,0.0,0.0,0.0,0.0,0.0,0.0,0.0,0.0,-3.5462,-3.6273,-3.7487,-3.8326,-3.9233,-4.0344,-4.1153,-4.1082,-3.9839,-4.1739,-4.2119,-3.989,-4.0743,-4.0882,-3.9736,0.0,0.0,0.0,0.0,-4.2217,-4.3504,-4.3361,-4.3929,-4.5207,-4.6018,-4.6197,-4.5752,-4.5215,-4.4733,-4.4277,-4.3683,-4.3409,-4.3409,-4.3319,-4.3245,-4.3065,-4.1938,-4.1055,-4.0337,-3.9753,-3.9448,0.0,0.0,0.0,0.0,-3.7609,-3.7739,-3.8044,-3.5526,-3.5402,-3.5791,-3.4231,-3.3054,-3.2461,-3.3172,-3.2297,-3.136,-3.1833,-3.1505,-3.0887,-3.0061,-2.9829,-2.983,-2.9934,-2.9856,-2.983,-2.9934,-2.9441,-2.8963,-2.89,-2.8511,-2.8185,-2.8109,-2.767,-2.7369,-2.7369,0.0,0.0,-2.66,-2.6587,-2.6562,-2.6499,-2.6499,-2.6499,-2.6499,-2.6499,-2.6499,-2.6499,-2.6499,-2.6499,-2.6499,-2.6499,-2.6499,-2.6487,-2.5971,-2.5971,0.0,0.0,0.0,0.0,0.0,0.0,0.0,0.0,0.0,0.0,0.0,0.0,0.0,0.0,0.0,-3.7124,-3.7848,-3.8768,-4.026,-4.0293,-4.0082,-3.9892,-4.0917,-4.1082,-3.9839,-4.0173,-4.0224,-3.9736,-3.9929,-3.9981,-3.9697,-3.9929,0.0,-4.0083,-4.1082,-4.2217,-4.3504,-4.2509,-4.2593,-4.3834,0.0,0.0,-4.25,-4.2875,-4.3556,-4.4385,-4.4205,-4.4122,-4.4077,-4.3514,-4.3015,-4.256,-4.2306,-4.1482,-4.0382,-4.0247,-3.9873,-3.9388,-3.9388,-3.9388,-3.9358,-3.8992,-3.9035,-3.8954,-3.7572,-3.6997,0.0,-3.5366,-3.4002,-3.2893,-3.3035,-3.2215,-3.1407,-3.1508,-3.1088,-3.0669,-3.0484,-3.0105,-3.0037,-3.0758,-3.0317,-3.0037,-3.0796,-3.0177,-2.9465,-2.8963,-2.88,-2.8574,-2.816,-2.8009,-2.7946,-2.7946,-2.7846,-2.7607,-2.719,-2.7165,-2.6964,-2.6524,-2.6499,-2.6499,-2.6499,-2.6499,-2.6499,-2.6499,-2.6499,-2.6499,-2.6499,-2.6499,-2.6499,-2.6499,-2.6386,-2.6135,0.0,0.0,0.0,0.0,0.0,0.0,0.0,0.0,0.0,0.0,0.0,-3.5633,0.0,0.0,-3.7444,-3.8667,-3.932,-4.0086,-4.1125,-4.105,-4.0727,-4.0174,-4.044,-4.0415,-3.9736,-3.9697,-3.981,-4.0086,-3.9848,-3.9823,-4.0086,-4.0466,-4.0932,-4.1604,-4.2217,-4.2882,-4.3504,-4.3504,-4.3504,-4.3504,-4.3504,-4.3834,-4.4428,-4.4412,-4.4733,-4.5316,-4.4623,-4.4317,-4.4272,-4.3559,-4.3135,-4.2851,-4.2851,-4.1848,-4.0397,-4.0397,-3.9993,-3.9388,-3.9388,-3.9388,-3.9301,-3.8782,-3.8943,-3.9177,-3.8144,-3.8001,-3.804,-3.7149,-3.5967,-3.4976,-3.4924,-3.3977,-3.3066,-3.3318,-3.2723,-3.1949,-3.1487,-3.1301,-3.1193,-3.1217,-3.1193,-3.1341,-3.1829,-3.1513,-3.0779,-2.9542,-2.9365,-2.9264,-2.8988,-2.8699,-2.8411,-2.8134,-2.7858,-2.7635,-2.7503,-2.7486,-2.7199,-2.6546,-2.6499,-2.6499,-2.6499,-2.6499,-2.6499,-2.6499,-2.6499,-2.6499,-2.6499,-2.6499,-2.6499,-2.6499,-2.6499,-2.6336,0.0,0.0,0.0,0.0,0.0,0.0,0.0,0.0,-3.462,-3.4946,-3.5968,-3.7053,-3.7857,-3.8517,-3.927,-4.0187,-4.089,-4.143,-4.1714,-4.1731,-4.1417,-4.0752,-4.0187,-3.9848,-3.9848,-3.976,-3.9923,-4.0475,-4.0245,-4.0311,-4.083,-4.1331,-4.207,-4.3122,-4.3122,-4.3266,-4.3504,-4.4503,-4.4642,-4.3882,-4.5689,-4.6682,-4.6901,-4.6382,-4.6288,-4.6456,-4.5229,-4.4631,-4.4451,-4.3753,-4.3484,-4.3469,-4.3349,-4.2282,-4.0771,-4.0636,-4.0172,-3.9589,-3.9433,-3.9388,-3.9265,-3.8383,-3.8708,-3.9228,-3.8383,-3.8708,-3.9305,-3.8751,-3.7914,-3.7154,-3.7,-3.5944,-3.5027,-3.5435,-3.474,-3.3753,-3.3006,-3.2799,-3.2629,-3.2063,-3.2282,-3.2664,-3.2855,-3.2713,-3.2033,-3.0317,-3.0216,-3.0292,-3.0113,-2.9808,-2.9322,-2.864,-2.8301,-2.8101,-2.7894,-2.8,-2.7637,-2.6719,-2.665,-2.67,-2.6813,-2.6612,-2.6549,-2.665,-2.6549,-2.6499,-2.6499,-2.6499,-2.6499,-2.6499,-2.6499,-2.6499,-3.42,-3.331,-3.2386,-3.16,-3.1519,-3.2257,0.0,0.0,-3.5654,-3.6672,-3.8199,-3.9209,-3.8843,-4.0782,-4.2459,-4.2585,-4.3489,-4.4016,-4.3589,-4.3099,-4.2409,-4.1313,-4.0764,-4.0425,-4.0425,-3.9986,-3.9923,-4.0475,-4.1066,-4.1618,-4.2145,-4.1821,-4.1654,-4.1789,-4.1789,-4.2363,-4.3504,-4.3646,-4.421,-4.5161,-4.4303,-4.4503,-4.5584,-4.5512,-4.6108,-4.716,-4.6411,-4.5753,-4.514,-4.4466,-4.4212,-4.4152,-4.3529,-4.2851,-4.2111,-4.1527,-4.0846,-4.0202,-3.9634,-3.9388,-3.9388,-3.9265,-3.9301,-3.9388,-3.9265,-3.9301,-3.9373,-3.9334,-3.8517,-3.7728,-3.769,-3.6866,-3.6018,-3.6087,-3.5643,-3.5186,-3.5071,-3.4223,-3.3698,-3.4427,-3.3515,-3.2855,-3.3705,-3.3136,-3.2249,-3.1217,-3.1756,-3.201,-3.1143,-3.1725,-3.1649,-3.0286,-3.0826,-3.0555,-2.875,-2.9032,-2.8708,-2.7289,-2.7228,-2.7406,-2.7896,-2.7014,-2.6725,-2.718,-2.6738,-2.6499,-2.6499,-2.6499,-2.6499,-2.6499,-2.6499,-2.6499,-3.3515,-3.3198,0.0,0.0,-3.2842,-3.4286,-3.6094,-3.701,-3.7789,-3.8894,-4.0199,-4.1106,-4.088,-4.2037,-4.2974,0.0,-4.3639,-4.3953,-4.3401,-4.3124,-4.2572,-4.1413,-4.0852,-4.0388,-4.0074,-3.9823,-3.9923,-4.0475,-4.0796,-4.1183,-4.1747,-4.2661,-4.3155,-4.3155,-4.4696,-4.5196,-4.4595,-4.5717,-4.6005,-4.5403,-4.5584,-4.5973,-4.6491,-4.6491,-4.6578,-4.6711,-4.6399,-4.5723,-4.4706,-4.4421,-4.4092,-4.3678,-4.3409,-4.3125,-4.2851,-4.2192,-4.1572,-4.0935,-4.0651,-4.0561,-4.0561,-4.0561,-4.0561,-4.0561,-4.0561,-4.0292,-3.9993,-3.9993,-3.9387,-3.8745,-3.8745,-3.842,-3.8055,-3.8055,-3.7599,-3.6989,-3.647,-3.605,-3.5656,-3.5105,-3.4949,-3.4879,-3.4865,-3.4558,-3.3939,-3.2996,-3.2713,-3.2464,-3.2069,-3.2357,-3.2231,-3.1289,-3.1698,-3.1127,-2.8898,-3.0152,-3.0248,-2.8235,-2.8416,-2.8666,-2.8912,-2.7967,-2.7369,-2.7281,-2.709,-2.6977,-2.6964,-2.665,-2.6663,-2.6964,-2.665,-2.6499,-3.3469,0.0,0.0,-3.3901,-3.5347,-3.7304,-3.8641,-3.9815,-4.0758,-4.1323,-4.2413,-4.3034,-4.2318,-4.2665,0.0,-4.2974,-4.3438,-4.3715,-4.3581,-4.3101,-4.2545,-4.1903,-4.0781,-4.0053,-3.9982,-3.9802,-3.9923,-4.0475,-4.1195,-4.1841,-4.2343,-4.4144,-4.5134,-4.5134,-4.6518,-4.6747,-4.5708,-4.6902,-4.6962,-4.5928,-4.6873,-4.7309,-4.7309,-4.7309,-4.7055,-4.6591,-4.6591,-4.5933,-4.487,-4.487,-4.4362,-4.3559,-4.3559,-4.3454,-4.3245,-4.2806,-4.2261,-4.1662,-4.1482,-4.1422,-4.1422,-4.1422,-4.1422,-4.1422,-4.1422,-4.1055,-4.0636,-4.0442,-4.0053,-3.9649,-3.9433,-3.9388,-3.9388,-3.9388,-3.9035,-3.8484,-3.7806,-3.7665,-3.7317,-3.616,-3.6364,-3.6537,-3.5893,-3.5774,-3.5454,-3.4558,-3.3822,-3.329,-3.3031,-3.2996,-3.2933,-3.284,-3.2734,-3.1943,-3.0085,-3.1617,-3.1782,-2.9699,-2.9674,-2.9804,-2.9962,-2.9008,-2.8185,-2.7519,-2.7627,-2.7551,-2.7281,-2.6763,-2.6776,-2.7304,-2.6751,-2.6499,0.0,0.0,-3.7809,-3.7518,-3.9104,-4.1183,-4.2843,-4.4137,-4.4778,-4.3903,-4.4887,-4.5142,-4.2663,-4.2665,-4.2974,-4.2974,-4.3438,-4.4028,-4.4763,-4.3336,-4.2468,-4.3148,-4.07,-3.9384,0.0,-4.0044,-3.9923,-4.0475,-4.2901,-4.4615,-4.5172,-4.6517,-4.7308,-4.7308,-4.5588,-4.5169,-4.6356,-4.5765,-4.6091,-4.7251,-4.7266,-4.7309,-4.7309,-4.7309,-4.7294,-4.7279,-4.7279,-4.689,-4.6219,-4.6219,-4.5442,-4.4287,-4.4287,-4.3858,-4.329,-4.3275,-4.2895,-4.2276,-4.1647,-4.1422,-4.1422,-4.1422,-4.1422,-4.1422,-4.1422,-4.1407,-4.122,-4.0576,-4.0382,-4.0232,-3.9553,-3.9388,-3.9388,-3.9388,-3.9373,-3.9343,-3.9343,-3.8805,-3.8362,-3.8297,-3.7808,-3.718,-3.6567,-3.6462,-3.6237,-3.5561,-3.5439,-3.5067,-3.4061,-3.3959,-3.4312,-3.5297,-3.4533,-3.371,-3.311,-3.3609,-3.3309,-3.1785,-3.0868,-3.0609,-3.1138,-3.0045,-2.9006,-2.8072,-2.8447,-2.8196,-2.7281,-2.6763,-2.6776,-2.7304,-2.6751,-2.6499,0.0,0.0,-4.0913,-4.1657,-4.354,-4.5545,-4.6878,-4.744,-4.719,-4.5574,-4.4944,-4.3919,-4.1387,-4.1413,-4.1686,-4.126,-4.3493,-4.4917,-4.3927,-4.3937,-4.373,-4.2869,-4.1104,0.0,0.0,0.0,0.0,-3.9975,-4.2264,-4.3758,-4.3996,-4.5636,-4.6946,-4.7894,-4.7788,-4.7693,-4.7658,-4.7436,-4.7303,-4.7309,-4.7309,-4.7309,-4.7309,-4.7309,-4.7309,-4.7309,-4.7309,-4.6935,-4.6249,-4.5828,-4.5125,-4.4272,-4.3798,-4.3484,-4.329,-4.329,-4.3155,-4.297,-4.2746,-4.2671,-4.2671,-4.2671,-4.2671,-4.2671,-4.2671,-4.2372,-4.2021,-4.1796,-4.1384,-4.0995,-4.0786,-4.0726,-4.0606,-4.0172,-4.0068,-3.9948,-3.9514,-3.923,-3.8931,-3.8482,-3.8212,-3.7853,-3.721,-3.7105,-3.6881,-3.6252,-3.5789,-3.5392,-3.5019,-3.4986,-3.5133,-3.5472,-3.5213,-3.4508,-3.3314,-3.431,-3.4347,-3.2806,-3.2187,-3.1937,-3.2128,-3.1149,-3.0004,-2.8662,-2.9408,-2.9158,-2.7821,-2.7645,-2.7457,-2.7316,-2.7128,-2.6851,-3.903,-4.1732,-4.4514,-4.5401,-4.7356,-4.9178,-4.9665,-4.9725,-4.8819,-4.5897,-4.4702,-4.3208,-4.0194,-3.9774,-3.9911,-3.9994,-4.2262,-4.3903,-4.3587,-4.3866,-4.4036,-4.3856,-4.1718,0.0,0.0,0.0,0.0,-4.108,-4.3302,-4.4752,-4.4802,-4.6785,-4.8348,-4.926,-4.9276,-4.9105,-4.8641,-4.8177,-4.7728,-4.7309,-4.7309,-4.7309,-4.7309,-4.7309,-4.7309,-4.7309,-4.7309,-4.6935,-4.6249,-4.5843,-4.5125,-4.4272,-4.3813,-4.3499,-4.329,-4.329,-4.329,-4.329,-4.329,-4.329,-4.329,-4.329,-4.329,-4.329,-4.329,-4.3045,-4.2671,-4.247,-4.2096,-4.1707,-4.1482,-4.1422,-4.1205,-4.0561,-4.0397,-4.0217,-3.9523,-3.9388,-3.9254,-3.8841,-3.8751,-3.8542,-3.7868,-3.7389,-3.6941,-3.6552,-3.5923,-3.5504,-3.5504,-3.5504,-3.5504,-3.5504,-3.5504,-3.5115,-3.4105,-3.4928,-3.5068,-3.409,-3.3457,-3.3101,-3.3101,-3.2522,-3.1473,-2.9986,-3.0574,-3.0152,-2.8615,-2.8077,-2.7632,-2.7316,-2.7115,-2.6839,-4.1509,-4.5152,-4.8596,-4.876,-5.0442,-5.192,-5.1286,-5.0961,-4.9552,-4.4975,-4.4068,-4.2966,0.0,0.0,-3.8058,-3.9221,-4.0131,-4.1518,-4.3924,-4.3367,-4.3638,0.0,0.0,0.0,0.0,0.0,0.0,-4.3735,0.0,-4.7384,-4.7384,-4.9737,-5.1105,-5.1169,-4.9927,-4.9299,-4.9269,-4.7938,-4.7309,-4.7309,-4.7309,-4.7309,-4.7309,-4.7309,-4.7309,-4.7309,-4.7309,-4.6935,-4.6279,-4.6279,-4.5544,-4.4362,-4.4332,-4.3917,-4.3394,-4.3349,-4.3349,-4.3349,-4.3349,-4.3319,-4.329,-4.329,-4.329,-4.329,-4.329,-4.329,-4.317,-4.262,-4.2455,-4.2306,-4.1639,-4.1489,-4.1309,-4.0651,-4.0472,-4.0277,-3.9619,-3.9403,-3.9388,-3.9388,-3.9388,-3.9215,-3.8556,-3.7375,-3.6537,-3.6537,-3.5953,-3.5504,-3.5504,-3.5504,-3.5504,-3.5504,-3.5504,-3.5504,-3.5504,-3.5504,-3.5504,-3.5504,-3.4543,-3.3993,-3.3993,-3.3993,-3.3317,-3.1868,-3.1854,-3.1102,-2.9596,-2.8152,-2.7402,-2.7374,-2.6845,-2.6593,-4.5461,-4.885,-5.2079,-5.2609,-5.3223,-5.3485,-5.2803,-5.0739,-4.8093,-4.497,-4.237,-3.9909,0.0,0.0,0.0,-3.9396,-4.2462,0.0,-4.5088,-4.5627,0.0,0.0,0.0,-4.4609,-4.6373,-4.6343,0.0,0.0,-4.7445,-4.7275,-4.7384,-4.8885,-4.9923,-5.045,-4.9688,-4.9075,-4.8536,-4.7713,-4.7309,-4.7309,-4.7309,-4.7309,-4.7309,-4.7309,-4.7309,-4.7309,-4.7309,-4.6935,-4.6279,-4.6279,-4.5813,-4.5005,-4.4511,-4.4511,-4.4736,-4.4242,-4.4062,-4.4062,-4.4062,-4.3708,-4.329,-4.329,-4.329,-4.329,-4.329,-4.329,-4.326,-4.3135,-4.309,-4.3045,-4.288,-4.2836,-4.2671,-4.2051,-4.1527,-4.095,-4.0292,-3.9768,-3.9388,-3.9388,-3.9388,-3.9364,-3.9185,-3.8063,-3.718,-3.718,-3.6222,-3.5504,-3.5504,-3.5504,-3.5504,-3.5504,-3.5504,-3.5504,-3.5504,-3.5504,-3.5504,-3.5504,-3.4543,-3.3993,-3.3993,-3.3993,-3.3482,-3.2407,-3.2407,-3.1998,-3.1199,-3.0011,-2.9064,-2.8333,-2.8095,-2.7447,-4.8072,-5.084,-5.3279,-5.3668,-5.3758,-5.3279,-5.1439,-4.9164,-4.6407,-4.294,-4.0497,0.0,0.0,0.0,0.0,0.0,0.0,0.0,-4.4847,-4.6239,-4.7227,0.0,-4.6608,0.0,-4.8045,-4.7704,-4.7928,0.0,-4.8824,-4.8539,-4.8632,-4.9538,-5.0103,-5.0211,-4.9598,-4.8865,-4.7863,-4.7489,-4.7309,-4.7309,-4.7309,-4.7309,-4.7309,-4.7309,-4.7309,-4.7309,0.0,-4.71,-4.6741,-4.6399,-4.6097,-4.5678,-4.5005,-4.4975,-4.5244,-4.4885,-4.4751,-4.4706,-4.4407,-4.4062,-4.3678,-4.3394,-4.329,-4.329,-4.329,-4.329,-4.329,-4.329,-4.329,-4.329,-4.329,-4.329,-4.3125,-4.2545,-4.1901,-4.1205,-4.0546,-3.9888,-3.9388,-3.9388,-3.9388,-3.9388,-3.9388,-3.8302,-3.7404,-3.7404,-3.6327,-3.5504,-3.5504,-3.5504,-3.5504,-3.5504,-3.5504,-3.5504,-3.5504,-3.5504,-3.5504,-3.5504,-3.4986,-3.4658,-3.4658,-3.4658,-3.4394,-3.3871,-3.3429,-3.2804,-3.1951,-3.0548,-2.9346,-2.8245,-2.7806,-2.722,-4.9792,-5.1932,-5.3399,-5.3219,-5.298,-5.1947,-4.8745,-4.6741,-4.4306,-4.0142,0.0,-3.7494,-3.5818,0.0,-3.706,-3.8437,0.0,-4.2222,-4.4287,-4.6082,-4.7414,-4.8072,-4.7873,-4.8068,-4.9209,-4.8475,-4.8378,-4.9478,-5.0047,-5.0285,-5.0196,-5.0823,-5.0885,-5.0091,-4.9389,-4.8461,-4.7309,-4.7309,-4.7309,-4.7309,-4.7309,-4.7309,-4.7309,-4.7309,-4.7309,-4.7309,0.0,0.0,-4.713,-4.6651,-4.6396,-4.6219,-4.5663,-4.5484,-4.5544,-4.5469,-4.5424,-4.5349,-4.4781,-4.4466,-4.4212,-4.3499,-4.329,-4.329,-4.329,-4.329,-4.329,-4.329,-4.329,-4.329,-4.329,-4.329,-4.3155,-4.2626,-4.1961,-4.122,-4.0651,-3.9948,-3.9388,-3.9388,-3.9388,-3.9388,-3.9388,-3.8377,-3.7509,-3.7419,-3.6402,-3.5609,-3.5519,-3.5504,-3.5504,-3.5504,-3.5504,-3.5504,-3.5504,-3.5504,-3.5504,-3.5504,-3.5504,-3.5504,-3.5504,-3.5504,-3.5504,-3.5504,-3.4422,-3.3431,-3.251,-3.0622,-2.918,-2.8125,-2.7255,-2.685,-5.1439,-5.3324,-5.4581,-5.3458,-5.1947,-4.9986,-4.7294,-4.3943,0.0,0.0,0.0,-3.5908,-3.5564,-3.6462,0.0,-3.9753,0.0,0.0,0.0,0.0,-4.6741,0.0,0.0,0.0,0.0,0.0,0.0,0.0,0.0,0.0,-5.0226,-5.0823,-5.0676,-4.9479,-4.8267,-4.7534,-4.7309,-4.7309,-4.7309,-4.7309,-4.7309,-4.7309,-4.7309,-4.7309,-4.7309,-4.7309,0.0,0.0,-4.6488,-4.6965,-4.6815,-4.6264,-4.6187,-4.6471,-4.689,-4.6352,-4.6142,-4.6127,-4.5965,-4.5244,-4.4212,-4.3499,-4.329,-4.329,-4.329,-4.329,-4.329,-4.329,-4.329,-4.329,-4.329,-4.329,-4.326,-4.3155,-4.2252,-4.1392,-4.1235,-4.0262,-3.9388,-3.9388,-3.9388,-3.9388,-3.9388,-3.8751,-3.8033,-3.7494,-3.6791,-3.6118,-3.5579,-3.5504,-3.5504,-3.5504,-3.5504,-3.5504,-3.5504,-3.5504,-3.5504,-3.5504,-3.5504,-3.5504,-3.5504,-3.5504,-3.5504,-3.5504,-3.4014,-3.3522,-3.4103,-3.1867,-3.0747,-3.0569,-2.9191,-2.8556,-5.1663,-5.2905,-5.3473,-5.283,-5.0676,-4.7923,-4.4945,0.0,0.0,0.0,0.0,-3.5504,-3.5504,0.0,0.0,0.0,0.0,0.0,0.0,0.0,0.0,0.0,0.0,0.0,0.0,0.0,0.0,0.0,0.0,0.0,-5.0719,-5.0674,-5.0272,-4.9344,-4.8327,-4.7653,-4.7309,-4.7309,-4.7309,-4.7309,-4.7309,-4.7309,-4.7309,-4.7309,-4.7309,-4.7309,-4.7309,0.0,-4.686,-4.7174,-4.7115,-4.683,-4.683,-4.7025,-4.7264,-4.695,-4.683,-4.6785,-4.6399,-4.5903,-4.5185,-4.4127,-4.3574,-4.329,-4.329,-4.329,-4.329,-4.329,-4.329,-4.329,-4.329,-4.329,-4.329,-4.329,-4.2342,-4.119,-4.0502,-3.9858,-3.9388,-3.9388,-3.9388,-3.9388,-3.9388,-3.8841,-3.8287,-3.7973,-3.7105,-3.6492,-3.6492,-3.5923,-3.5504,-3.5504,-3.5504,-3.5504,-3.5504,-3.5504,-3.5504,-3.5504,-3.5504,-3.5504,-3.5504,-3.5504,-3.5504,-3.5504,-3.4383,-3.3866,-3.3994,-3.2074,-3.1017,-3.0717,-2.9537,-2.92,-5.1109,-5.1977,-5.2127,-5.1843,-4.9299,-4.6037,-4.2905,-4.0029,0.0,0.0,-3.5504,-3.5504,-3.5504,0.0,0.0,0.0,0.0,0.0,0.0,0.0,0.0,0.0,0.0,0.0,0.0,0.0,0.0,0.0,0.0,0.0,0.0,-5.0539,-4.9942,-4.9329,-4.8626,-4.7967,-4.7309,-4.7309,-4.7309,-4.7309,-4.7309,-4.7309,-4.7309,-4.7309,-4.7309,-4.7309,-4.7309,0.0,0.0,-4.7309,-4.7309,-4.7309,-4.7309,-4.7309,-4.7309,-4.7309,-4.7309,-4.7234,-4.6711,-4.6399,-4.6085,-4.4915,-4.4077,-4.3484,-4.3334,-4.329,-4.329,-4.329,-4.329,-4.329,-4.329,-4.329,-4.326,-4.3125,-4.2342,-4.1235,-3.9903,-3.9634,-3.9553,-3.9454,-3.9388,-3.9388,-3.9388,-3.8975,-3.8556,-3.8407,-3.7539,-3.7015,-3.736,-3.6537,-3.5863,-3.5729,-3.5594,-3.5504,-3.5504,-3.5504,-3.5504,-3.5504,-3.5504,-3.5504,-3.5504,-3.5504,-3.5504,-3.5504,-3.4831,-3.4249,-3.3709,-3.235,-3.1384,-3.0757,-3.0029,-2.9985,-4.9822,-5.1289,-5.1917,-5.0674,-4.7923,-4.4766,-4.2087,0.0,0.0,-3.5669,-3.5504,-3.5504,-3.5504,-3.5549,0.0,0.0,0.0,0.0,0.0,0.0,0.0,0.0,0.0,0.0,0.0,0.0,0.0,0.0,0.0,0.0,0.0,-5.0539,-4.9942,-4.9329,-4.8626,-4.7967,-4.7309,-4.7309,-4.7309,-4.7309,-4.7309,-4.7309,-4.7309,-4.7309,-4.7309,-4.7309,0.0,0.0,0.0,-4.7309,-4.7309,-4.7309,-4.7309,-4.7309,-4.7309,-4.7309,-4.7309,-4.7294,-4.7234,-4.683,-4.6202,-4.5454,-4.4751,-4.4067,-4.3469,-4.329,-4.329,-4.329,-4.329,-4.329,-4.329,-4.329,-4.314,-4.262,-4.2396,-4.1946,-4.0591,-4.0307,-4.0127,-3.9529,-3.9388,-3.9388,-3.9388,-3.9364,-3.911,-3.8482,-3.8287,-3.8018,-3.7479,-3.73,-3.703,-3.6462,-3.5863,-3.5504,-3.5504,-3.5504,-3.5504,-3.5504,-3.5504,-3.5504,-3.5504,-3.5504,-3.5504,-3.5504,-3.4831,-3.4474,-3.4414,-3.3647,-3.296,-3.2273,-3.2038,-3.2024,-4.7938,-4.9434,-5.0212,-4.9284,-4.6277,-4.3045,-4.1205,0.0,0.0,-3.5564,-3.5504,-3.5504,-3.5504,-3.5504,-3.5669,-3.6178,0.0,0.0,0.0,0.0,0.0,0.0,0.0,0.0,0.0,0.0,0.0,0.0,0.0,0.0,0.0,-5.0167,-4.9763,-4.8716,-4.8416,-4.7967,-4.7309,-4.7309,-4.7309,-4.7309,-4.7309,-4.7309,-4.7309,-4.7309,-4.7309,-4.7309,0.0,0.0,0.0,-4.7309,-4.7309,-4.7309,-4.7309,-4.7309,-4.7309,-4.7309,-4.7309,-4.7309,-4.7309,-4.6875,-4.6217,-4.5529,-4.4855,-4.4182,-4.3484,-4.329,-4.329,-4.329,-4.329,-4.329,-4.329,-4.329,-4.3125,-4.2545,-4.2396,-4.2036,-4.0681,-4.0711,-4.0681,-3.9634,-3.9738,-3.9888,-3.9448,-3.9388,-3.9334,-3.905,-3.8661,-3.8437,-3.8601,-3.7913,-3.7464,-3.7614,-3.6716,-3.5938,-3.5534,-3.5504,-3.5504,-3.5504,-3.5504,-3.5504,-3.5504,-3.5504,-3.5504,-3.5504,-3.4831,-3.4503,-3.4503,-3.3814,-3.3365,-3.311,-3.3012,-3.322,-4.5603,-4.71,-4.8026,-4.7519,-4.4762,-4.1767,0.0,0.0,0.0,-3.5504,-3.5504,-3.5504,-3.5504,-3.5504,-3.5504,-3.5504,0.0,-3.6118,0.0,0.0,0.0,0.0,0.0,0.0,0.0,0.0,0.0,0.0,0.0,0.0,0.0,-4.9419,-4.9239,-4.8312,-4.8282,-4.7967,-4.7309,-4.7309,-4.7309,-4.7309,-4.7309,-4.7309,-4.7309,-4.7309,-4.7309,-4.7309,0.0,0.0,0.0,-4.7309,-4.7309,-4.7309,-4.7309,-4.7309,-4.7309,-4.7309,-4.7174,-4.701,-4.701,-4.6576,-4.5903,-4.5229,-4.4691,-4.4182,-4.3484,-4.329,-4.329,-4.329,-4.329,-4.329,-4.329,-4.329,-4.317,-4.2761,-4.2656,-4.2342,-4.122,-4.1339,-4.1339,-4.0217,-4.0217,-4.0247,-3.9783,-3.9508,-3.9388,-3.9388,-3.9005,-3.8871,-3.9328,-3.8586,-3.8033,-3.8093,-3.73,-3.6492,-3.5848,-3.5609,-3.5504,-3.5504,-3.5504,-3.5504,-3.5504,-3.5504,-3.5504,-3.5504,-3.5026,-3.4786,-3.4786,-3.4322,-3.3978,-3.3784,-3.3993,-3.4233,-4.288,-4.4362,-4.5334,-4.5334,-4.3344,-4.1055,0.0,0.0,0.0,-3.5504,-3.5504,-3.5504,-3.5504,-3.5504,-3.5504,-3.5504,-3.5504,0.0,0.0,0.0,0.0,0.0,0.0,0.0,0.0,0.0,0.0,0.0,0.0,0.0,0.0,0.0,-4.8297,-4.8282,-4.8282,-4.7967,-4.7309,-4.7309,-4.7309,-4.7309,-4.7309,-4.7309,-4.7309,-4.7309,-4.7309,0.0,0.0,0.0,0.0,-4.7309,-4.7309,-4.7309,-4.7309,-4.7309,-4.7309,-4.7309,-4.689,-4.6294,-4.6294,-4.5873,-4.52,-4.4541,-4.4317,-4.4182,-4.3484,-4.329,-4.329,-4.329,-4.329,-4.329,-4.329,-4.329,-4.329,-4.329,-4.329,-4.3135,-4.2515,-4.2381,-4.2186,-4.1527,-4.0846,-4.0397,-4.0382,-3.9843,-3.9388,-3.9388,-3.9373,-3.9373,-3.9388,-3.9373,-3.8886,-3.7554,-3.7404,-3.715,-3.6537,-3.5878,-3.5504,-3.5504,-3.5504,-3.5504,-3.5504,-3.5504,-3.5504,-3.5504,-3.5489,-3.5489,-3.5489,-3.5489,-3.513,-3.4518,-3.516,-3.513,-4.0382,-4.1624,-4.2506,-4.2058,-4.0636,-3.911,-3.8242,0.0,0.0,-3.5504,-3.5504,-3.5504,-3.5504,-3.5504,-3.5504,-3.5504,-3.5504,0.0,0.0,0.0,0.0,0.0,0.0,0.0,0.0,0.0,0.0,0.0,0.0,0.0,0.0,0.0,-4.7623,-4.7623,-4.7623,-4.7519,-4.7309,-4.7309,-4.7309,-4.7309,-4.7309,-4.7309,-4.7309,-4.7309,0.0,0.0,0.0,0.0,0.0,-4.7309,-4.7309,-4.7309,-4.7309,-4.7309,-4.7309,-4.7309,-4.689,-4.6279,-4.6279,-4.5574,-4.4586,-4.4392,-4.4003,-4.3559,-4.3349,-4.329,-4.329,-4.329,-4.329,-4.329,-4.329,-4.329,-4.329,-4.329,-4.329,-4.315,-4.2545,-4.2701,-4.2701,-4.1594,-4.1205,-4.107,-4.107,-4.0157,-3.9574,-4.0023,-3.9709,-3.9388,-3.9388,-3.9388,-3.926,-3.8826,-3.8362,-3.7464,-3.5953,-3.5624,-3.5504,-3.5504,-3.5504,-3.5504,-3.5504,-3.5504,-3.5504,-3.5504,-3.5504,-3.5504,-3.5504,-3.5504,-3.5385,-3.519,-3.54,-3.513,0.0,-3.9439,-4.0157,-3.9738,-3.8826,0.0,0.0,0.0,0.0,-3.5504,-3.5504,-3.5504,-3.5504,-3.5504,-3.5504,-3.5504,-3.5504,0.0,0.0,0.0,0.0,0.0,0.0,0.0,0.0,0.0,0.0,0.0,0.0,0.0,0.0,0.0,-4.7309,-4.7309,-4.7309,-4.7309,-4.7309,-4.7309,-4.7309,-4.7309,-4.7309,-4.7309,-4.7309,-4.7309,0.0,0.0,0.0,0.0,0.0,-4.7309,-4.7309,-4.7309,-4.7309,-4.7309,-4.7279,-4.7025,-4.6516,-4.5903,-4.5648,-4.4814,-4.3902,-4.3902,-4.3618,-4.329,-4.329,-4.329,-4.329,-4.329,-4.329,-4.329,-4.329,-4.329,-4.329,-4.329,-4.329,-4.3185,-4.2821,-4.3045,-4.305,-4.2282,-4.1923,-4.1796,-4.1796,-4.0666,-3.9933,-4.0337,-3.9843,-3.9388,-3.9388,-3.9388,-3.932,-3.905,-3.8646,-3.7704,-3.6013,-3.5878,-3.5774,-3.5519,-3.5504,-3.5504,-3.5504,-3.5504,-3.5504,-3.5504,-3.5504,-3.5504,-3.5504,-3.5504,-3.5504,-3.5504,-3.5504,-3.528,0.0,-3.7719,0.0,0.0,0.0,0.0,0.0,0.0,0.0,0.0,0.0,-3.5504,-3.5504,-3.5504,-3.5504,-3.5504,0.0,0.0,0.0,0.0,0.0,0.0,0.0,0.0,0.0,0.0,0.0,0.0,0.0,0.0,0.0,0.0,0.0,-4.7309,-4.7249,-4.7249,-4.7309,-4.7309,-4.7309,-4.7309,-4.7309,-4.7309,-4.7309,-4.7309,0.0,0.0,0.0,0.0,0.0,-4.7309,-4.7309,-4.7309,-4.7309,-4.7309,-4.7234,-4.6576,-4.5888,-4.52,-4.4541,-4.3843,-4.329,-4.329,-4.329,-4.329,-4.329,-4.329,-4.329,-4.329,-4.329,-4.329,-4.329,-4.329,-4.329,-4.329,-4.329,-4.329,-4.329,-4.329,-4.329,-4.329,-4.2806,-4.241,-4.247,-4.1339,-4.0487,-4.0531,-3.9933,-3.9448,-3.9448,-3.9454,-3.917,-3.8527,-3.8467,-3.7943,-3.6656,-3.6507,-3.6207,-3.5549,-3.5504,-3.5504,-3.5504,-3.5504,-3.5504,-3.5504,-3.5504,-3.5504,-3.5504,-3.5504,-3.5504,-3.5504,-3.5504,-3.5504,-3.5878,0.0,-3.6178,-3.6178,-3.6073,0.0,0.0,0.0,0.0,0.0,0.0,0.0,0.0,0.0,0.0,0.0,0.0,0.0,0.0,0.0,0.0,0.0,0.0,0.0,0.0,0.0,0.0,0.0,0.0,0.0,0.0,0.0,0.0,-4.7309,-4.6815,-4.68,-4.7294,-4.7309,-4.7309,-4.7309,-4.7309,-4.7309,-4.7309,-4.7309,0.0,0.0,0.0,0.0,-4.7309,-4.7309,-4.7309,-4.7309,-4.7309,-4.7309,-4.7234,-4.6576,-4.5888,-4.52,-4.4541,-4.3843,-4.329,-4.329,-4.329,-4.329,-4.329,-4.329,-4.329,-4.329,-4.329,-4.329,-4.329,-4.329,-4.329,-4.329,-4.329,-4.329,-4.329,-4.329,-4.329,-4.329,-4.2806,-4.256,-4.3015,-4.2028,-4.1324,-4.1856,-4.0905,-4.0172,-4.0172,-3.9723,-3.9328,-3.9185,-3.917,-3.8631,-3.73,-3.6761,-3.6207,-3.5549,-3.5504,-3.5504,-3.5504,-3.5504,-3.5504,-3.5504,-3.5504,-3.5504,-3.5504,-3.5504,-3.5504,-3.5504,-3.5504,-3.5504,-3.5587,-3.5504,-3.5504,-3.5504,-3.5504,-3.5504,-3.5504,0.0,0.0,0.0,0.0,0.0,0.0,0.0,0.0,0.0,0.0,0.0,0.0,0.0,0.0,0.0,0.0,0.0,0.0,0.0,0.0,0.0,0.0,0.0,0.0,0.0,-4.7309,-4.7309,-4.6666,-4.6636,-4.7294,-4.6696,-4.6696,-4.7309,-4.6995,-4.701,-4.7309,-4.7309,0.0,0.0,0.0,0.0,-4.686,-4.686,-4.686,-4.689,-4.7189,-4.7115,-4.677,-4.6097,-4.5424,-4.4751,-4.4092,-4.3589,-4.329,-4.329,-4.329,-4.329,-4.329,-4.329,-4.329,-4.329,-4.329,-4.329,-4.329,-4.329,-4.329,-4.329,-4.329,-4.329,-4.329,-4.329,-4.329,-4.329,-4.3045,-4.2925,-4.323,-4.2506,-4.1991,-4.2351,-4.125,-4.0397,-4.0397,-3.9828,-3.9388,-3.9388,-3.9388,-3.899,-3.7943,-3.7285,-3.6507,-3.5564,-3.5504,-3.5504,-3.5504,-3.5504,-3.5504,-3.5504,-3.5504,-3.5504,-3.5504,-3.5504,-3.5504,-3.5504,-3.5504,-3.5504,-3.5814,-3.5587,-3.5504,-3.5504,-3.5504,-3.5504,-3.5504,0.0,0.0,0.0,0.0,0.0,0.0,0.0,0.0,0.0,0.0,0.0,0.0,0.0,0.0,0.0,0.0,0.0,0.0,0.0,0.0,0.0,0.0,0.0,0.0,0.0,0.0,-4.716,-4.6516,-4.6441,-4.6995,-4.5858,-4.5858,-4.6995,-4.6441,-4.6456,-4.6995,-4.6995,-4.6995,0.0,0.0,0.0,-4.6279,-4.6279,-4.6339,-4.6488,-4.7085,-4.6905,-4.6204,-4.5663,-4.496,-4.4212,-4.3529,-4.329,-4.329,-4.329,-4.329,-4.329,-4.329,-4.329,-4.329,-4.329,-4.329,-4.329,-4.329,-4.329,-4.329,-4.329,-4.329,-4.329,-4.329,-4.329,-4.329,-4.329,-4.329,-4.329,-4.329,-4.288,-4.2515,-4.241,-4.1324,-4.0516,-4.0412,-3.9828,-3.9388,-3.9388,-3.9388,-3.914,-3.8452,-3.7883,-3.7015,-3.5729,-3.5564,-3.5504,-3.5504,-3.5504,-3.5504,-3.5504,-3.5504,-3.5504,-3.5504,-3.5504,-3.5504,-3.5504,-3.5504,-3.5504,-3.6275,-3.5975,-3.5504,-3.5504,-3.5504,-3.5504,-3.5504,0.0,0.0,0.0,0.0,0.0,0.0,0.0,0.0,0.0,0.0,0.0,0.0,0.0,0.0,0.0,0.0,0.0,0.0,0.0,0.0,0.0,0.0,0.0,0.0,0.0,0.0,-4.6444,-4.5813,-4.5499,-4.5603,-4.5394,-4.5394,-4.5603,-4.5499,-4.5514,-4.5603,-4.5603,-4.5603,0.0,0.0,-4.5783,-4.6279,-4.6279,-4.6651,-4.7174,-4.7264,-4.6905,-4.6264,-4.616,-4.5379,-4.4212,-4.3529,-4.329,-4.329,-4.329,-4.329,-4.329,-4.329,-4.329,-4.329,-4.329,-4.329,-4.329,-4.329,-4.329,-4.329,-4.329,-4.329,-4.329,-4.329,-4.329,-4.329,-4.329,-4.329,-4.329,-4.329,-4.32,-4.3,-4.2485,-4.1752,-4.1025,-4.0472,-3.9828,-3.9388,-3.9388,-3.9388,-3.914,-3.8452,-3.8302,-3.7689,-3.6417,-3.5804,-3.5504,-3.5504,-3.5504,-3.5504,-3.5504,-3.5504,-3.5504,-3.5504,-3.5504,-3.5504,-3.5504,-3.5504,-3.5504,-3.716,-3.6692,-3.6086,-3.6086,-3.5767,-3.5504,-3.5504,-3.5504,0.0,0.0,0.0,0.0,0.0,0.0,0.0,0.0,0.0,0.0,0.0,0.0,0.0,0.0,0.0,0.0,0.0,0.0,0.0,0.0,0.0,0.0,0.0,0.0,0.0,0.0,-4.511,-4.4766,-4.4766,-4.4407,-4.4586,-4.5289,-4.493,-4.4945,-4.5289,-4.5289,-4.5289,-4.5274,0.0,-4.4945,-4.5244,-4.5244,-4.5424,-4.5723,-4.6082,-4.5813,-4.52,-4.4799,-4.4276,-4.3708,-4.3409,-4.329,-4.329,-4.329,-4.329,-4.329,-4.329,-4.329,-4.329,-4.329,-4.329,-4.329,-4.329,-4.329,-4.329,-4.329,-4.329,-4.329,-4.329,-4.329,-4.329,-4.329,-4.329,-4.329,-4.329,-4.329,-4.312,-4.25,-4.1841,-4.1145,-4.0487,-3.9828,-3.9388,-3.9388,-3.9388,-3.929,-3.8975,-3.8601,-3.7853,-3.6567,-3.5863,-3.5504,-3.5504,-3.5504,-3.5504,-3.5504,-3.5504,-3.5504,-3.5504,-3.5504,-3.5504,-3.5504,-3.5504,-3.5504,-3.7978,-3.7203,-3.6384,-3.6554,0.0,-3.5504,-3.5504,-3.5624,0.0,0.0,0.0,0.0,0.0,0.0,0.0,0.0,0.0,0.0,0.0,0.0,0.0,0.0,0.0,0.0,0.0,0.0,0.0,0.0,0.0,0.0,0.0,0.0,0.0,0.0,-4.4571,-4.4242,-4.4092,-4.3544,-4.3838,-4.4825,-4.4332,-4.4347,-4.484,-4.484,-4.484,-4.4811,-4.4302,-4.4167,-4.4317,-4.4317,-4.4407,-4.4601,-4.5095,-4.499,-4.4451,-4.3589,-4.3394,-4.3499,-4.3349,-4.329,-4.329,-4.329,-4.329,-4.329,-4.329,-4.329,-4.329,-4.329,-4.329,-4.329,-4.329,-4.329,-4.329,-4.329,-4.329,-4.329,-4.329,-4.329,-4.329,-4.329,-4.329,-4.329,-4.329,-4.329,-4.306,-4.2291,-4.1737,-4.1085,-4.0277,-3.9723,-3.9388,-3.9388,-3.9388,-3.9388,-3.9388,-3.8796,-3.7913,-3.6776,-3.5953,-3.5504,-3.5504,-3.5504,-3.5504,-3.5504,-3.5504,-3.5504,-3.5504,-3.5504,-3.5504,-3.5504,-3.5504,-3.5504,-3.8425,-3.7233,-3.575,-3.6446,-3.607,0.0,-3.5504,-3.5983,0.0,-3.6417,0.0,0.0,0.0,0.0,0.0,0.0,0.0,0.0,0.0,0.0,0.0,0.0,0.0,0.0,0.0,0.0,0.0,0.0,0.0,0.0,0.0,0.0,0.0,0.0,0.0,-4.4018,-4.3364,-4.3319,-4.3349,-4.3424,-4.3394,-4.3394,-4.3439,-4.3439,-4.3439,-4.3424,-4.3379,-4.3708,-4.4317,-4.4317,-4.4676,-4.5229,-4.5274,-4.5274,-4.5065,-4.3768,-4.3678,-4.4152,-4.3499,-4.329,-4.329,-4.329,-4.329,-4.329,-4.329,-4.329,-4.329,-4.329,-4.329,-4.329,-4.329,-4.329,-4.329,-4.329,-4.329,-4.329,-4.329,-4.329,-4.329,-4.329,-4.329,-4.329,-4.329,-4.329,-4.2871,-4.1639,-4.1452,-4.092,-3.9649,-3.9454,-3.9388,-3.9388,-3.9388,-3.9388,-3.9388,-3.8796,-3.8093,-3.7389,-3.6193,-3.5504,-3.5504,-3.5504,-3.5504,-3.5504,-3.5504,-3.5504,-3.5504,-3.5504,-3.5504,-3.5504,-3.5504,-3.5504,-3.9342,-3.7946,-3.6368,-3.716,-3.643,0.0,0.0,-3.6312,-3.6836,-3.6043,-3.6836,0.0,0.0,0.0,0.0,0.0,0.0,0.0,0.0,0.0,0.0,0.0,0.0,0.0,0.0,0.0,0.0,0.0,0.0,0.0,0.0,0.0,0.0,0.0,0.0,-4.2985,-4.2731,-4.2327,-4.2117,-4.2132,-4.2901,-4.329,-4.329,-4.329,-4.329,-4.329,-4.329,-4.3439,-4.3663,-4.3663,-4.3813,-4.4077,-4.4077,-4.4077,-4.3977,-4.3484,-4.3454,-4.3618,-4.3379,-4.329,-4.329,-4.329,-4.329,-4.329,-4.329,-4.329,-4.329,-4.329,-4.329,-4.329,-4.329,-4.329,-4.329,-4.329,-4.329,-4.329,-4.329,-4.329,-4.329,-4.329,-4.329,-4.329,-4.329,-4.329,-4.2895,-4.1579,-4.1422,-4.0905,-3.9553,-3.9388,-3.9388,-3.9388,-3.9388,-3.9388,-3.9388,-3.8796,-3.8108,-3.7449,-3.6596,-3.5923,-3.5519,-3.5504,-3.5504,-3.5504,-3.5504,-3.5504,-3.5504,-3.5504,-3.5504,-3.5504,-3.5504,-3.5504,-3.9876,-3.8398,-3.6783,-3.7602,0.0,0.0,-3.5774,-3.6641,-3.7225,-3.6552,-3.7464,0.0,0.0,0.0,0.0,0.0,0.0,0.0,0.0,0.0,0.0,0.0,0.0,0.0,0.0,0.0,0.0,0.0,0.0,0.0,0.0,0.0,0.0,0.0,0.0,0.0,-4.2096,-4.1647,-4.1422,-4.1384,-4.2282,-4.2821,-4.303,-4.303,-4.3135,-4.329,-4.329,-4.329,-4.329,-4.329,-4.329,-4.329,-4.329,-4.329,-4.329,-4.329,-4.329,-4.329,-4.329,-4.329,-4.329,-4.329,-4.329,-4.329,-4.329,-4.329,-4.329,-4.329,-4.329,-4.329,-4.329,-4.329,-4.329,-4.329,-4.329,-4.329,-4.329,-4.329,-4.329,-4.329,-4.329,-4.329,-4.329,-4.329,-4.2895,-4.1579,-4.1422,-4.0905,-3.9553,-3.9388,-3.9388,-3.9388,-3.9388,-3.9388,-3.9388,-3.899,-3.8332,-3.7464,-3.7015,-3.6402,-3.5549,-3.5504,-3.5504,-3.5504,-3.5504,-3.5504,-3.5504,-3.5504,-3.5504,-3.5504,-3.5504,-3.5504,-3.9859,-3.8398,-3.6783,0.0,0.0,0.0,-3.6342,-3.6971,-3.7599,-3.8272,0.0,0.0,0.0,0.0,0.0,0.0,0.0,0.0,0.0,0.0,0.0,0.0,0.0,0.0,0.0,0.0,0.0,0.0,0.0,0.0,0.0,0.0,0.0,0.0,0.0,0.0,-4.1422,-4.1369,-4.1392,-4.1392,-4.1392,-4.1752,-4.2396,-4.2396,-4.2701,-4.329,-4.329,-4.329,-4.329,-4.329,-4.329,-4.329,-4.329,-4.329,-4.329,-4.329,-4.329,-4.329,-4.329,-4.329,-4.329,-4.329,-4.329,-4.329,-4.329,-4.329,-4.329,-4.329,-4.329,-4.329,-4.329,-4.329,-4.329,-4.329,-4.329,-4.329,-4.329,-4.329,-4.329,-4.329,-4.329,-4.329,-4.329,-4.329,-4.2895,-4.1594,-4.1384,-4.092,-3.9568,-3.9388,-3.9388,-3.9388,-3.9388,-3.9388,-3.9388,-3.9388,-3.882,-3.7494,-3.7404,-3.6836,-3.5549,-3.5504,-3.5504,-3.5504,-3.5504,-3.5504,-3.5504,-3.5504,-3.5504,-3.5504,-3.5504,-3.5504,-3.9342,-3.8358,0.0,0.0,0.0,0.0,0.0,-3.6971,0.0,0.0,0.0,0.0,0.0,0.0,0.0,0.0,0.0,0.0,0.0,0.0,0.0,0.0,0.0,0.0,0.0,0.0,0.0,0.0,0.0,0.0,0.0,0.0,0.0,0.0,0.0,0.0,-4.0696,-4.0232,-3.9993,-3.9993,-3.9993,-4.0591,-4.1707,-4.1707,-4.2066,-4.2656,-4.2656,-4.2656,-4.2656,-4.2656,-4.2925,-4.329,-4.329,-4.329,-4.329,-4.329,-4.329,-4.329,-4.329,-4.329,-4.329,-4.329,-4.329,-4.329,-4.329,-4.329,-4.329,-4.329,-4.329,-4.329,-4.329,-4.329,-4.329,-4.329,-4.329,-4.329,-4.329,-4.329,-4.329,-4.329,-4.329,-4.329,-4.329,-4.329,-4.3045,-4.2231,-4.2111,-4.1632,-4.0277,-3.9709,-3.9388,-3.9388,-3.9388,-3.9388,-3.9388,-3.9388,-3.9035,-3.8153,-3.7659,-3.6836,-3.5549,-3.5504,-3.5504,-3.5504,-3.5504,-3.5504,-3.5504,-3.5504,-3.5504,-3.5504,-3.5504,-3.5504,-3.9516,0.0,0.0,0.0,0.0,0.0,0.0,0.0,0.0,0.0,0.0,0.0,0.0,0.0,0.0,0.0,0.0,0.0,0.0,0.0,0.0,0.0,0.0,0.0,0.0,0.0,0.0,0.0,0.0,0.0,0.0,0.0,0.0,0.0,0.0,0.0,-4.0008,-3.9619,-3.9388,-3.9388,-3.9388,-3.9828,-4.0606,-4.0876,-4.1392,-4.2006,-4.2006,-4.2006,-4.2006,-4.2006,-4.2207,-4.2581,-4.2851,-4.294,-4.297,-4.32,-4.329,-4.329,-4.329,-4.329,-4.329,-4.329,-4.329,-4.329,-4.329,-4.329,-4.329,-4.329,-4.329,-4.329,-4.329,-4.3591,-4.381,-4.3394,-4.329,-4.329,-4.329,-4.329,-4.329,-4.329,-4.329,-4.329,-4.329,-4.329,-4.312,-4.25,-4.1961,-4.1205,-4.0142,-3.9664,-3.9388,-3.9388,-3.9388,-3.9388,-3.9388,-3.9388,-3.9125,-3.8437,-3.7778,-3.6956,-3.5938,-3.5639,-3.5504,-3.5504,-3.5504,-3.5504,-3.5504,-3.5504,-3.5504,-3.5504,-3.5504,-3.5504,-4.002,0.0,0.0,0.0,0.0,0.0,0.0,0.0,0.0,0.0,0.0,0.0,0.0,0.0,0.0,0.0,0.0,0.0,0.0,0.0,0.0,0.0,0.0,0.0,0.0,0.0,0.0,0.0,0.0,0.0,0.0,0.0,0.0,0.0,0.0,0.0,-3.9424,-3.9388,-3.9388,0.0,-3.9388,-3.9388,-3.9403,-4.0038,-4.0666,-4.1294,-4.1294,-4.1324,-4.1422,-4.1309,-4.1324,-4.1482,-4.2081,-4.2306,-4.2381,-4.2925,-4.3155,-4.32,-4.32,-4.3245,-4.329,-4.329,-4.329,-4.329,-4.329,-4.329,-4.3329,-4.3409,-4.3448,-4.3448,-4.3551,-4.4243,-4.4699,-4.3771,-4.3536,-4.3551,-4.3448,-4.3448,-4.3409,-4.3329,-4.329,-4.329,-4.329,-4.329,-4.312,-4.25,-4.1294,-4.0247,-3.9589,-3.9454,-3.9388,-3.9388,-3.9388,-3.9388,-3.9388,-3.9388,-3.9155,-3.8527,-3.7853,-3.7225,-3.6596,-3.5893,-3.5504,-3.5504,-3.5504,-3.5504,-3.5504,-3.5504,-3.5504,-3.5504,-3.5504,-3.5504,0.0,-3.9016,0.0,0.0,0.0,0.0,0.0,0.0,0.0,0.0,0.0,0.0,0.0,0.0,0.0,0.0,0.0,0.0,0.0,0.0,0.0,0.0,0.0,0.0,0.0,0.0,0.0,0.0,0.0,0.0,0.0,0.0,0.0,0.0,0.0,-3.9574,-3.9388,-3.9388,-3.9388,0.0,-3.9388,-3.9388,-3.9388,-3.9574,-3.9993,-4.0606,-4.0606,-4.0905,-4.1339,-4.0831,-4.092,-4.1384,-4.1572,-4.1632,-4.1647,-4.1743,-4.2132,-4.2605,-4.2605,-4.2895,-4.329,-4.329,-4.329,-4.329,-4.329,-4.329,-4.3472,-4.4259,-4.4488,-4.4662,-4.54,-4.5726,-4.5834,-4.5654,-4.5582,-4.5363,-4.4646,-4.4488,-4.4259,-4.3448,-4.329,-4.329,-4.329,-4.329,-4.312,-4.25,-4.1722,-4.0935,-4.0277,-3.9738,-3.9388,-3.9388,-3.9388,-3.9388,-3.9388,-3.9388,-3.9349,-3.92,-3.8556,-3.7883,-3.724,-3.6118,-3.5504,-3.5504,-3.5504,-3.5504,-3.5504,-3.5504,-3.5504,-3.5504,-3.5504,-3.5504,0.0,0.0,0.0,0.0,0.0,0.0,0.0,0.0,0.0,0.0,0.0,0.0,0.0,0.0,0.0,0.0,0.0,0.0,0.0,0.0,0.0,0.0,0.0,0.0,0.0,0.0,0.0,0.0,0.0,0.0,0.0,0.0,0.0,0.0,-3.8766,-3.8781,-3.8467,-3.8766,-3.8766,-3.8452,-3.8452,-3.8616,-3.8931,-3.9275,-3.9604,-3.9933,-3.9933,-4.0127,-4.0412,-4.0068,-4.0127,-4.0472,-4.0786,-4.0905,-4.095,-4.1265,-4.1632,-4.1976,-4.2291,-4.2387,-4.2506,-4.308,-4.3404,-4.3602,-4.3937,-4.4343,-4.4725,-4.4893,-4.4944,-4.4973,-4.5104,-4.549,-4.5925,-4.6265,-4.6247,-4.5941,-4.502,-4.5153,-4.5026,-4.3576,-4.3708,-4.3849,-4.3369,-4.329,-4.2895,-4.1609,-4.1437,-4.1025,-4.0053,-3.9634,-3.9388,-3.9388,-3.9388,-3.9388,-3.9388,-3.9388,-3.9388,-3.9388,-3.8482,-3.7764,-3.7419,-3.6193,-3.5504,-3.5504,-3.5504,-3.5504,-3.5504,-3.5504,-3.5504,-3.5504,-3.5504,-3.5504,0.0,0.0,0.0,0.0,0.0,0.0,0.0,0.0,0.0,0.0,0.0,0.0,0.0,0.0,0.0,0.0,0.0,0.0,0.0,0.0,0.0,0.0,0.0,0.0,0.0,0.0,0.0,0.0,0.0,0.0,0.0,0.0,-3.7404,-3.7404,-3.7943,-3.7958,-3.7419,-3.7943,-3.7943,-3.7404,-3.7404,-3.7689,-3.8242,-3.8811,-3.914,-3.9245,-3.9245,-3.9245,-3.9245,-3.9328,-3.9388,-3.9469,-4.019,-4.0459,-4.0534,-4.1076,-4.1347,-4.149,-4.191,-4.1881,-4.1799,-4.2859,-4.3471,-4.392,-4.4475,-4.5198,-4.5744,-4.5271,-4.5144,-4.505,-4.4622,-4.5064,-4.5801,-4.6413,-4.6404,-4.6111,-4.5421,-4.5869,-4.5925,-4.4151,-4.4358,-4.4479,-4.3542,-4.3386,-4.2793,-4.1116,-4.1334,-4.117,-3.9796,-3.961,-3.9574,-3.9424,-3.9388,-3.9388,-3.9388,-3.9388,-3.9388,-3.9388,-3.8257,-3.7524,-3.7404,-3.6297,-3.5624,-3.5504,-3.5504,-3.5504,-3.5504,-3.5504,-3.5504,-3.5504,-3.5504,-3.5504,0.0,0.0,0.0,0.0,0.0,0.0,0.0,0.0,0.0,0.0,0.0,0.0,0.0,0.0,0.0,0.0,0.0,0.0,0.0,0.0,0.0,0.0,0.0,0.0,0.0,0.0,0.0,0.0,0.0,0.0,0.0,-3.7464,-3.7404,-3.7404,-3.7494,-3.7494,-3.7404,-3.7494,-3.7494,-3.7404,-3.7404,-3.7464,-3.7539,-3.7644,-3.7988,-3.8527,-3.8527,-3.8527,-3.8571,-3.917,-3.9388,-3.9496,-4.0347,-4.0658,-4.0674,-4.0766,-4.1148,-4.1561,-4.0902,-4.1492,-4.2546,-4.273,-4.3329,-4.3981,-4.4077,-4.4195,-4.4451,-4.5163,-4.534,-4.5531,-4.6243,-4.6514,-4.6638,-4.6756,-4.675,-4.6815,-4.7144,-4.7306,-4.7104,-4.6032,-4.5248,-4.4551,-4.3762,-4.367,-4.3402,-4.2742,-4.2734,-4.2228,-4.073,-4.0535,-4.0255,-3.9481,-3.9388,-3.9388,-3.9388,-3.9388,-3.9388,-3.9388,-3.8691,-3.8003,-3.7434,-3.6731,-3.6088,-3.5519,-3.5504,-3.5504,-3.5504,-3.5504,-3.5504,-3.5504,-3.5504,-3.5504,0.0,0.0,0.0,0.0,0.0,0.0,0.0,0.0,0.0,0.0,0.0,0.0,0.0,0.0,0.0,0.0,0.0,0.0,0.0,0.0,0.0,0.0,0.0,0.0,0.0,0.0,0.0,0.0,0.0,0.0,-3.6881,-3.6552,-3.6342,-3.6342,-3.6701,-3.6716,-3.6342,-3.6701,-3.6701,-3.6342,-3.6342,-3.674,-3.7506,-3.714,-3.727,-3.7873,-3.8322,-3.8525,-3.8574,-3.9318,-3.9874,-4.0282,-4.0648,-4.0751,-4.069,-4.069,-4.0892,-4.1148,-4.1143,-4.1647,-4.2435,-4.3173,-4.3788,-4.4269,-4.4675,-4.516,-4.5553,-4.5557,-4.5577,-4.5554,-4.5566,-4.5579,-4.5783,-4.6583,-4.6481,-4.6477,-4.7529,-4.7433,-4.6999,-4.6469,-4.4874,-4.3702,-4.3874,-4.3882,-4.3532,-4.2571,-4.2765,-4.2452,-4.0904,-4.069,-4.0378,-3.9481,-3.9388,-3.9388,-3.9388,-3.9388,-3.926,-3.8871,-3.8212,-3.7554,-3.6911,-3.6282,-3.5804,-3.5504,-3.5504,-3.5504,-3.5504,-3.5504,-3.5504,-3.5504,-3.5504,-3.5504,0.0,0.0,0.0,0.0,0.0,0.0,0.0,0.0,0.0,0.0,0.0,0.0,0.0,0.0,0.0,0.0,0.0,0.0,0.0,0.0,0.0,0.0,0.0,0.0,0.0,0.0,0.0,0.0,0.0,0.0,-3.6207,-3.5774,-3.5504,-3.5504,-3.5983,-3.5998,-3.5504,-3.6182,-3.6265,-3.5782,-3.599,-3.6629,-3.7623,-3.7138,-3.7111,-3.7532,-3.8303,-3.8636,-3.8716,-3.9469,-4.0129,-4.0639,-4.0856,-4.0991,-4.1078,-4.1078,-4.1188,-4.1409,-4.169,-4.202,-4.2493,-4.3492,-4.4102,-4.4547,-4.5064,-4.5688,-4.6126,-4.5585,-4.5415,-4.528,-4.475,-4.4615,-4.4936,-4.6194,-4.5957,-4.5821,-4.731,-4.7192,-4.6683,-4.6284,-4.4698,-4.3551,-4.4069,-4.4104,-4.3734,-4.2793,-4.31,-4.2912,-4.1541,-4.1379,-4.0961,-3.9864,-3.9737,-3.9646,-3.9409,-3.9388,-3.9197,-3.8721,-3.8058,-3.7443,-3.6793,-3.6129,-3.5701,-3.5504,-3.5504,-3.5504,-3.5504,-3.5504,-3.5504,-3.5504,-3.5504,-3.5504,0.0,0.0,0.0,0.0,0.0,0.0,0.0,0.0,0.0,0.0,0.0,0.0,0.0,0.0,0.0,0.0,0.0,0.0,0.0,0.0,0.0,0.0,0.0,0.0,0.0,0.0,0.0,0.0,0.0,0.0,-3.5549,-3.5534,-3.5504,-3.5504,-3.5534,-3.5549,-3.5504,-3.6227,-3.6585,-3.6554,-3.7308,-3.7722,-3.7783,-3.7735,-3.7738,-3.782,-3.8503,-3.879,-3.8838,-3.9508,-3.9811,-3.9935,-4.0697,-4.1448,-4.2134,-4.2134,-4.2548,-4.3047,-4.2269,-4.2522,-4.3246,-4.3298,-4.3898,-4.4609,-4.4643,-4.4688,-4.4716,-4.4682,-4.4666,-4.4649,-4.4615,-4.4615,-4.4801,-4.5568,-4.5179,-4.5072,-4.6532,-4.6819,-4.6531,-4.5623,-4.5369,-4.5059,-4.4386,-4.4271,-4.4348,-4.4444,-4.4474,-4.42,-4.3276,-4.3169,-4.252,-4.0811,-4.0622,-4.0309,-3.9481,-3.9388,-3.943,-3.9511,-3.8899,-3.8237,-3.7558,-3.6909,-3.6228,-3.5504,-3.5504,-3.5504,-3.5504,-3.5504,-3.5504,-3.5504,-3.5504,-3.5504,0.0,0.0,0.0,0.0,0.0,0.0,0.0,0.0,0.0,0.0,0.0,0.0,0.0,0.0,0.0,0.0,0.0,0.0,0.0,0.0,0.0,0.0,0.0,0.0,0.0,0.0,0.0,0.0,0.0,0.0,-3.5504,-3.5504,-3.5504,-3.5504,-3.5943,-3.6461,-3.6981,-3.7235,-3.7368,-3.7368,-3.7661,-3.8064,-3.8497,-3.8497,-3.8789,-3.9295,-3.9534,-3.9347,-3.8933,-3.9682,-4.0287,-4.0718,-4.1036,-4.1233,-4.142,-4.142,-4.1926,-4.2538,-4.2253,-4.303,-4.4121,-4.4121,-4.4355,-4.4615,-4.4615,-4.4615,-4.4615,-4.4615,-4.4615,-4.4615,-4.4615,-4.4615,-4.4682,-4.4925,-4.5145,-4.5314,-4.5393,-4.4955,-4.476,-4.547,-4.4746,-4.4299,-4.5076,-4.5215,-4.5052,-4.466,-4.4993,-4.4807,-4.3462,-4.3306,-4.2614,-4.0878,-4.069,-4.0343,-3.9481,-3.992,-4.0086,-3.9696,-3.9501,-3.8905,-3.7716,-3.6971,-3.6477,-3.6228,-3.5718,-3.5504,-3.5504,-3.5504,-3.5504,-3.5504,-3.5504,-3.5504,0.0,0.0,0.0,0.0,0.0,0.0,0.0,0.0,0.0,0.0,0.0,0.0,0.0,0.0,0.0,0.0,0.0,0.0,0.0,0.0,0.0,0.0,0.0,0.0,0.0,0.0,0.0,0.0,0.0,0.0,-3.5504,-3.5504,-3.5504,-3.5504,-3.5975,-3.66,-3.7397,-3.7661,-3.7921,-3.8161,-3.843,-3.8816,-3.9315,-3.9315,-3.9584,-4.0096,-4.0096,-3.9808,-3.9342,-3.9876,-4.04,-4.0832,-4.0832,-4.0922,-4.1061,-4.1061,-4.172,-4.2563,-4.2314,-4.3283,-4.4564,-4.4265,-4.4395,-4.4615,-4.4615,-4.4615,-4.4615,-4.4615,-4.4615,-4.4615,-4.4615,-4.4801,-4.4891,-4.4666,-4.5162,-4.55,-4.4767,-4.4167,-4.4052,-4.5127,-4.4473,-4.4069,-4.5144,-4.5331,-4.5162,-4.4682,-4.501,-4.4956,-4.3881,-4.3756,-4.3199,-4.1739,-4.156,-4.1213,-4.0359,-4.0792,-4.0981,-4.0563,-4.0146,-3.9475,-3.8532,-3.7551,-3.6994,-3.6994,-3.6259,-3.5863,-3.5863,-3.5619,-3.5504,-3.5504,-3.5504,-3.5504,0.0,0.0,0.0,0.0,0.0,0.0,0.0,0.0,0.0,0.0,0.0,0.0,0.0,0.0,0.0,0.0,0.0,0.0,0.0,0.0,0.0,0.0,0.0,0.0,0.0,0.0,0.0,0.0,0.0,-3.5569,-3.5569,-3.5569,-3.5602,-3.5587,-3.5587,-3.5958,-3.6691,-3.7485,-3.8234,-3.8935,-3.9731,-4.0096,-4.0096,-4.0096,-4.0096,-4.0096,-4.0096,-4.0096,-4.0096,-4.0096,-4.0096,-4.0096,-4.0096,-4.0527,-4.117,-4.1187,-4.2134,-4.3257,-4.2574,-4.3345,-4.4479,-4.369,-4.3961,-4.4615,-4.4615,-4.4615,-4.4615,-4.4615,-4.4615,-4.4615,-4.4615,-4.5128,-4.5483,-4.4784,-4.5162,-4.55,-4.4767,-4.4632,-4.4632,-4.4615,-4.4615,-4.4615,-4.4615,-4.4632,-4.4632,-4.4615,-4.4632,-4.4632,-4.4615,-4.4615,-4.427,-4.3396,-4.3306,-4.2956,-4.2062,-4.2029,-4.2088,-4.2209,-4.0834,-4.0062,-4.0155,-3.8699,-3.7883,-3.7883,-3.707,-3.6646,-3.6676,-3.5894,-3.5504,-3.5504,-3.5504,-3.5504,-3.56,0.0,0.0,0.0,0.0,0.0,0.0,0.0,0.0,0.0,0.0,0.0,0.0,0.0,0.0,0.0,0.0,0.0,0.0,0.0,0.0,0.0,0.0,0.0,0.0,0.0,0.0,0.0,-3.7145,-3.7145,-3.7145,-3.7145,-3.7397,-3.7946,-3.7975,-3.8358,-3.9113,-3.9358,-3.9558,-3.9782,-3.9978,-4.0096,-4.0096,-4.0096,-4.0096,-4.0096,-4.0096,-4.0096,-4.0096,-4.0096,-4.0096,-4.0096,-4.0096,-4.0231,-4.0485,-4.1001,-4.1796,-4.2642,-4.298,-4.3758,-4.4564,-4.4333,-4.4429,-4.4615,-4.4615,-4.4615,-4.4615,-4.4615,-4.4615,-4.4615,-4.4615,-4.4767,-4.4869,-4.4649,-4.5162,-4.55,-4.4767,-4.501,-4.5229,-4.4716,-4.4615,-4.4615,-4.4615,-4.5026,-4.5213,-4.4682,-4.5043,-4.5196,-4.4682,-4.4615,-4.427,-4.3396,-4.3306,-4.2956,-4.2062,-4.2583,-4.2965,-4.298,-4.2638,-4.2226,-4.1708,-4.025,-3.9465,-3.9465,-3.8149,-3.7732,-3.8241,-3.6415,-3.5504,-3.5504,-3.5504,-3.5504,0.0,0.0,0.0,0.0,0.0,0.0,0.0,0.0,0.0,0.0,0.0,0.0,0.0,0.0,0.0,0.0,0.0,0.0,0.0,0.0,0.0,0.0,0.0,0.0,0.0,0.0,0.0,0.0,-3.7793,-3.7793,-3.7793,-3.7793,-3.8007,-3.8414,-3.8442,-3.8816,-3.9584,-3.961,-3.9782,-4.0096,-4.0096,-4.0096,-4.0096,-4.0096,-4.0096,-4.0096,-4.0096,-4.0096,-4.0096,-4.0096,-4.0096,-4.0096,-4.0096,-4.0096,-4.0146,-4.0578,-4.1204,-4.1897,-4.2337,-4.32,-4.4096,-4.4096,-4.4344,-4.4615,-4.4615,-4.4615,-4.4615,-4.4615,-4.4615,-4.4615,-4.4615,-4.4615,-4.4615,-4.4615,-4.4925,-4.5111,-4.4699,-4.4953,-4.5111,-4.4682,-4.4615,-4.4615,-4.4615,-4.4942,-4.5094,-4.4666,-4.4987,-4.5077,-4.4666,-4.4615,-4.4412,-4.3919,-4.3844,-4.3651,-4.3122,-4.3545,-4.3844,-4.3844,-4.3287,-4.2897,-4.2767,-4.1044,-4.0238,-4.0554,-3.9056,-3.8145,-3.793,-3.66,-3.5814,-3.5504,-3.5504,-3.5668,0.0,0.0,0.0,0.0,0.0,0.0,-3.8582,-3.8379,-3.8075,0.0,0.0,0.0,0.0,0.0,0.0,0.0,0.0,0.0,0.0,0.0,0.0,0.0,0.0,0.0,0.0,0.0,-3.8064,-3.8064,-3.8064,-3.8064,-3.8064,-3.8064,-3.8064,-3.8064,-3.8064,-3.8374,-3.9032,-3.9016,-3.9394,-4.0096,-4.0096,-4.0096,-4.0096,-4.0096,-4.0096,-4.0096,-4.0096,-4.0096,-4.0096,-4.0096,-4.0096,-4.0096,-4.0096,-4.0096,-4.0113,-4.0197,-4.0629,-4.1221,-4.1288,-4.2185,-4.3274,-4.3274,-4.3758,-4.4378,-4.4445,-4.4429,-4.4378,-4.4445,-4.4547,-4.4615,-4.4615,-4.4615,-4.4615,-4.4615,-4.4666,-4.4699,-4.4632,-4.4666,-4.4699,-4.4632,-4.4615,-4.4615,-4.4615,-4.4615,-4.4615,-4.4615,-4.4615,-4.4615,-4.4615,-4.4615,-4.4615,-4.4615,-4.4615,-4.4615,-4.4615,-4.4615,-4.4615,-4.4615,-4.3297,-4.2856,-4.3527,-4.1482,-4.0644,-4.1296,-3.9731,-3.823,-3.6873,-3.6783,-3.6337,-3.5619,-3.5701,-3.6101,0.0,0.0,0.0,0.0,0.0,0.0,-3.8058,-3.8007,-3.777,0.0,0.0,0.0,0.0,0.0,0.0,0.0,0.0,0.0,0.0,0.0,0.0,0.0,0.0,0.0,0.0,0.0,-3.9653,-3.9653,-3.9653,-3.9653,-3.9653,-3.9653,-3.9653,-3.9653,-3.9653,-3.9731,-3.9859,-3.9876,-3.9952,-4.0096,-4.0096,-4.0096,-4.0096,-4.0096,-4.0096,-4.0096,-4.0096,-4.0096,-4.0096,-4.0096,-4.0096,-4.0096,-4.0096,-4.0096,-4.018,-4.0764,-4.1085,-4.1288,-4.188,-4.2269,-4.2506,-4.2506,-4.2608,-4.2844,-4.3453,-4.3217,-4.2861,-4.347,-4.4096,-4.4615,-4.4615,-4.4615,-4.4615,-4.4615,-4.5043,-4.5314,-4.4733,-4.506,-4.5314,-4.4733,-4.4615,-4.4615,-4.4615,-4.4615,-4.4615,-4.4615,-4.4615,-4.4615,-4.4615,-4.4615,-4.4615,-4.4615,-4.4615,-4.4615,-4.4615,-4.4615,-4.4615,-4.4615,-4.4305,-4.4221,-4.435,-4.277,-4.1933,-4.2083,-3.998,-3.8756,-3.8453,-3.7847,-3.716,-3.6384,-3.7055,-3.7442,0.0,0.0,0.0,-3.9469,0.0,0.0,0.0,-3.7905,0.0,0.0,0.0,0.0,0.0,0.0,0.0,0.0,0.0,0.0,0.0,0.0,0.0,0.0,0.0,0.0,0.0,0.0,-4.0096,-4.0096,-4.0096,-4.0096,-4.0096,-4.0096,-4.0096,-4.0096,-4.0096,-4.0096,-4.0096,-4.0096,-4.0096,-4.0096,-4.0096,-4.0096,-4.0096,-4.0096,-4.0096,-4.0096,-4.0096,-4.0096,-4.0096,-4.0096,-4.0096,-4.0096,-4.0096,-4.0096,-4.0146,-4.0536,-4.0646,-4.0747,-4.1491,-4.1745,-4.1813,-4.2168,-4.2286,-4.2354,-4.2743,-4.2591,-4.2439,-4.3172,-4.3707,-4.4079,-4.4513,-4.4615,-4.4615,-4.4615,-4.4874,-4.5043,-4.4682,-4.4902,-4.5026,-4.4682,-4.4615,-4.4615,-4.4615,-4.4615,-4.4615,-4.4615,-4.4615,-4.4615,-4.4615,-4.4615,-4.4615,-4.4615,-4.4615,-4.4615,-4.4615,-4.4615,-4.4615,-4.4615,-4.4615,-4.4615,-4.4615,-4.347,-4.2506,-4.1762,-4.0258,-3.9315,-3.8908,-3.8924,-3.833,-3.7219,-3.7602,-3.7793,0.0,0.0,0.0,0.0,0.0,-3.9005,0.0,0.0,0.0,0.0,0.0,0.0,0.0,0.0,0.0,0.0,0.0,0.0,0.0,0.0,0.0,0.0,0.0,0.0,0.0,0.0,-3.996,-4.0096,-3.9977,-3.996,-4.0096,-4.0096,-4.0096,-4.0096,-4.0096,-4.0096,-4.0096,-4.0096,-4.0096,-4.0096,-4.0096,-4.0096,-4.0096,-4.0096,-4.0096,-4.0096,-4.0096,-4.0096,-4.0096,-4.0096,-4.0096,-4.0096,-4.0096,-4.0096,-4.0096,-4.0096,-4.0096,-4.0197,-4.0781,-4.0984,-4.1085,-4.1677,-4.1965,-4.2049,-4.1914,-4.2066,-4.2388,-4.2861,-4.3071,-4.3352,-4.3978,-4.4276,-4.4378,-4.4378,-4.4496,-4.4615,-4.4615,-4.4615,-4.4615,-4.4615,-4.4615,-4.4615,-4.4615,-4.4615,-4.4615,-4.4615,-4.4615,-4.4615,-4.4615,-4.4615,-4.4615,-4.4615,-4.4615,-4.4615,-4.4615,-4.4615,-4.4615,-4.4615,-4.4615,-4.4615,-4.4615,-4.3826,-4.2699,-4.1238,-4.0492,-3.9787,-3.9139,-3.9636,-3.9226,-3.8007,-3.8177,-3.8234,0.0,0.0,0.0,0.0,-4.0045,0.0,0.0,0.0,0.0,0.0,0.0,0.0,0.0,0.0,0.0,0.0,0.0,0.0,0.0,0.0,0.0,0.0,0.0,0.0,0.0,0.0,0.0,-4.0045,-3.9503,-3.9419,-4.0079,-4.0096,-4.0096,-4.0096,-4.0096,-4.0096,-4.0096,-4.0096,-4.0096,-4.0096,-4.0096,-4.0096,-4.0096,-4.0096,-4.0096,-4.0096,-4.0096,-4.0096,-4.0096,-4.0096,-4.0096,-4.0096,-4.0096,-4.0096,-4.0096,-4.0096,-4.0096,-4.0113,-4.0197,-4.0231,-4.0248,-4.0316,-4.0781,-4.1204,-4.0553,-4.128,-4.2168,-4.161,-4.1914,-4.2439,-4.2523,-4.3047,-4.3527,-4.3527,-4.4079,-4.4615,-4.4615,-4.4615,-4.4615,-4.4615,-4.4615,-4.4615,-4.4615,-4.4615,-4.4615,-4.4615,-4.4615,-4.4615,-4.4615,-4.4615,-4.4615,-4.4615,-4.4615,-4.4615,-4.4615,-4.4615,-4.4615,-4.4615,-4.4615,-4.4615,-4.4615,-4.3826,-4.2699,-4.1238,-4.0471,-4.0051,-3.9952,-3.9342,-3.8951,-3.8799,-3.9506,-3.985,0.0,0.0,0.0,0.0,0.0,0.0,0.0,0.0,-3.8785,0.0,0.0,0.0,0.0,0.0,0.0,0.0,0.0,0.0,0.0,0.0,0.0,0.0,0.0,0.0,0.0,0.0,0.0,0.0,0.0,-3.9123,-3.9453,-3.9876,-4.0096,-4.0096,-4.0096,-4.0096,-4.0096,-4.0096,-4.0096,-4.0096,-4.0096,-4.0096,-4.0096,-4.0096,-4.0096,-4.0096,-4.0096,-4.0096,-4.0096,-4.0096,-4.0096,-4.0096,-4.0096,-4.0096,-4.0096,-4.0096,-4.0096,-4.0096,-4.0096,-4.0096,-4.0096,-4.0096,-4.0316,-4.0493,-4.0197,-4.0536,-4.106,-4.117,-4.1424,-4.1762,-4.2185,-4.2861,-4.3392,-4.3392,-4.4012,-4.4615,-4.4615,-4.4615,-4.4615,-4.4615,-4.4615,-4.4615,-4.4615,-4.4615,-4.4615,-4.4615,-4.4615,-4.4615,-4.4615,-4.4615,-4.4615,-4.4615,-4.4615,-4.4615,-4.4615,-4.4615,-4.4615,-4.4615,-4.4615,-4.4615,-4.4615,-4.3826,-4.3105,-4.2506,-4.1749,-4.1177,-4.073,-4.0411,-4.0003,-3.961,-3.9952,-3.9833,-4.0096,0.0,0.0,0.0,0.0,0.0,0.0,0.0,0.0,0.0,0.0,0.0,0.0,0.0,0.0,0.0,0.0,0.0,0.0,0.0,0.0,0.0,0.0,0.0,0.0,0.0,0.0,0.0,-3.821,0.0,-3.8684,-3.9394,-3.9808,-3.9808,-3.9994,-4.0096,-4.0096,-4.0096,-4.0096,-4.0096,-4.0096,-4.0096,-4.0096,-4.0096,-4.0096,-4.0096,-4.0096,-4.0096,-4.0096,-4.0096,-4.0096,-4.0096,-4.0096,-4.0096,-4.0096,-4.0096,-4.0096,-4.0096,-4.0096,-4.0096,-4.0096,-4.0096,-4.0096,-4.0096,-4.0096,-4.0096,-4.0214,-4.0747,-4.0899,-4.1068,-4.1813,-4.2557,-4.3166,-4.3341,-4.4012,-4.4615,-4.4615,-4.4615,-4.4615,-4.4615,-4.4615,-4.4615,-4.4615,-4.4615,-4.4615,-4.4615,-4.4615,-4.4615,-4.4615,-4.4615,-4.4615,-4.4615,-4.4615,-4.4615,-4.4615,-4.4615,-4.4615,-4.4615,-4.4615,-4.4615,-4.4615,-4.4045,-4.3639,-4.3392,-4.2878,-4.2236,-4.1508,-4.1508,-4.1119,-4.0417,-4.0197,-3.9782,0.0,0.0,0.0,-4.0096,0.0,0.0,0.0,0.0,-4.0062,0.0,0.0,0.0,0.0,0.0,0.0,-3.8159,0.0,0.0,0.0,0.0,0.0,0.0,0.0,0.0,0.0,0.0,0.0,-3.7855,-3.7246,0.0,-3.7905,-3.8633,-3.9039,-3.9039,-3.974,-4.0096,-4.0096,-4.0096,-4.0096,-4.0096,-4.0096,-4.0096,-4.0096,-4.0096,-4.0096,-4.0096,-4.0096,-4.0096,-4.0096,-4.0096,-4.0096,-4.0096,-4.0096,-4.0096,-4.0096,-4.0096,-4.0096,-4.0096,-4.0096,-4.0096,-4.0096,-4.0096,-4.0096,-4.0096,-4.0096,-4.0096,-4.0096,-4.013,-4.0146,-4.0316,-4.1035,-4.1779,-4.2523,-4.325,-4.4012,-4.4615,-4.4615,-4.4615,-4.4615,-4.4615,-4.4615,-4.4615,-4.4615,-4.4615,-4.4615,-4.4615,-4.4615,-4.4615,-4.4615,-4.4615,-4.4615,-4.4615,-4.4615,-4.4615,-4.4615,-4.4615,-4.4615,-4.4615,-4.4615,-4.4615,-4.4615,-4.4581,-4.4198,-4.3409,-4.3375,-4.3014,-4.2252,-4.2252,-4.188,-4.1153,-4.0434,-4.007,0.0,0.0,-4.0096,-4.0096,0.0,0.0,0.0,0.0,0.0,0.0,0.0,0.0,0.0,0.0,-3.9943,-3.9453,-3.8531,0.0,0.0,0.0,0.0,0.0,0.0,0.0,0.0,0.0,0.0,-3.636,-3.6637,-3.6914,0.0,-3.8328,-3.8988,-3.8988,-3.9723,-4.0096,-4.0096,-4.0096,-4.0096,-4.0096,-4.0096,-4.0096,-4.0096,-4.0096,-4.0096,-4.0096,-4.0096,-4.0096,-4.0096,-4.0096,-4.0096,-4.0096,-4.0096,-4.0096,-4.0096,-4.0096,-4.0096,-4.0096,-4.0096,-4.0096,-4.0096,-4.0096,-4.0096,-4.0096,-4.0096,-4.0096,-4.0096,-4.0096,-4.0096,-4.0163,-4.0417,-4.1373,-4.2354,-4.2608,-4.3656,-4.4615,-4.4615,-4.4615,-4.4615,-4.4615,-4.4615,-4.4615,-4.4615,-4.4615,-4.4615,-4.4615,-4.4615,-4.4615,-4.4615,-4.4615,-4.4615,-4.4615,-4.4615,-4.4615,-4.4615,-4.4615,-4.4615,-4.4615,-4.4615,-4.4615,-4.4615,-4.4615,-4.4479,-4.4198,-4.4181,-4.3809,-4.3031,-4.3031,-4.2658,-4.1914,-4.117,-4.0561,-4.0096,-4.0096,0.0,-4.0096,-4.0096,0.0,-4.0096,0.0,0.0,0.0,0.0,0.0,0.0,0.0,0.0,-3.9394,-3.8514,-3.7719,0.0,-3.6225,0.0,0.0,0.0,0.0,0.0,0.0,-3.56,-3.56,-3.6079,-3.6366,0.0,0.0,-3.8616,-3.8616,-3.9588,-4.0096,-4.0096,-4.0096,-4.0096,-4.0096,-4.0096,-4.0096,-4.0096,-4.0096,-4.0096,-4.0096,-4.0096,-4.0096,-4.0096,-4.0096,-4.0096,-4.0096,-4.0096,-4.0096,-4.0096,-4.0096,-4.0096,-4.0096,-4.0096,-4.0096,-4.0096,-4.0096,-4.0096,-4.0096,-4.0096,-4.0096,-4.0096,-4.0096,-4.0096,-4.0163,-4.0409,-4.1373,-4.2354,-4.2625,-4.3656,-4.4615,-4.4615,-4.4615,-4.4615,-4.4615,-4.4615,-4.4615,-4.4615,-4.4615,-4.4615,-4.4615,-4.4615,-4.4615,-4.4615,-4.4615,-4.4615,-4.4615,-4.4615,-4.4615,-4.4615,-4.4615,-4.4615,-4.4615,-4.4615,-4.4615,-4.4615,-4.4615,-4.4733,-4.4976,-4.475,-4.4451,-4.4231,-4.3961,-4.3301,-4.2286,-4.2083,-4.1457]},{"header":{"parameterUnit":"m.s-1","parameterCategory":1,"la1":30.6,"la2":29.2853,"lo1":-89.7004,"lo2":-87.6739,"dy":0.0162,"dx":0.0183,"nx":112,"ny":82,"refTime":"2023-07-31T00:00:00:Z","depth":0,"parameterNumber":3,"parameterNumberName":"V-component_of_WINDS"},"data":[0.0,0.0,0.0,0.0,0.0,0.0,0.0,0.0,0.0,0.0,0.0,0.0,0.0,0.0,0.0,0.0,0.0,0.0,0.0,0.0,0.0,0.0,0.0,0.0,0.0,0.0,0.0,0.0,0.0,0.0,0.0,0.0,0.0,0.0,0.0,0.0,0.0,0.0,0.0,0.0,0.0,0.0,0.0,0.0,0.0,0.0,0.0,0.0,0.0,0.0,0.0,0.0,0.0,0.0,0.0,0.0,0.0,0.0,0.0,0.0,0.0,0.0,0.0,0.0,0.0,0.0,0.0,0.0,0.0,0.0,0.0,0.0,0.0,0.0,0.0,0.0,0.0,0.0,0.0,0.0,0.0,0.0,0.0,0.0,0.0,0.0,0.0,0.0,0.0,0.0,0.0,-2.043,-2.2078,-2.3108,-2.3108,-2.3108,-2.2631,-2.1556,0.0,0.0,0.0,0.0,0.0,0.0,0.0,0.0,0.0,0.0,0.0,0.0,0.0,0.0,0.0,0.0,0.0,0.0,0.0,0.0,0.0,0.0,0.0,0.0,0.0,0.0,0.0,0.0,0.0,0.0,0.0,0.0,0.0,0.0,0.0,0.0,0.0,0.0,0.0,0.0,0.0,0.0,0.0,0.0,0.0,0.0,0.0,0.0,0.0,0.0,0.0,0.0,0.0,0.0,0.0,0.0,0.0,0.0,0.0,0.0,0.0,0.0,0.0,0.0,0.0,0.0,0.0,0.0,0.0,0.0,0.0,0.0,0.0,0.0,0.0,0.0,0.0,0.0,0.0,0.0,0.0,0.0,0.0,0.0,0.0,0.0,0.0,0.0,0.0,0.0,0.0,0.0,0.0,0.0,0.0,0.0,0.0,0.0,0.0,0.0,0.0,0.0,0.0,0.0,-1.9375,-2.1132,-2.2385,-2.3108,-2.3108,-2.3108,-2.2631,-2.1556,0.0,0.0,0.0,0.0,0.0,0.0,0.0,0.0,0.0,0.0,0.0,0.0,0.0,0.0,0.0,0.0,0.0,0.0,0.0,0.0,0.0,0.0,0.0,0.0,0.0,0.0,0.0,0.0,0.0,0.0,0.0,0.0,0.0,0.0,0.0,0.0,0.0,0.0,0.0,0.0,0.0,0.0,0.0,0.0,0.0,0.0,0.0,0.0,0.0,0.0,0.0,0.0,0.0,0.0,0.0,0.0,0.0,0.0,0.0,0.0,0.0,0.0,0.0,0.0,0.0,0.0,0.0,0.0,0.0,0.0,0.0,0.0,0.0,0.0,0.0,0.0,0.0,0.0,0.0,0.0,0.0,0.0,0.0,0.0,0.0,0.0,0.0,0.0,0.0,0.0,0.0,0.0,0.0,0.0,0.0,0.0,0.0,0.0,0.0,0.0,0.0,0.0,0.0,-2.0057,-2.0659,-2.1816,-2.2631,-2.3108,-2.3108,-2.3108,-2.2757,-2.1983,-2.1656,0.0,0.0,0.0,0.0,0.0,0.0,0.0,0.0,0.0,0.0,0.0,0.0,0.0,0.0,0.0,0.0,0.0,0.0,0.0,0.0,0.0,0.0,0.0,0.0,0.0,0.0,0.0,0.0,0.0,0.0,0.0,0.0,0.0,0.0,0.0,0.0,0.0,0.0,0.0,0.0,0.0,0.0,0.0,0.0,0.0,0.0,0.0,0.0,0.0,0.0,0.0,0.0,0.0,0.0,0.0,0.0,0.0,0.0,0.0,0.0,0.0,0.0,0.0,0.0,0.0,0.0,0.0,0.0,0.0,0.0,0.0,0.0,0.0,0.0,0.0,0.0,0.0,0.0,0.0,0.0,0.0,0.0,0.0,0.0,0.0,0.0,0.0,0.0,0.0,0.0,0.0,0.0,0.0,0.0,0.0,0.0,0.0,0.0,0.0,0.0,0.0,0.0,-2.1282,-2.1845,-2.2272,-2.2782,-2.3108,-2.3108,-2.3108,-2.2869,-2.2347,-2.192,0.0,0.0,0.0,0.0,0.0,0.0,0.0,0.0,0.0,0.0,0.0,0.0,0.0,0.0,0.0,0.0,0.0,0.0,0.0,0.0,0.0,0.0,0.0,0.0,0.0,0.0,0.0,0.0,0.0,0.0,0.0,0.0,0.0,0.0,0.0,0.0,0.0,0.0,0.0,0.0,0.0,0.0,0.0,0.0,0.0,0.0,0.0,0.0,0.0,0.0,0.0,0.0,0.0,0.0,0.0,0.0,0.0,0.0,0.0,0.0,0.0,0.0,0.0,0.0,0.0,0.0,0.0,0.0,0.0,0.0,0.0,0.0,0.0,0.0,0.0,0.0,0.0,0.0,0.0,0.0,0.0,0.0,0.0,0.0,0.0,0.0,0.0,0.0,0.0,0.0,0.0,0.0,0.0,0.0,0.0,0.0,0.0,0.0,0.0,0.0,0.0,0.0,-2.1594,-2.2272,-2.2309,-2.2782,-2.3108,-2.3108,-2.3108,-2.2869,-2.2347,-2.2243,0.0,0.0,0.0,0.0,0.0,0.0,0.0,0.0,0.0,0.0,0.0,0.0,0.0,0.0,0.0,0.0,0.0,0.0,0.0,0.0,0.0,0.0,0.0,0.0,0.0,0.0,0.0,0.0,0.0,0.0,0.0,0.0,0.0,0.0,0.0,0.0,0.0,0.0,0.0,0.0,0.0,0.0,0.0,0.0,0.0,0.0,0.0,0.0,0.0,0.0,0.0,0.0,0.0,0.0,0.0,0.0,0.0,0.0,0.0,0.0,0.0,0.0,0.0,0.0,0.0,0.0,0.0,0.0,0.0,0.0,0.0,0.0,0.0,0.0,0.0,0.0,0.0,0.0,0.0,0.0,0.0,0.0,0.0,0.0,0.0,0.0,0.0,0.0,0.0,0.0,0.0,0.0,0.0,0.0,0.0,0.0,0.0,0.0,0.0,0.0,0.0,0.0,-2.1845,-2.2447,0.0,-2.2982,-2.3108,-2.3108,-2.3108,-2.3217,-2.3528,0.0,0.0,0.0,0.0,0.0,0.0,0.0,0.0,0.0,0.0,0.0,0.0,0.0,0.0,0.0,0.0,0.0,0.0,0.0,0.0,0.0,0.0,0.0,0.0,0.0,0.0,0.0,0.0,0.0,0.0,0.0,0.0,0.0,0.0,0.0,0.0,0.0,0.0,0.0,0.0,0.0,0.0,0.0,0.0,0.0,0.0,0.0,0.0,0.0,0.0,0.0,0.0,0.0,0.0,0.0,0.0,0.0,0.0,0.0,0.0,0.0,0.0,0.0,0.0,0.0,0.0,0.0,0.0,0.0,0.0,0.0,0.0,0.0,0.0,0.0,0.0,0.0,0.0,0.0,0.0,0.0,0.0,0.0,0.0,0.0,0.0,0.0,0.0,0.0,0.0,0.0,0.0,0.0,0.0,0.0,0.0,0.0,0.0,0.0,0.0,0.0,0.0,-2.1443,-2.2121,-2.2681,0.0,-2.3335,-2.3484,-2.3484,-2.3484,-2.3826,-2.4595,0.0,0.0,0.0,0.0,0.0,0.0,0.0,0.0,0.0,0.0,0.0,0.0,0.0,0.0,0.0,0.0,0.0,0.0,0.0,0.0,0.0,0.0,0.0,0.0,0.0,0.0,0.0,0.0,0.0,0.0,0.0,0.0,0.0,0.0,0.0,0.0,0.0,0.0,0.0,0.0,0.0,0.0,0.0,0.0,0.0,0.0,0.0,0.0,0.0,0.0,0.0,0.0,0.0,0.0,0.0,0.0,0.0,0.0,0.0,0.0,0.0,0.0,0.0,0.0,0.0,0.0,0.0,0.0,0.0,0.0,0.0,0.0,0.0,0.0,0.0,0.0,0.0,0.0,0.0,0.0,0.0,0.0,0.0,0.0,0.0,0.0,0.0,0.0,0.0,0.0,0.0,0.0,0.0,0.0,0.0,0.0,0.0,0.0,0.0,0.0,0.0,0.0,-2.1493,-2.2431,-2.3108,-2.3108,-2.3839,-2.4292,-2.4321,-2.4321,-2.4624,0.0,0.0,0.0,0.0,0.0,0.0,0.0,0.0,0.0,0.0,0.0,0.0,0.0,0.0,0.0,0.0,0.0,0.0,0.0,0.0,0.0,0.0,0.0,0.0,0.0,0.0,0.0,0.0,0.0,0.0,0.0,0.0,0.0,0.0,0.0,0.0,0.0,0.0,0.0,0.0,0.0,0.0,0.0,0.0,0.0,0.0,0.0,0.0,0.0,0.0,0.0,0.0,0.0,0.0,0.0,0.0,0.0,0.0,0.0,0.0,0.0,0.0,0.0,0.0,0.0,0.0,0.0,0.0,0.0,0.0,0.0,0.0,0.0,0.0,0.0,0.0,0.0,0.0,0.0,0.0,0.0,0.0,0.0,0.0,0.0,0.0,0.0,0.0,0.0,0.0,0.0,0.0,0.0,0.0,0.0,0.0,0.0,0.0,0.0,0.0,0.0,0.0,0.0,-2.202,-2.2656,-2.3305,-2.3884,-2.4147,-2.4509,-2.5035,-2.5063,-2.5398,-2.6122,0.0,0.0,0.0,0.0,0.0,0.0,0.0,0.0,0.0,0.0,0.0,0.0,0.0,0.0,0.0,0.0,0.0,0.0,0.0,0.0,0.0,0.0,0.0,0.0,0.0,0.0,0.0,0.0,0.0,0.0,0.0,0.0,0.0,0.0,0.0,0.0,0.0,0.0,0.0,0.0,0.0,0.0,0.0,0.0,0.0,0.0,0.0,0.0,0.0,0.0,0.0,0.0,0.0,0.0,0.0,0.0,0.0,0.0,0.0,0.0,0.0,0.0,0.0,0.0,0.0,0.0,0.0,0.0,0.0,0.0,0.0,0.0,0.0,0.0,0.0,0.0,0.0,0.0,0.0,0.0,0.0,0.0,0.0,0.0,0.0,0.0,0.0,0.0,0.0,0.0,0.0,0.0,0.0,0.0,0.0,0.0,0.0,0.0,0.0,0.0,0.0,0.0,-2.2677,-2.3244,-2.3884,-2.4652,-2.5007,-2.537,-2.5783,-2.5837,-2.6149,-2.6878,0.0,0.0,0.0,0.0,0.0,0.0,0.0,0.0,0.0,0.0,0.0,0.0,0.0,0.0,0.0,0.0,0.0,0.0,0.0,0.0,0.0,0.0,0.0,0.0,0.0,0.0,0.0,0.0,0.0,0.0,0.0,0.0,0.0,0.0,0.0,0.0,0.0,0.0,0.0,0.0,0.0,0.0,0.0,0.0,0.0,0.0,0.0,0.0,0.0,0.0,0.0,0.0,0.0,0.0,0.0,0.0,0.0,0.0,0.0,0.0,0.0,0.0,0.0,0.0,0.0,0.0,0.0,0.0,0.0,0.0,0.0,0.0,0.0,0.0,0.0,0.0,0.0,0.0,0.0,0.0,0.0,0.0,0.0,0.0,0.0,0.0,0.0,0.0,0.0,0.0,0.0,0.0,0.0,0.0,0.0,0.0,0.0,0.0,0.0,0.0,0.0,0.0,-2.3489,-2.405,-2.4681,-2.5425,-2.6095,-2.6537,-2.659,-2.659,-2.6878,-2.7575,0.0,0.0,0.0,0.0,0.0,0.0,0.0,0.0,0.0,0.0,0.0,0.0,0.0,0.0,0.0,0.0,0.0,0.0,0.0,0.0,0.0,0.0,0.0,0.0,0.0,0.0,0.0,0.0,0.0,0.0,0.0,0.0,0.0,0.0,0.0,0.0,0.0,0.0,0.0,0.0,0.0,0.0,0.0,0.0,0.0,0.0,0.0,0.0,0.0,0.0,0.0,0.0,0.0,0.0,0.0,0.0,0.0,0.0,0.0,0.0,-2.4687,0.0,0.0,0.0,0.0,0.0,0.0,0.0,0.0,0.0,0.0,0.0,0.0,0.0,0.0,0.0,0.0,0.0,0.0,0.0,0.0,0.0,0.0,0.0,0.0,0.0,0.0,0.0,0.0,0.0,0.0,0.0,0.0,0.0,0.0,0.0,0.0,0.0,0.0,0.0,0.0,0.0,-2.4887,-2.5093,-2.5453,-2.6203,-2.6404,-2.6747,-2.7331,-2.7357,-2.7433,-2.76,0.0,0.0,0.0,0.0,0.0,0.0,0.0,0.0,0.0,0.0,0.0,0.0,0.0,0.0,0.0,0.0,0.0,0.0,0.0,0.0,0.0,0.0,0.0,0.0,0.0,0.0,0.0,0.0,0.0,0.0,0.0,0.0,0.0,0.0,0.0,0.0,0.0,0.0,0.0,0.0,0.0,0.0,0.0,0.0,0.0,0.0,0.0,0.0,0.0,0.0,0.0,0.0,0.0,0.0,0.0,0.0,0.0,0.0,0.0,0.0,0.0,-2.585,0.0,0.0,0.0,0.0,0.0,0.0,0.0,0.0,0.0,0.0,0.0,0.0,0.0,0.0,0.0,0.0,0.0,0.0,0.0,0.0,0.0,0.0,0.0,0.0,0.0,0.0,0.0,0.0,0.0,0.0,0.0,0.0,0.0,0.0,0.0,0.0,0.0,0.0,0.0,0.0,-2.6285,-2.6143,-2.6317,-2.741,-2.7213,-2.7163,-2.7575,-2.76,-2.76,-2.76,-2.76,0.0,0.0,0.0,0.0,0.0,0.0,0.0,0.0,0.0,0.0,0.0,0.0,0.0,0.0,0.0,0.0,0.0,0.0,0.0,0.0,0.0,0.0,0.0,0.0,0.0,0.0,0.0,0.0,0.0,0.0,0.0,0.0,0.0,0.0,0.0,0.0,0.0,0.0,0.0,0.0,0.0,0.0,0.0,0.0,0.0,0.0,0.0,0.0,0.0,0.0,0.0,0.0,0.0,0.0,-2.8499,-2.8398,-2.8499,-2.8486,-2.8373,-2.8021,-2.7467,-2.6813,0.0,0.0,0.0,0.0,0.0,0.0,0.0,0.0,0.0,0.0,0.0,0.0,0.0,0.0,0.0,0.0,0.0,0.0,0.0,0.0,0.0,0.0,0.0,0.0,0.0,-2.5109,-2.5109,0.0,0.0,0.0,0.0,0.0,0.0,0.0,0.0,0.0,0.0,0.0,0.0,-2.7519,-2.7308,-2.7486,-2.8659,-2.8289,-2.7899,-2.7779,-2.7779,-2.772,-2.76,-2.76,-2.76,0.0,0.0,0.0,0.0,0.0,0.0,0.0,0.0,0.0,0.0,0.0,0.0,0.0,0.0,0.0,0.0,0.0,0.0,0.0,0.0,0.0,0.0,0.0,0.0,0.0,0.0,0.0,0.0,0.0,0.0,0.0,0.0,-2.7392,-2.7833,0.0,0.0,0.0,0.0,0.0,0.0,0.0,0.0,0.0,0.0,0.0,0.0,0.0,0.0,-2.8775,-2.8787,-2.9076,-2.9578,-3.0055,-3.003,-2.9591,-3.0068,-3.003,-2.9591,-3.0005,0.0,-2.7896,-2.7971,0.0,0.0,0.0,0.0,0.0,0.0,0.0,0.0,0.0,0.0,0.0,0.0,0.0,0.0,0.0,0.0,0.0,0.0,0.0,0.0,0.0,0.0,-2.5624,-2.616,-2.6285,-2.6285,0.0,-2.5498,-2.4763,-2.47,0.0,0.0,0.0,0.0,0.0,0.0,0.0,0.0,-2.8281,-2.8781,-2.9259,-2.9445,-2.9397,-2.9112,-2.8517,-2.8472,-2.8203,-2.763,-2.76,-2.76,-2.76,-2.76,0.0,0.0,0.0,0.0,0.0,0.0,0.0,0.0,0.0,0.0,0.0,0.0,0.0,0.0,0.0,0.0,0.0,0.0,0.0,0.0,0.0,0.0,0.0,0.0,0.0,0.0,0.0,0.0,0.0,-2.7165,-2.7494,-2.8047,-2.7896,-2.7745,0.0,0.0,0.0,0.0,0.0,0.0,0.0,0.0,0.0,-2.993,-3.0256,-3.0532,-3.0731,-3.1097,-3.1386,-3.165,-3.1888,-3.1876,-3.165,-3.1888,-3.1863,-3.1637,-3.1549,-3.1097,-3.0344,-2.9428,-2.8536,-2.7745,0.0,0.0,0.0,0.0,0.0,-2.7419,-2.7657,-2.7595,0.0,0.0,0.0,0.0,0.0,0.0,0.0,0.0,0.0,0.0,0.0,0.0,0.0,-2.7318,-2.7816,-2.8174,-2.8174,-2.7574,-2.6644,0.0,-2.5259,-2.5331,-2.5608,0.0,0.0,0.0,0.0,0.0,-2.9541,-2.9582,-2.9714,-3.0058,-2.9789,-2.9487,-2.9175,-2.8816,-2.8472,-2.8173,-2.7809,-2.7764,-2.8154,-2.7809,-2.7779,0.0,0.0,0.0,0.0,0.0,0.0,0.0,0.0,0.0,0.0,0.0,0.0,0.0,0.0,0.0,0.0,0.0,0.0,0.0,0.0,0.0,0.0,0.0,0.0,0.0,0.0,0.0,0.0,-2.7607,-2.7908,-2.8473,-2.8411,-2.831,0.0,0.0,0.0,0.0,0.0,0.0,-3.1203,-3.0748,-3.0994,-3.2215,-3.2369,-3.2503,-3.2641,-3.3068,-3.3357,-3.3495,-3.3495,-3.3495,-3.3495,-3.3495,-3.3495,-3.347,-3.3043,-3.278,-3.2516,-3.0871,-2.9553,-2.8536,-2.8536,-2.836,-2.8109,-2.8109,-2.8109,-2.8122,-2.8273,-2.8222,-2.816,-2.8448,0.0,-2.8285,-2.8147,0.0,0.0,0.0,0.0,-2.7949,-2.8369,-2.8651,-2.8782,-2.8507,-2.8983,-2.9486,-2.9486,-2.9191,-2.8481,0.0,-2.6409,-2.6291,-2.6839,0.0,0.0,0.0,0.0,-3.0182,-3.0432,-3.0246,-3.0253,-3.0717,-3.0357,-3.0013,-2.9834,-2.937,-2.9026,-2.8861,-2.8393,-2.8349,-2.8831,-2.8378,-2.8364,-2.8846,0.0,0.0,0.0,0.0,0.0,0.0,0.0,0.0,0.0,0.0,0.0,0.0,0.0,0.0,0.0,0.0,0.0,0.0,0.0,0.0,0.0,0.0,0.0,0.0,0.0,0.0,0.0,0.0,0.0,-2.9641,-2.9227,0.0,0.0,0.0,0.0,-3.1011,-3.0727,-3.1902,-3.5148,-3.3258,-3.2871,-3.4558,-3.3619,-3.3282,-3.3809,-3.3847,-3.4123,-3.4638,-3.4638,-3.4638,-3.4638,-3.4638,-3.4638,-3.4638,-3.4613,-3.4299,-3.3684,-3.2001,-3.0683,-2.9704,-2.9704,-2.9051,-2.8109,-2.8109,-2.8109,-2.8185,-2.8662,-2.8549,-2.8285,-2.9365,-2.934,-2.875,-2.826,-2.8084,0.0,0.0,-2.872,-2.939,-2.9416,-3.0132,-3.0596,-2.9661,-2.9451,-2.9486,-2.9486,-2.946,-2.9526,0.0,-2.8602,-2.7908,-2.8961,0.0,-2.9936,-2.9332,-3.0469,-3.113,-3.0392,-3.0955,-3.1421,-3.1451,-3.1421,-3.1137,-3.0507,-3.0432,-3.0163,-2.9592,-2.9532,-2.9517,-2.9562,-2.9532,-2.9532,-2.9562,-2.8891,0.0,0.0,0.0,0.0,0.0,0.0,0.0,0.0,0.0,0.0,0.0,0.0,0.0,0.0,0.0,0.0,0.0,0.0,0.0,0.0,0.0,0.0,0.0,0.0,0.0,0.0,0.0,0.0,-3.0758,-3.1286,0.0,0.0,-3.2697,-3.3238,-3.4596,-3.4543,-3.5313,-3.7308,-3.6634,-3.6458,-3.7016,-3.6983,-3.6496,-3.5525,-3.583,-3.5931,-3.5768,-3.5768,-3.5768,-3.5768,-3.5768,-3.5768,-3.5755,-3.5403,-3.5094,-3.4843,-3.3935,-3.2667,-3.1348,-3.1348,-3.0884,-3.0218,-3.0218,-3.0218,-3.0244,-3.0444,-3.0382,-3.0231,-3.0294,-2.9942,-2.9555,-2.9965,-2.9863,-2.9668,-3.0006,-3.0105,-3.0017,-2.9762,-2.9964,-3.0136,-2.9791,-3.016,-3.0777,-3.136,-3.1237,-3.1343,-3.2666,-3.088,-2.9357,-2.9857,-3.014,-3.0377,-3.0661,-3.1158,-3.1409,-3.1117,-3.1322,-3.1511,-3.1511,-3.1511,-3.1406,-3.1152,-3.0761,-3.0417,-3.0193,-2.9804,-2.9786,-3.0163,-2.9816,-2.9786,-3.0163,-2.9549,-2.9026,0.0,0.0,0.0,0.0,0.0,0.0,0.0,0.0,0.0,0.0,0.0,0.0,0.0,0.0,0.0,0.0,0.0,0.0,0.0,0.0,0.0,0.0,0.0,0.0,0.0,0.0,-3.2074,-3.2806,-3.37,-3.4764,-3.5924,-3.5286,-3.5687,-3.7873,-3.7326,-3.7908,-4.0253,-3.9256,-3.9084,-4.0052,-3.9599,-3.8804,-3.7586,-3.7945,-3.7731,-3.6958,-3.6958,-3.687,-3.6681,-3.6681,-3.6581,-3.6392,-3.5981,-3.5818,-3.5793,-3.5429,-3.4512,-3.3282,-3.2717,-3.2051,-3.1386,-3.1386,-3.1386,-3.1386,-3.1386,-3.1386,-3.1298,-3.0783,-3.0369,-3.0212,-3.096,-3.0953,-3.0814,-3.1502,-3.1654,-3.1464,-3.0891,-3.0996,-3.1145,-3.0822,-3.123,-3.1924,-3.289,-3.2779,-3.2919,-3.4233,-3.2481,-3.0871,-3.1297,-3.1201,-3.1219,-3.1766,-3.1645,-3.1511,-3.1511,-3.1511,-3.1511,-3.1511,-3.1511,-3.1511,-3.1511,-3.1077,-3.0851,-3.0851,-3.0462,-3.0417,-3.0808,-3.0447,-3.0432,-3.0823,-3.0223,-2.9579,-2.8936,0.0,0.0,0.0,0.0,0.0,0.0,0.0,0.0,0.0,0.0,0.0,0.0,0.0,0.0,0.0,0.0,0.0,0.0,0.0,0.0,0.0,0.0,0.0,-3.1118,-3.2763,-3.4606,-3.5792,-3.6385,-3.7203,-3.8546,-3.6411,-3.6648,-4.0735,-3.8985,-3.9668,-4.4139,-4.1165,-4.065,-4.356,-4.131,-4.0018,-3.9957,-3.9944,-3.9351,-3.8052,-3.8101,-3.786,-3.7344,-3.7283,-3.6981,-3.6477,-3.6417,-3.6405,-3.6405,-3.6405,-3.6031,-3.5332,-3.3759,-3.2453,-3.1461,-3.1449,-3.1436,-3.1436,-3.1436,-3.1436,-3.1336,-3.0834,-3.0658,-3.0718,-3.1155,-3.1294,-3.1452,-3.242,-3.3325,-3.3774,-3.2855,-3.3276,-3.3739,-3.282,-3.2593,-3.2855,-3.3808,-3.3993,-3.409,-3.4448,-3.3304,-3.2564,-3.3362,-3.2961,-3.2512,-3.2512,-3.1944,0.0,-3.1511,-3.1511,-3.1511,-3.1525,-3.1525,-3.1525,-3.1525,-3.1525,-3.1525,-3.1511,-3.1511,-3.1511,-3.1511,-3.1511,-3.1511,-3.1511,-3.0823,-3.0223,-2.9666,0.0,0.0,0.0,0.0,0.0,0.0,0.0,0.0,0.0,0.0,0.0,0.0,0.0,0.0,0.0,0.0,0.0,0.0,0.0,0.0,0.0,0.0,-3.509,-3.4349,-3.5476,-3.7069,-3.8802,-3.8975,-3.9821,-4.1981,-4.1535,-4.1952,-4.393,-4.3514,-4.3923,-4.5681,-4.4846,-4.4501,-4.4915,-4.4254,-4.2832,-4.0579,-4.1457,-4.1053,-3.9372,-4.0328,-4.0653,-4.0478,-3.9163,-3.8481,-3.8264,-3.6981,-3.6405,-3.6405,-3.6405,-3.6031,-3.542,-3.4555,-3.3834,-3.3169,-3.2767,-3.2616,-3.2616,-3.2616,-3.234,-3.1964,-3.1825,-3.1499,-3.1485,-3.3022,-3.3196,-3.3001,-3.4059,-3.4166,-3.3774,-3.2855,-3.2784,-3.2925,-3.2664,-3.2593,-3.2855,-3.3808,-3.3993,-3.4221,-3.5073,-3.4862,-3.4367,-3.3633,-3.335,-3.3066,-3.2557,-3.2333,0.0,-3.157,-3.1511,-3.169,-3.2168,-3.2213,-3.2213,-3.2213,-3.2213,-3.2004,-3.1525,-3.1511,-3.1511,-3.1511,-3.1511,-3.1511,-3.1511,-3.0823,-3.0672,0.0,0.0,0.0,0.0,0.0,0.0,0.0,0.0,0.0,0.0,0.0,0.0,0.0,0.0,0.0,0.0,0.0,0.0,0.0,0.0,0.0,0.0,-3.7625,-3.8649,-3.9182,-3.9493,-4.0241,-4.1833,-4.2119,-4.2992,-4.4953,-4.4161,-4.4264,-4.6,-4.563,-4.575,-4.6668,-4.6222,-4.5771,-4.5389,-4.5403,-4.4273,-4.1949,-4.2649,-4.2235,-4.0623,-4.0803,-4.0813,-4.056,-3.9233,-3.8523,0.0,-3.695,-3.6405,-3.6405,-3.6405,-3.6169,0.0,0.0,0.0,0.0,0.0,-3.3124,-3.3124,-3.3124,-3.2855,-3.2613,-3.2794,-3.2349,-3.2072,-3.3878,-3.3817,-3.3302,-3.4119,-3.4341,-3.4188,-3.3266,-3.3107,-3.3276,-3.3529,-3.3389,-3.3463,-3.4442,-3.461,-3.4806,-3.5392,0.0,0.0,-3.4472,-3.4098,-3.3784,-3.3395,-3.3095,-3.2781,-3.2378,-3.2079,-3.2064,-3.2452,-3.2243,-3.2064,-3.2064,-3.2064,0.0,0.0,0.0,-3.1511,-3.1511,-3.1511,0.0,0.0,0.0,-3.1107,-3.1511,0.0,0.0,0.0,-2.9924,-2.9699,0.0,0.0,0.0,0.0,0.0,0.0,0.0,0.0,0.0,0.0,0.0,0.0,0.0,0.0,0.0,0.0,-4.1065,-4.3324,-4.4676,-4.4089,-4.3861,-4.4806,-4.5207,-4.5928,-4.7164,-4.5252,-4.4872,-4.7121,-4.6255,-4.6107,-4.7251,0.0,0.0,0.0,0.0,-4.478,-4.3504,-4.3646,-4.3074,-4.1789,-4.0982,-4.0247,-3.9597,-3.8874,-3.8206,-3.7566,-3.6817,-3.6505,-3.6505,-3.643,-3.6367,-3.6216,-3.519,-3.4449,-3.3847,-3.3357,-3.3174,0.0,0.0,0.0,0.0,-3.3567,-3.3096,-3.2565,-3.4008,-3.3742,-3.3013,-3.3492,-3.4303,-3.4811,-3.4052,-3.4108,-3.4524,-3.5123,-3.4761,-3.453,-3.5431,-3.5549,-3.5472,-3.5359,-3.5424,-3.5472,-3.5359,-3.4931,-3.4593,-3.4518,-3.3978,-3.3589,-3.3499,-3.2976,-3.2617,-3.2617,0.0,0.0,-3.163,-3.1615,-3.1585,-3.1511,-3.1511,-3.1511,-3.1511,-3.1511,-3.1511,-3.1511,-3.1511,-3.1511,-3.1511,-3.1511,-3.1511,-3.1496,-3.0883,-3.0883,0.0,0.0,0.0,0.0,0.0,0.0,0.0,0.0,0.0,0.0,0.0,0.0,0.0,0.0,0.0,-4.3371,-4.4807,-4.6202,-4.8086,-4.7701,-4.7138,-4.6811,-4.5945,-4.5928,-4.7164,-4.6829,-4.6785,-4.7251,-4.7062,-4.7019,-4.7309,-4.7062,0.0,-4.6931,-4.5928,-4.478,-4.3504,-4.4503,-4.4396,-4.317,0.0,0.0,-4.4106,-4.2502,-4.1152,-3.9965,-3.7922,-3.7023,-3.6985,-3.6593,-3.6094,-3.5633,-3.542,-3.4731,-3.3884,-3.3771,-3.3458,-3.3124,-3.3124,-3.3124,-3.3099,-3.3229,-3.3119,-3.3123,-3.4278,-3.4125,0.0,-3.4678,-3.5287,-3.5662,-3.5504,-3.6093,-3.6773,-3.6891,-3.648,-3.6067,-3.6249,-3.5878,-3.5246,-3.4461,-3.4953,-3.5246,-3.4428,-3.4868,-3.5115,-3.4593,-3.4399,-3.4129,-3.3559,-3.338,-3.3305,-3.3305,-3.3185,-3.2901,-3.2333,-3.2303,-3.2064,-3.154,-3.1511,-3.1511,-3.1511,-3.1511,-3.1511,-3.1511,-3.1511,-3.1511,-3.1511,-3.1511,-3.1511,-3.1511,-3.1376,-3.1077,0.0,0.0,0.0,0.0,0.0,0.0,0.0,0.0,0.0,0.0,0.0,-3.8129,0.0,0.0,-4.3456,-4.5878,-4.686,-4.7773,-4.912,-4.903,-4.8536,-4.7878,-4.6933,-4.6594,-4.7251,-4.7309,-4.7444,-4.7773,-4.7489,-4.7459,-4.7773,-4.686,-4.6062,-4.5403,-4.478,-4.4116,-4.3504,-4.3504,-4.3504,-4.3504,-4.3504,-4.317,-4.2531,-4.1324,-4.0455,-3.9741,-3.7944,-3.7186,-3.7149,-3.6631,-3.6194,-3.5956,-3.5956,-3.5115,-3.3897,-3.3897,-3.3558,-3.3124,-3.3124,-3.3124,-3.3197,-3.3713,-3.3556,-3.3313,-3.4345,-3.4066,-3.3434,-3.367,-3.4281,-3.4823,-3.4848,-3.5339,-3.5928,-3.628,-3.5633,-3.5097,-3.559,-3.484,-3.4041,-3.3993,-3.4041,-3.3905,-3.3394,-3.3719,-3.4259,-3.4897,-3.4996,-3.4876,-3.4547,-3.4203,-3.3858,-3.3529,-3.32,-3.2571,-3.1499,-3.141,-3.1427,-3.1497,-3.1511,-3.1511,-3.1511,-3.1511,-3.1511,-3.1511,-3.1511,-3.1511,-3.1511,-3.1511,-3.1511,-3.1511,-3.1511,-3.1316,0.0,0.0,0.0,0.0,0.0,0.0,0.0,0.0,-3.6722,-3.8812,-4.0387,-4.1697,-4.2602,-4.48,-4.68,-4.7893,-4.873,-4.9374,-4.9823,-4.9733,-4.9359,-4.8566,-4.7893,-4.7489,-4.7489,-4.7384,-4.7578,-4.8237,-4.7434,-4.7199,-4.7911,-4.6308,-4.4918,-4.3882,-4.3882,-4.374,-4.3504,-4.2509,-4.2363,-4.3122,-4.1319,-4.0313,-4.0058,-3.9614,-3.9272,-3.8981,-3.7952,-3.745,-3.7299,-3.6795,-3.6568,-3.6556,-3.6455,-3.5479,-3.4211,-3.4098,-3.3709,-3.3219,-3.3162,-3.3124,-3.324,-3.4108,-3.3797,-3.3283,-3.4108,-3.3797,-3.298,-3.2516,-3.3104,-3.3896,-3.3978,-3.4334,-3.4799,-3.5358,-3.4589,-3.3974,-3.4781,-3.3816,-3.2915,-3.3494,-3.3066,-3.2522,-3.2357,-3.25,-3.3171,-3.4953,-3.5067,-3.5001,-3.518,-3.4593,-3.3955,-3.3459,-3.2772,-3.1832,-3.0574,-3.0557,-3.0964,-3.1632,-3.169,-3.175,-3.1884,-3.1645,-3.157,-3.169,-3.157,-3.1511,-3.1511,-3.1511,-3.1511,-3.1511,-3.1511,-3.1511,-3.1338,-3.1888,-3.3318,-3.6271,-3.6985,-3.7768,0.0,0.0,-4.193,-4.3319,-4.5123,-4.6316,-4.5883,-4.8387,-5.0601,-5.075,-5.1828,-5.2456,-5.1947,-5.1364,-5.0541,-4.9344,-4.8581,-4.8177,-4.8177,-4.7653,-4.7578,-4.8237,-4.6621,-4.5919,-4.6601,-4.584,-4.5358,-4.5207,-4.5207,-4.4642,-4.3504,-4.3361,-4.2786,-4.1838,-4.2689,-4.2509,-4.1406,-4.134,-4.0703,-3.9572,-3.8944,-3.8391,-3.7877,-3.7312,-3.7098,-3.7048,-3.6606,-3.5956,-3.5257,-3.4768,-3.4274,-3.3734,-3.3257,-3.3124,-3.3124,-3.324,-3.3197,-3.3124,-3.324,-3.3197,-3.3111,-3.3006,-3.3779,-3.4571,-3.4612,-3.5291,-3.6018,-3.6087,-3.5565,-3.511,-3.5225,-3.4223,-3.3115,-3.2386,-3.2436,-3.2357,-3.1499,-3.2069,-3.2961,-3.3993,-3.3463,-3.322,-3.4061,-3.3358,-3.2917,-3.3124,-3.2272,-3.1503,-3.1034,-3.1545,-3.2024,-3.2378,-3.2378,-3.2662,-3.3245,-3.2123,-3.178,-3.2392,-3.1795,-3.1511,-3.1511,-3.1511,-3.1511,-3.1511,-3.1511,-3.1511,-3.2013,-3.3562,0.0,0.0,-3.914,-4.0861,-4.3015,-4.4107,-4.5035,-4.6352,-4.7908,-4.888,-4.8611,-4.9986,-5.1214,0.0,-5.2007,-5.2381,-5.1723,-5.1394,-5.0735,-4.9464,-4.8686,-4.8132,-4.7758,-4.7459,-4.7578,-4.8237,-4.7555,-4.7376,-4.8024,-4.6049,-4.4884,-4.4884,-4.3351,-4.2516,-4.2412,-4.1984,-4.1697,-4.1604,-4.1406,-4.1032,-4.0503,-4.0503,-4.0045,-3.9195,-3.902,-3.8366,-3.7513,-3.7274,-3.6998,-3.6732,-3.6505,-3.6267,-3.5956,-3.5403,-3.4806,-3.4349,-3.411,-3.4035,-3.4035,-3.4035,-3.4035,-3.4035,-3.4035,-3.3809,-3.3558,-3.3558,-3.3639,-3.3755,-3.3755,-3.4066,-3.4415,-3.4415,-3.3929,-3.3672,-3.4233,-3.3251,-3.2175,-3.2027,-3.1676,-3.1199,-3.0508,-3.0709,-3.1304,-3.2213,-3.25,-3.2749,-3.3136,-3.2855,-3.2513,-3.226,-3.1082,-3.0521,-3.1057,-3.075,-3.0848,-3.1635,-3.2048,-3.2401,-3.2679,-3.2673,-3.2617,-3.2512,-3.2213,-3.2079,-3.2064,-3.169,-3.1705,-3.2064,-3.169,-3.1511,-3.2819,0.0,0.0,-3.8487,-4.0932,-4.3294,-4.4746,-4.6106,-4.7511,-4.9029,-4.977,-5.0164,-5.0209,-5.0734,0.0,-5.1214,-5.1768,-5.1867,-5.0802,-5.08,-5.0145,-4.7992,-4.7748,-4.7418,-4.6606,-4.7016,-4.7578,-4.8237,-4.7598,-4.7501,-4.8177,-4.5613,-4.416,-4.416,-4.244,-4.1632,-4.1792,-4.1132,-4.0914,-4.1082,-4.0121,-3.9697,-3.9697,-3.9697,-3.9484,-3.9094,-3.9094,-3.8542,-3.7651,-3.7651,-3.7224,-3.6631,-3.6631,-3.6543,-3.6367,-3.5918,-3.5382,-3.4881,-3.4731,-3.468,-3.468,-3.468,-3.468,-3.468,-3.468,-3.4449,-3.4098,-3.3935,-3.3608,-3.3269,-3.3162,-3.3124,-3.3124,-3.3124,-3.2754,-3.2651,-3.3374,-3.2526,-3.1731,-3.1992,-3.1403,-3.0658,-3.0118,-3.0018,-3.0214,-3.0709,-3.1402,-3.1938,-3.2177,-3.2213,-3.1942,-3.1164,-3.0392,-3.018,-3.0816,-3.0267,-3.0292,-3.116,-3.1961,-3.2454,-3.2626,-3.2932,-3.3,-3.2796,-3.2347,-3.2258,-3.2512,-3.1824,-3.1839,-3.2467,-3.1809,-3.1511,0.0,0.0,-3.5489,-3.9277,-4.2209,-4.4649,-4.6652,-4.8062,-4.9513,-5.1631,-5.096,-5.0026,-5.0173,-5.0734,-5.1214,-5.1214,-5.1768,-5.155,-4.9605,-4.9852,-4.8639,-4.4293,-4.5301,-4.591,0.0,-4.6269,-4.7578,-4.8237,-4.5906,-4.4712,-4.537,-4.4047,-4.3255,-4.3255,-4.3832,-4.362,-4.2385,-4.1845,-4.0958,-3.9736,-3.9749,-3.9697,-3.9697,-3.9697,-3.9685,-3.9672,-3.9672,-3.9346,-3.8869,-3.8869,-3.8215,-3.7161,-3.7161,-3.6883,-3.6405,-3.6392,-3.5994,-3.5395,-3.4868,-3.468,-3.468,-3.468,-3.468,-3.468,-3.468,-3.4668,-3.4587,-3.4048,-3.3884,-3.3759,-3.3262,-3.3124,-3.3124,-3.3124,-3.3111,-3.3086,-3.3086,-3.2634,-3.219,-3.2206,-3.1725,-3.1198,-3.0683,-3.0595,-3.0407,-2.9906,-2.9869,-3.0216,-3.1143,-3.1254,-3.0895,-2.9947,-3.0619,-3.089,-3.0273,-3.0797,-3.1265,-3.1578,-3.2528,-3.3331,-3.3907,-3.2789,-3.257,-3.3455,-3.1942,-3.1591,-3.2512,-3.1824,-3.1839,-3.2467,-3.1809,-3.1511,0.0,0.0,-3.9423,-4.1566,-4.4018,-4.6347,-4.7912,-4.8592,-4.9296,-5.0504,-4.8514,-4.6585,-4.6677,-4.5893,-4.5592,-4.6841,-4.7778,-4.8273,-4.8043,-4.8904,-4.7932,-4.3528,-4.5751,0.0,0.0,0.0,0.0,-4.7535,-4.6836,-4.6414,-4.6565,-4.5735,-4.4843,-4.3887,-4.284,-4.1918,-4.1155,-4.0964,-4.049,-3.9697,-3.9697,-3.9697,-3.9697,-3.9697,-3.9697,-3.9697,-3.9697,-3.9383,-3.8894,-3.8454,-3.7864,-3.7149,-3.6832,-3.6568,-3.6405,-3.6405,-3.6292,-3.6056,-3.5868,-3.5805,-3.5805,-3.5805,-3.5805,-3.5805,-3.5805,-3.5554,-3.5182,-3.4994,-3.4726,-3.4399,-3.4223,-3.4173,-3.4073,-3.3709,-3.3621,-3.352,-3.3156,-3.2918,-3.2667,-3.229,-3.2064,-3.1763,-3.1223,-3.1135,-3.0947,-3.0419,-3.003,-2.9895,-3.0241,-3.0279,-3.0139,-2.983,-3.0075,-3.0263,-3.0194,-3.0222,-3.0387,-3.0659,-3.1977,-3.2856,-3.3052,-3.3257,-3.3616,-3.4158,-3.3022,-3.2669,-3.3155,-3.2946,-3.2721,-3.2482,-3.2258,-3.1929,-3.5375,-3.8325,-4.1329,-4.2896,-4.5234,-4.7284,-4.7961,-4.8124,-4.8185,-4.8154,-4.5588,-4.3302,-4.3009,-4.1821,-4.142,-4.2982,-4.3955,-4.4676,-4.5038,-4.6124,-4.5501,-4.18,-4.4445,0.0,0.0,0.0,0.0,-4.5825,-4.5931,-4.5839,-4.579,-4.5377,-4.4692,-4.3773,-4.2179,-4.1112,-4.0814,-4.0425,-4.0049,-3.9697,-3.9697,-3.9697,-3.9697,-3.9697,-3.9697,-3.9697,-3.9697,-3.9383,-3.8894,-3.8467,-3.7864,-3.7149,-3.6845,-3.6581,-3.6405,-3.6405,-3.6405,-3.6405,-3.6405,-3.6405,-3.6405,-3.6405,-3.6405,-3.6405,-3.6405,-3.6119,-3.5805,-3.5558,-3.5245,-3.4919,-3.4731,-3.468,-3.4575,-3.4035,-3.3897,-3.3746,-3.3237,-3.3124,-3.3011,-3.2591,-3.2516,-3.234,-3.1775,-3.1373,-3.0997,-3.067,-3.0143,-2.9792,-2.9792,-2.9792,-2.9792,-2.9792,-2.9792,-2.9859,-3.0041,-2.9897,-2.9885,-3.0028,-3.1336,-3.2105,-3.2105,-3.2664,-3.3166,-3.3449,-3.2859,-3.269,-3.2991,-3.3092,-3.2931,-3.2482,-3.2243,-3.1914,-3.7293,-3.9424,-4.1231,-4.3424,-4.5818,-4.7472,-4.6892,-4.6697,-4.6208,-4.4877,-4.237,-4.0154,0.0,0.0,-3.8644,-3.9911,-4.066,-4.1068,-4.096,-4.1971,-4.1774,0.0,0.0,0.0,0.0,0.0,0.0,-4.3355,0.0,-4.3229,-4.3229,-4.314,-4.3073,-4.2936,-4.1894,-4.1275,-4.125,-4.0224,-3.9697,-3.9697,-3.9697,-3.9697,-3.9697,-3.9697,-3.9697,-3.9697,-3.9697,-3.9383,-3.8919,-3.8919,-3.8216,-3.7224,-3.7199,-3.6933,-3.6493,-3.6455,-3.6455,-3.6455,-3.6455,-3.643,-3.6405,-3.6405,-3.6405,-3.6405,-3.6405,-3.6405,-3.6304,-3.5683,-3.5545,-3.542,-3.4939,-3.4813,-3.4663,-3.411,-3.396,-3.3796,-3.3244,-3.3136,-3.3124,-3.3124,-3.3124,-3.2905,-3.2353,-3.1361,-3.0658,-3.0658,-3.0168,-2.9792,-2.9792,-2.9792,-2.9792,-2.9792,-2.9792,-2.9792,-2.9792,-2.9792,-2.9792,-2.9792,-3.0696,-3.1217,-3.1217,-3.1217,-3.1342,-3.166,-3.1647,-3.1788,-3.2087,-3.2385,-3.2512,-3.2408,-3.1781,-3.1482,-3.8827,-4.1354,-4.3796,-4.4833,-4.5557,-4.5882,-4.5298,-4.3623,-4.2084,-4.1843,-3.8234,-3.5153,0.0,0.0,0.0,-3.7222,-3.8655,0.0,-4.1225,-4.2455,0.0,0.0,0.0,-4.3551,-4.0312,-4.1819,0.0,0.0,-4.2813,-4.3319,-4.3229,-4.4016,-4.3878,-4.2426,-4.1693,-4.1087,-4.0727,-4.0036,-3.9697,-3.9697,-3.9697,-3.9697,-3.9697,-3.9697,-3.9697,-3.9697,-3.9697,-3.9383,-3.8919,-3.8919,-3.8442,-3.7764,-3.7349,-3.7349,-3.7538,-3.7123,-3.6973,-3.6973,-3.6973,-3.6757,-3.6405,-3.6405,-3.6405,-3.6405,-3.6405,-3.6405,-3.638,-3.6194,-3.6157,-3.6119,-3.5981,-3.5943,-3.5805,-3.5207,-3.4768,-3.4361,-3.3809,-3.337,-3.3124,-3.3124,-3.3124,-3.3031,-3.288,-3.1938,-3.1198,-3.1198,-3.0394,-2.9792,-2.9792,-2.9792,-2.9792,-2.9792,-2.9792,-2.9792,-2.9792,-2.9792,-2.9792,-2.9792,-3.0696,-3.1217,-3.1217,-3.1217,-3.1566,-3.2337,-3.2337,-3.2138,-3.1748,-3.2608,-3.2492,-3.1467,-3.134,-3.1366,-4.0337,-4.266,-4.4706,-4.5033,-4.5108,-4.4706,-4.3162,-4.1254,-3.9373,-3.774,-3.4895,0.0,0.0,0.0,0.0,0.0,0.0,0.0,-3.9416,-4.0909,-4.1235,0.0,-4.2428,0.0,-4.0673,-4.2112,-4.2684,0.0,-4.2255,-4.2849,-4.2743,-4.3635,-4.3554,-4.2225,-4.1618,-4.0912,-4.0162,-3.9848,-3.9697,-3.9697,-3.9697,-3.9697,-3.9697,-3.9697,-3.9697,-3.9697,0.0,-3.9521,-3.922,-3.902,-3.868,-3.8329,-3.7764,-3.7739,-3.7965,-3.7663,-3.755,-3.7513,-3.7262,-3.6973,-3.6732,-3.6493,-3.6405,-3.6405,-3.6405,-3.6405,-3.6405,-3.6405,-3.6405,-3.6405,-3.6405,-3.6405,-3.6267,-3.5621,-3.5082,-3.4575,-3.4022,-3.347,-3.3124,-3.3124,-3.3124,-3.3124,-3.3124,-3.2139,-3.1386,-3.1386,-3.0482,-2.9792,-2.9792,-2.9792,-2.9792,-2.9792,-2.9792,-2.9792,-2.9792,-2.9792,-2.9792,-2.9792,-3.0279,-3.0595,-3.0595,-3.0595,-3.0833,-3.1378,-3.1792,-3.1541,-3.0653,-3.2051,-3.2025,-3.0756,-3.1154,-3.1383,-4.1873,-4.3576,-4.4807,-4.4656,-4.4455,-4.3589,-4.0902,-3.922,-3.726,-3.3684,0.0,-3.1461,-3.0055,0.0,-3.1097,-3.2252,0.0,-3.5429,-3.7161,-3.8668,-3.9785,-4.0337,-4.1891,-4.2527,-4.1383,-4.2418,-4.2707,-4.1609,-4.1995,-4.2288,-4.2213,-4.274,-4.2698,-4.2125,-4.1442,-4.0664,-3.9697,-3.9697,-3.9697,-3.9697,-3.9697,-3.9697,-3.9697,-3.9697,-3.9697,-3.9697,0.0,0.0,-3.9546,-3.9145,-3.8931,-3.8869,-3.8316,-3.8165,-3.8216,-3.8153,-3.8115,-3.8052,-3.7575,-3.7312,-3.7098,-3.6581,-3.6405,-3.6405,-3.6405,-3.6405,-3.6405,-3.6405,-3.6405,-3.6405,-3.6405,-3.6405,-3.6292,-3.5768,-3.5132,-3.4587,-3.411,-3.352,-3.3124,-3.3124,-3.3124,-3.3124,-3.3124,-3.2202,-3.1474,-3.1399,-3.0545,-2.988,-2.9804,-2.9792,-2.9792,-2.9792,-2.9792,-2.9792,-2.9792,-2.9792,-2.9792,-2.9792,-2.9792,-2.9792,-2.9792,-2.9792,-2.9792,-2.9792,-3.0655,-3.05,-2.9336,-3.089,-3.1087,-3.0095,-3.0807,-3.1161,-4.3162,-4.4744,-4.5799,-4.4857,-4.3589,-4.2037,-3.9685,-3.6872,0.0,0.0,0.0,-3.0131,-2.9842,-3.0595,0.0,-3.3357,0.0,0.0,0.0,0.0,-3.922,0.0,0.0,0.0,0.0,0.0,0.0,0.0,0.0,0.0,-4.2238,-4.274,-4.2522,-4.1517,-4.0501,-3.9885,-3.9697,-3.9697,-3.9697,-3.9697,-3.9697,-3.9697,-3.9697,-3.9697,-3.9697,-3.9697,0.0,0.0,-3.9095,-3.9408,-3.9283,-3.8906,-3.8755,-3.8994,-3.9346,-3.8894,-3.8718,-3.8705,-3.8655,-3.7965,-3.7098,-3.6581,-3.6405,-3.6405,-3.6405,-3.6405,-3.6405,-3.6405,-3.6405,-3.6405,-3.6405,-3.6405,-3.638,-3.6292,-3.5454,-3.4655,-3.46,-3.3784,-3.3124,-3.3124,-3.3124,-3.3124,-3.3124,-3.2516,-3.1913,-3.1461,-3.0871,-3.0306,-2.9854,-2.9792,-2.9792,-2.9792,-2.9792,-2.9792,-2.9792,-2.9792,-2.9792,-2.9792,-2.9792,-2.9792,-2.9792,-2.9792,-2.9792,-2.9792,-3.0292,-3.0051,-2.8999,-2.9201,-2.9114,-2.8819,-2.9255,-2.9442,-4.335,-4.4392,-4.4869,-4.433,-4.2522,-4.0212,-3.7713,0.0,0.0,0.0,0.0,-2.9792,-2.9792,0.0,0.0,0.0,0.0,0.0,0.0,0.0,0.0,0.0,0.0,0.0,0.0,0.0,0.0,0.0,0.0,0.0,-4.2652,-4.2615,-4.2183,-4.1313,-4.0551,-3.9986,-3.9697,-3.9697,-3.9697,-3.9697,-3.9697,-3.9697,-3.9697,-3.9697,-3.9697,-3.9697,-3.9697,0.0,-3.932,-3.9584,-3.9534,-3.9295,-3.9295,-3.9459,-3.9659,-3.9396,-3.9295,-3.9258,-3.902,-3.8517,-3.7914,-3.7109,-3.6644,-3.6405,-3.6405,-3.6405,-3.6405,-3.6405,-3.6405,-3.6405,-3.6405,-3.6405,-3.6405,-3.6405,-3.5529,-3.4562,-3.3985,-3.3445,-3.3124,-3.3124,-3.3124,-3.3124,-3.3124,-3.2591,-3.2127,-3.1863,-3.1135,-3.062,-3.062,-3.0143,-2.9792,-2.9792,-2.9792,-2.9792,-2.9792,-2.9792,-2.9792,-2.9792,-2.9792,-2.9792,-2.9792,-2.9792,-2.9792,-2.9792,-2.9692,-2.9245,-2.8461,-2.8564,-2.8422,-2.8085,-2.8711,-2.9136,-4.2886,-4.3614,-4.374,-4.3501,-4.1367,-3.863,-3.5922,-3.3514,0.0,0.0,-2.9792,-2.9792,-2.9792,0.0,0.0,0.0,0.0,0.0,0.0,0.0,0.0,0.0,0.0,0.0,0.0,0.0,0.0,0.0,0.0,0.0,0.0,-4.2502,-4.1907,-4.13,-4.0802,-4.0249,-3.9697,-3.9697,-3.9697,-3.9697,-3.9697,-3.9697,-3.9697,-3.9697,-3.9697,-3.9697,-3.9697,0.0,0.0,-3.9697,-3.9697,-3.9697,-3.9697,-3.9697,-3.9697,-3.9697,-3.9697,-3.9634,-3.9195,-3.902,-3.8756,-3.7688,-3.6985,-3.6568,-3.6443,-3.6405,-3.6405,-3.6405,-3.6405,-3.6405,-3.6405,-3.6405,-3.638,-3.6267,-3.5529,-3.46,-3.3483,-3.3257,-3.3262,-3.3106,-3.3124,-3.3124,-3.3124,-3.2704,-3.2353,-3.2227,-3.1499,-3.106,-3.1348,-3.0658,-3.0093,-2.998,-2.9867,-2.9792,-2.9792,-2.9792,-2.9792,-2.9792,-2.9792,-2.9792,-2.9792,-2.9792,-2.9792,-2.9792,-2.9227,-2.8675,-2.8285,-2.837,-2.8134,-2.7633,-2.8621,-2.9146,-4.1898,-4.3037,-4.3564,-4.2615,-4.0212,-3.7563,-3.5316,0.0,0.0,-2.993,-2.9792,-2.9792,-2.9792,-2.9829,0.0,0.0,0.0,0.0,0.0,0.0,0.0,0.0,0.0,0.0,0.0,0.0,0.0,0.0,0.0,0.0,0.0,-4.2502,-4.1907,-4.13,-4.0802,-4.0249,-3.9697,-3.9697,-3.9697,-3.9697,-3.9697,-3.9697,-3.9697,-3.9697,-3.9697,-3.9697,0.0,0.0,0.0,-3.9697,-3.9697,-3.9697,-3.9697,-3.9697,-3.9697,-3.9697,-3.9697,-3.9685,-3.9634,-3.9295,-3.8768,-3.814,-3.755,-3.7059,-3.6556,-3.6405,-3.6405,-3.6405,-3.6405,-3.6405,-3.6405,-3.6405,-3.6279,-3.5683,-3.5495,-3.5119,-3.406,-3.3822,-3.3671,-3.3169,-3.3124,-3.3124,-3.3124,-3.3031,-3.2817,-3.229,-3.2127,-3.1901,-3.1449,-3.1298,-3.1072,-3.0595,-3.0093,-2.9792,-2.9792,-2.9792,-2.9792,-2.9792,-2.9792,-2.9792,-2.9792,-2.9792,-2.9792,-2.9792,-2.9227,-2.8863,-2.8813,-2.8359,-2.7841,-2.7382,-2.8721,-2.8708,-4.0224,-4.148,-4.2133,-4.1354,-3.8831,-3.6119,-3.4575,0.0,0.0,-2.9842,-2.9792,-2.9792,-2.9792,-2.9792,-2.993,-3.0357,0.0,0.0,0.0,0.0,0.0,0.0,0.0,0.0,0.0,0.0,0.0,0.0,0.0,0.0,0.0,-4.2095,-4.1756,-4.0877,-4.0626,-4.0249,-3.9697,-3.9697,-3.9697,-3.9697,-3.9697,-3.9697,-3.9697,-3.9697,-3.9697,-3.9697,0.0,0.0,0.0,-3.9697,-3.9697,-3.9697,-3.9697,-3.9697,-3.9697,-3.9697,-3.9697,-3.9697,-3.9697,-3.9333,-3.8781,-3.8203,-3.7638,-3.7073,-3.6568,-3.6405,-3.6405,-3.6405,-3.6405,-3.6405,-3.6405,-3.6405,-3.6267,-3.5621,-3.5495,-3.5194,-3.4135,-3.4161,-3.4135,-3.3257,-3.3345,-3.347,-3.3174,-3.3124,-3.3006,-3.2767,-3.2441,-3.2252,-3.239,-3.1813,-3.1436,-3.1562,-3.0809,-3.0156,-2.9817,-2.9792,-2.9792,-2.9792,-2.9792,-2.9792,-2.9792,-2.9792,-2.9792,-2.9792,-2.9227,-2.8888,-2.8888,-2.8373,-2.7996,-2.7783,-2.8382,-2.8499,-3.8266,-3.9521,-4.021,-3.9873,-3.7476,-3.4969,0.0,0.0,0.0,-2.9792,-2.9792,-2.9792,-2.9792,-2.9792,-2.9792,-2.9792,0.0,-3.0306,0.0,0.0,0.0,0.0,0.0,0.0,0.0,0.0,0.0,0.0,0.0,0.0,0.0,-4.1467,-4.1317,-4.0538,-4.0513,-4.0249,-3.9697,-3.9697,-3.9697,-3.9697,-3.9697,-3.9697,-3.9697,-3.9697,-3.9697,-3.9697,0.0,0.0,0.0,-3.9697,-3.9697,-3.9697,-3.9697,-3.9697,-3.9697,-3.9697,-3.9584,-3.9446,-3.9446,-3.9082,-3.8517,-3.7952,-3.75,-3.7073,-3.6568,-3.6405,-3.6405,-3.6405,-3.6405,-3.6405,-3.6405,-3.6405,-3.6304,-3.5881,-3.5793,-3.5529,-3.4587,-3.4688,-3.4688,-3.3746,-3.3746,-3.3771,-3.3382,-3.3224,-3.3124,-3.3124,-3.2729,-3.2616,-3.3074,-3.2378,-3.1913,-3.1964,-3.1298,-3.062,-3.008,-2.988,-2.9792,-2.9792,-2.9792,-2.9792,-2.9792,-2.9792,-2.9792,-2.9792,-2.939,-2.9189,-2.9189,-2.88,-2.8511,-2.8348,-2.8524,-2.8725,-3.5981,-3.7224,-3.804,-3.804,-3.637,-3.4449,0.0,0.0,0.0,-2.9792,-2.9792,-2.9792,-2.9792,-2.9792,-2.9792,-2.9792,-2.9792,0.0,0.0,0.0,0.0,0.0,0.0,0.0,0.0,0.0,0.0,0.0,0.0,0.0,0.0,0.0,-4.0526,-4.0513,-4.0513,-4.0249,-3.9697,-3.9697,-3.9697,-3.9697,-3.9697,-3.9697,-3.9697,-3.9697,-3.9697,0.0,0.0,0.0,0.0,-3.9697,-3.9697,-3.9697,-3.9697,-3.9697,-3.9697,-3.9697,-3.9346,-3.8932,-3.8932,-3.8492,-3.7927,-3.7374,-3.7186,-3.7073,-3.6568,-3.6405,-3.6405,-3.6405,-3.6405,-3.6405,-3.6405,-3.6405,-3.6405,-3.6405,-3.6405,-3.6194,-3.5596,-3.5483,-3.532,-3.4768,-3.4274,-3.3897,-3.3884,-3.3432,-3.3124,-3.3124,-3.3111,-3.3111,-3.3124,-3.3111,-3.2629,-3.1512,-3.1386,-3.1173,-3.0658,-3.0105,-2.9792,-2.9792,-2.9792,-2.9792,-2.9792,-2.9792,-2.9792,-2.9792,-2.9779,-2.9779,-2.9779,-2.9779,-2.9478,-2.89,-2.9503,-2.9478,-3.3884,-3.4926,-3.5667,-3.529,-3.4098,-3.2817,-3.2089,0.0,0.0,-2.9792,-2.9792,-2.9792,-2.9792,-2.9792,-2.9792,-2.9792,-2.9792,0.0,0.0,0.0,0.0,0.0,0.0,0.0,0.0,0.0,0.0,0.0,0.0,0.0,0.0,0.0,-3.9961,-3.9961,-3.9961,-3.9873,-3.9697,-3.9697,-3.9697,-3.9697,-3.9697,-3.9697,-3.9697,-3.9697,0.0,0.0,0.0,0.0,0.0,-3.9697,-3.9697,-3.9697,-3.9697,-3.9697,-3.9697,-3.9697,-3.9346,-3.8919,-3.8919,-3.8241,-3.7412,-3.7249,-3.6923,-3.6631,-3.6455,-3.6405,-3.6405,-3.6405,-3.6405,-3.6405,-3.6405,-3.6405,-3.6405,-3.6405,-3.6405,-3.6207,-3.5621,-3.583,-3.583,-3.4901,-3.4575,-3.4462,-3.4462,-3.3696,-3.3206,-3.3583,-3.3319,-3.3124,-3.3124,-3.3124,-3.2943,-3.2579,-3.219,-3.1436,-3.0168,-2.9892,-2.9792,-2.9792,-2.9792,-2.9792,-2.9792,-2.9792,-2.9792,-2.9792,-2.9792,-2.9792,-2.9792,-2.9792,-2.9691,-2.9528,-2.9704,-2.9478,0.0,-3.3093,-3.3696,-3.3345,-3.2579,0.0,0.0,0.0,0.0,-2.9792,-2.9792,-2.9792,-2.9792,-2.9792,-2.9792,-2.9792,-2.9792,0.0,0.0,0.0,0.0,0.0,0.0,0.0,0.0,0.0,0.0,0.0,0.0,0.0,0.0,0.0,-3.9697,-3.9697,-3.9697,-3.9697,-3.9697,-3.9697,-3.9697,-3.9697,-3.9697,-3.9697,-3.9697,-3.9697,0.0,0.0,0.0,0.0,0.0,-3.9697,-3.9697,-3.9697,-3.9697,-3.9697,-3.9672,-3.9459,-3.9032,-3.8517,-3.8304,-3.7687,-3.692,-3.692,-3.6681,-3.6405,-3.6405,-3.6405,-3.6405,-3.6405,-3.6405,-3.6405,-3.6405,-3.6405,-3.6405,-3.6405,-3.6405,-3.6317,-3.5931,-3.6119,-3.6204,-3.5479,-3.5177,-3.4994,-3.4994,-3.4123,-3.3508,-3.3847,-3.3432,-3.3124,-3.3124,-3.3124,-3.2993,-3.2767,-3.2428,-3.1637,-3.0218,-3.0105,-3.0018,-2.9804,-2.9792,-2.9792,-2.9792,-2.9792,-2.9792,-2.9792,-2.9792,-2.9792,-2.9792,-2.9792,-2.9792,-2.9792,-2.9792,-2.9603,0.0,-3.165,0.0,0.0,0.0,0.0,0.0,0.0,0.0,0.0,0.0,-2.9792,-2.9792,-2.9792,-2.9792,-2.9792,0.0,0.0,0.0,0.0,0.0,0.0,0.0,0.0,0.0,0.0,0.0,0.0,0.0,0.0,0.0,0.0,0.0,-3.9697,-3.9647,-3.9647,-3.9697,-3.9697,-3.9697,-3.9697,-3.9697,-3.9697,-3.9697,-3.9697,0.0,0.0,0.0,0.0,0.0,-3.9697,-3.9697,-3.9697,-3.9697,-3.9697,-3.9634,-3.9082,-3.8504,-3.7927,-3.7374,-3.687,-3.6405,-3.6405,-3.6405,-3.6405,-3.6405,-3.6405,-3.6405,-3.6405,-3.6405,-3.6405,-3.6405,-3.6405,-3.6405,-3.6405,-3.6405,-3.6405,-3.6405,-3.6405,-3.6405,-3.6405,-3.5918,-3.5508,-3.5558,-3.4688,-3.3972,-3.401,-3.3508,-3.3174,-3.3174,-3.3106,-3.2867,-3.2328,-3.2277,-3.1838,-3.0758,-3.0633,-3.0382,-2.9829,-2.9792,-2.9792,-2.9792,-2.9792,-2.9792,-2.9792,-2.9792,-2.9792,-2.9792,-2.9792,-2.9792,-2.9792,-2.9792,-2.9792,-3.0105,0.0,-3.0357,-3.0357,-3.0269,0.0,0.0,0.0,0.0,0.0,0.0,0.0,0.0,0.0,0.0,0.0,0.0,0.0,0.0,0.0,0.0,0.0,0.0,0.0,0.0,0.0,0.0,0.0,0.0,0.0,0.0,0.0,0.0,-3.9697,-3.9283,-3.927,-3.9685,-3.9697,-3.9697,-3.9697,-3.9697,-3.9697,-3.9697,-3.9697,0.0,0.0,0.0,0.0,-3.9697,-3.9697,-3.9697,-3.9697,-3.9697,-3.9697,-3.9634,-3.9082,-3.8504,-3.7927,-3.7374,-3.687,-3.6405,-3.6405,-3.6405,-3.6405,-3.6405,-3.6405,-3.6405,-3.6405,-3.6405,-3.6405,-3.6405,-3.6405,-3.6405,-3.6405,-3.6405,-3.6405,-3.6405,-3.6405,-3.6405,-3.6405,-3.5918,-3.5633,-3.6094,-3.5265,-3.4675,-3.5044,-3.4324,-3.3709,-3.3709,-3.3332,-3.3074,-3.288,-3.2867,-3.2416,-3.1298,-3.0846,-3.0382,-2.9829,-2.9792,-2.9792,-2.9792,-2.9792,-2.9792,-2.9792,-2.9792,-2.9792,-2.9792,-2.9792,-2.9792,-2.9792,-2.9792,-2.9792,-2.9663,-2.9792,-2.9792,-2.9792,-2.9792,-2.9792,-2.9792,0.0,0.0,0.0,0.0,0.0,0.0,0.0,0.0,0.0,0.0,0.0,0.0,0.0,0.0,0.0,0.0,0.0,0.0,0.0,0.0,0.0,0.0,0.0,0.0,0.0,-3.9697,-3.9697,-3.9157,-3.9132,-3.9685,-3.9182,-3.9182,-3.9697,-3.9433,-3.9446,-3.9697,-3.9697,0.0,0.0,0.0,0.0,-3.932,-3.932,-3.932,-3.9346,-3.9597,-3.9534,-3.9245,-3.868,-3.8115,-3.755,-3.6998,-3.6656,-3.6405,-3.6405,-3.6405,-3.6405,-3.6405,-3.6405,-3.6405,-3.6405,-3.6405,-3.6405,-3.6405,-3.6405,-3.6405,-3.6405,-3.6405,-3.6405,-3.6405,-3.6405,-3.6405,-3.6405,-3.6119,-3.6019,-3.6355,-3.5667,-3.5157,-3.5458,-3.4613,-3.3897,-3.3897,-3.342,-3.3124,-3.3124,-3.3124,-3.2717,-3.1838,-3.1286,-3.0633,-2.9842,-2.9792,-2.9792,-2.9792,-2.9792,-2.9792,-2.9792,-2.9792,-2.9792,-2.9792,-2.9792,-2.9792,-2.9792,-2.9792,-2.9792,-2.9326,-2.9663,-2.9792,-2.9792,-2.9792,-2.9792,-2.9792,0.0,0.0,0.0,0.0,0.0,0.0,0.0,0.0,0.0,0.0,0.0,0.0,0.0,0.0,0.0,0.0,0.0,0.0,0.0,0.0,0.0,0.0,0.0,0.0,0.0,0.0,-3.9572,-3.9032,-3.8969,-3.9433,-3.8479,-3.8479,-3.9433,-3.8969,-3.8981,-3.9433,-3.9433,-3.9433,0.0,0.0,0.0,-3.8919,-3.8919,-3.8969,-3.9095,-3.9509,-3.9358,-3.8856,-3.8316,-3.7726,-3.7098,-3.6606,-3.6405,-3.6405,-3.6405,-3.6405,-3.6405,-3.6405,-3.6405,-3.6405,-3.6405,-3.6405,-3.6405,-3.6405,-3.6405,-3.6405,-3.6405,-3.6405,-3.6405,-3.6405,-3.6405,-3.6405,-3.6405,-3.6405,-3.6405,-3.6405,-3.5981,-3.5596,-3.5508,-3.4675,-3.3997,-3.3909,-3.342,-3.3124,-3.3124,-3.3124,-3.2842,-3.2265,-3.1788,-3.106,-2.998,-2.9842,-2.9792,-2.9792,-2.9792,-2.9792,-2.9792,-2.9792,-2.9792,-2.9792,-2.9792,-2.9792,-2.9792,-2.9792,-2.9792,-2.8597,-2.9067,-2.9792,-2.9792,-2.9792,-2.9792,-2.9792,0.0,0.0,0.0,0.0,0.0,0.0,0.0,0.0,0.0,0.0,0.0,0.0,0.0,0.0,0.0,0.0,0.0,0.0,0.0,0.0,0.0,0.0,0.0,0.0,0.0,0.0,-3.9057,-3.8442,-3.8178,-3.8266,-3.809,-3.809,-3.8266,-3.8178,-3.8191,-3.8266,-3.8266,-3.8266,0.0,0.0,-3.8417,-3.8919,-3.8919,-3.9145,-3.9584,-3.9659,-3.9358,-3.8906,-3.8818,-3.8078,-3.7098,-3.6606,-3.6405,-3.6405,-3.6405,-3.6405,-3.6405,-3.6405,-3.6405,-3.6405,-3.6405,-3.6405,-3.6405,-3.6405,-3.6405,-3.6405,-3.6405,-3.6405,-3.6405,-3.6405,-3.6405,-3.6405,-3.6405,-3.6405,-3.6405,-3.6405,-3.6329,-3.6081,-3.5571,-3.4956,-3.4424,-3.396,-3.342,-3.3124,-3.3124,-3.3124,-3.2842,-3.2265,-3.2139,-3.1625,-3.0557,-3.0043,-2.9792,-2.9792,-2.9792,-2.9792,-2.9792,-2.9792,-2.9792,-2.9792,-2.9792,-2.9792,-2.9792,-2.9792,-2.9792,-2.7371,-2.8028,-2.8897,-2.8897,-2.9353,-2.9792,-2.9792,-2.9792,0.0,0.0,0.0,0.0,0.0,0.0,0.0,0.0,0.0,0.0,0.0,0.0,0.0,0.0,0.0,0.0,0.0,0.0,0.0,0.0,0.0,0.0,0.0,0.0,0.0,0.0,-3.7852,-3.7563,-3.7563,-3.7262,-3.7412,-3.8002,-3.7701,-3.7713,-3.8002,-3.8002,-3.8002,-3.799,0.0,-3.7713,-3.7965,-3.7965,-3.8115,-3.8366,-3.8668,-3.8442,-3.7927,-3.7674,-3.7235,-3.6757,-3.6505,-3.6405,-3.6405,-3.6405,-3.6405,-3.6405,-3.6405,-3.6405,-3.6405,-3.6405,-3.6405,-3.6405,-3.6405,-3.6405,-3.6405,-3.6405,-3.6405,-3.6405,-3.6405,-3.6405,-3.6405,-3.6405,-3.6405,-3.6405,-3.6405,-3.6405,-3.6182,-3.5583,-3.5031,-3.4525,-3.3972,-3.342,-3.3124,-3.3124,-3.3124,-3.2968,-3.2704,-3.239,-3.1763,-3.0683,-3.0093,-2.9792,-2.9792,-2.9792,-2.9792,-2.9792,-2.9792,-2.9792,-2.9792,-2.9792,-2.9792,-2.9792,-2.9792,-2.9792,-2.6224,-2.7279,-2.8426,-2.8176,0.0,-2.9792,-2.9792,-2.9892,0.0,0.0,0.0,0.0,0.0,0.0,0.0,0.0,0.0,0.0,0.0,0.0,0.0,0.0,0.0,0.0,0.0,0.0,0.0,0.0,0.0,0.0,0.0,0.0,0.0,0.0,-3.74,-3.7123,-3.6998,-3.6619,-3.6784,-3.7613,-3.7199,-3.7211,-3.7626,-3.7626,-3.7626,-3.76,-3.7174,-3.7061,-3.7186,-3.7186,-3.7262,-3.7425,-3.7839,-3.7751,-3.7299,-3.6656,-3.6493,-3.6581,-3.6455,-3.6405,-3.6405,-3.6405,-3.6405,-3.6405,-3.6405,-3.6405,-3.6405,-3.6405,-3.6405,-3.6405,-3.6405,-3.6405,-3.6405,-3.6405,-3.6405,-3.6405,-3.6405,-3.6405,-3.6405,-3.6405,-3.6405,-3.6405,-3.6405,-3.6405,-3.6132,-3.5408,-3.4944,-3.4474,-3.3796,-3.3332,-3.3124,-3.3124,-3.3124,-3.3124,-3.3124,-3.2554,-3.1813,-3.0859,-3.0168,-2.9792,-2.9792,-2.9792,-2.9792,-2.9792,-2.9792,-2.9792,-2.9792,-2.9792,-2.9792,-2.9792,-2.9792,-2.9792,-2.5493,-2.7238,-2.9404,-2.8347,-2.8949,0.0,-2.9792,-3.0193,0.0,-3.0557,0.0,0.0,0.0,0.0,0.0,0.0,0.0,0.0,0.0,0.0,0.0,0.0,0.0,0.0,0.0,0.0,0.0,0.0,0.0,0.0,0.0,0.0,0.0,0.0,0.0,-3.6935,-3.6468,-3.643,-3.6455,-3.6518,-3.6493,-3.6493,-3.6531,-3.6531,-3.6531,-3.6518,-3.648,-3.6757,-3.7186,-3.7186,-3.7487,-3.7952,-3.799,-3.799,-3.7814,-3.6807,-3.6732,-3.7048,-3.6581,-3.6405,-3.6405,-3.6405,-3.6405,-3.6405,-3.6405,-3.6405,-3.6405,-3.6405,-3.6405,-3.6405,-3.6405,-3.6405,-3.6405,-3.6405,-3.6405,-3.6405,-3.6405,-3.6405,-3.6405,-3.6405,-3.6405,-3.6405,-3.6405,-3.6405,-3.6053,-3.4939,-3.4705,-3.4336,-3.3269,-3.3106,-3.3124,-3.3124,-3.3124,-3.3124,-3.3124,-3.2554,-3.1964,-3.1373,-3.0369,-2.9792,-2.9792,-2.9792,-2.9792,-2.9792,-2.9792,-2.9792,-2.9792,-2.9792,-2.9792,-2.9792,-2.9792,-2.9792,-2.4168,-2.6202,-2.8478,-2.7371,-2.8462,0.0,0.0,-3.047,-3.0909,-3.0244,-3.0909,0.0,0.0,0.0,0.0,0.0,0.0,0.0,0.0,0.0,0.0,0.0,0.0,0.0,0.0,0.0,0.0,0.0,0.0,0.0,0.0,0.0,0.0,0.0,0.0,-3.6069,-3.5855,-3.5516,-3.5341,-3.5353,-3.6078,-3.6405,-3.6405,-3.6405,-3.6405,-3.6405,-3.6405,-3.6531,-3.6719,-3.6719,-3.6845,-3.6985,-3.6985,-3.6985,-3.6983,-3.6568,-3.6543,-3.6681,-3.648,-3.6405,-3.6405,-3.6405,-3.6405,-3.6405,-3.6405,-3.6405,-3.6405,-3.6405,-3.6405,-3.6405,-3.6405,-3.6405,-3.6405,-3.6405,-3.6405,-3.6405,-3.6405,-3.6405,-3.6405,-3.6405,-3.6405,-3.6405,-3.6405,-3.6405,-3.5994,-3.4889,-3.468,-3.4324,-3.3262,-3.3124,-3.3124,-3.3124,-3.3124,-3.3124,-3.3124,-3.2554,-3.1976,-3.1424,-3.0708,-3.0143,-2.9804,-2.9792,-2.9792,-2.9792,-2.9792,-2.9792,-2.9792,-2.9792,-2.9792,-2.9792,-2.9792,-2.9792,-2.343,-2.5535,-2.7844,-2.676,0.0,0.0,-3.0018,-3.0746,-3.1235,-3.067,-3.1436,0.0,0.0,0.0,0.0,0.0,0.0,0.0,0.0,0.0,0.0,0.0,0.0,0.0,0.0,0.0,0.0,0.0,0.0,0.0,0.0,0.0,0.0,0.0,0.0,0.0,-3.5245,-3.4868,-3.468,-3.4726,-3.5479,-3.5931,-3.6107,-3.6107,-3.6194,-3.6405,-3.6405,-3.6405,-3.6405,-3.6405,-3.6405,-3.6405,-3.6405,-3.6405,-3.6405,-3.6405,-3.6405,-3.6405,-3.6405,-3.6405,-3.6405,-3.6405,-3.6405,-3.6405,-3.6405,-3.6405,-3.6405,-3.6405,-3.6405,-3.6405,-3.6405,-3.6405,-3.6405,-3.6405,-3.6405,-3.6405,-3.6405,-3.6405,-3.6405,-3.6405,-3.6405,-3.6405,-3.6405,-3.6405,-3.5994,-3.4889,-3.468,-3.4324,-3.3262,-3.3124,-3.3124,-3.3124,-3.3124,-3.3124,-3.3124,-3.2717,-3.2164,-3.1436,-3.106,-3.0545,-2.9829,-2.9792,-2.9792,-2.9792,-2.9792,-2.9792,-2.9792,-2.9792,-2.9792,-2.9792,-2.9792,-2.9792,-2.342,-2.5535,-2.7844,0.0,0.0,0.0,-3.0495,-3.1022,-3.1549,-3.2114,0.0,0.0,0.0,0.0,0.0,0.0,0.0,0.0,0.0,0.0,0.0,0.0,0.0,0.0,0.0,0.0,0.0,0.0,0.0,0.0,0.0,0.0,0.0,0.0,0.0,0.0,-3.468,-3.4713,-3.4655,-3.4655,-3.4655,-3.4956,-3.5495,-3.5495,-3.583,-3.6405,-3.6405,-3.6405,-3.6405,-3.6405,-3.6405,-3.6405,-3.6405,-3.6405,-3.6405,-3.6405,-3.6405,-3.6405,-3.6405,-3.6405,-3.6405,-3.6405,-3.6405,-3.6405,-3.6405,-3.6405,-3.6405,-3.6405,-3.6405,-3.6405,-3.6405,-3.6405,-3.6405,-3.6405,-3.6405,-3.6405,-3.6405,-3.6405,-3.6405,-3.6405,-3.6405,-3.6405,-3.6405,-3.6405,-3.5994,-3.4901,-3.4726,-3.4336,-3.3275,-3.3124,-3.3124,-3.3124,-3.3124,-3.3124,-3.3124,-3.3124,-3.2646,-3.1461,-3.1386,-3.0909,-2.9829,-2.9792,-2.9792,-2.9792,-2.9792,-2.9792,-2.9792,-2.9792,-2.9792,-2.9792,-2.9792,-2.9792,-2.4168,-2.563,0.0,0.0,0.0,0.0,0.0,-3.1022,0.0,0.0,0.0,0.0,0.0,0.0,0.0,0.0,0.0,0.0,0.0,0.0,0.0,0.0,0.0,0.0,0.0,0.0,0.0,0.0,0.0,0.0,0.0,0.0,0.0,0.0,0.0,0.0,-3.4148,-3.3759,-3.3558,-3.3558,-3.3558,-3.406,-3.4919,-3.4919,-3.5219,-3.5793,-3.5793,-3.5793,-3.5793,-3.5793,-3.6019,-3.6405,-3.6405,-3.6405,-3.6405,-3.6405,-3.6405,-3.6405,-3.6405,-3.6405,-3.6405,-3.6405,-3.6405,-3.6405,-3.6405,-3.6405,-3.6405,-3.6405,-3.6405,-3.6405,-3.6405,-3.6405,-3.6405,-3.6405,-3.6405,-3.6405,-3.6405,-3.6405,-3.6405,-3.6405,-3.6405,-3.6405,-3.6405,-3.6405,-3.6119,-3.5357,-3.5257,-3.4856,-3.3796,-3.3319,-3.3124,-3.3124,-3.3124,-3.3124,-3.3124,-3.3124,-3.2754,-3.2014,-3.1599,-3.0909,-2.9829,-2.9792,-2.9792,-2.9792,-2.9792,-2.9792,-2.9792,-2.9792,-2.9792,-2.9792,-2.9792,-2.9792,-2.392,0.0,0.0,0.0,0.0,0.0,0.0,0.0,0.0,0.0,0.0,0.0,0.0,0.0,0.0,0.0,0.0,0.0,0.0,0.0,0.0,0.0,0.0,0.0,0.0,0.0,0.0,0.0,0.0,0.0,0.0,0.0,0.0,0.0,0.0,0.0,-3.3571,-3.3244,-3.3124,-3.3124,-3.3124,-3.342,-3.4073,-3.4299,-3.4655,-3.5169,-3.5169,-3.5169,-3.5169,-3.5169,-3.5416,-3.573,-3.5956,-3.6031,-3.6056,-3.6329,-3.6405,-3.6405,-3.6405,-3.6405,-3.6405,-3.6405,-3.6405,-3.6405,-3.6405,-3.6405,-3.6405,-3.6405,-3.6405,-3.6405,-3.6405,-3.6013,-3.5715,-3.625,-3.6405,-3.6405,-3.6405,-3.6405,-3.6405,-3.6405,-3.6405,-3.6405,-3.6405,-3.6405,-3.6182,-3.5583,-3.5132,-3.4575,-3.3684,-3.3282,-3.3124,-3.3124,-3.3124,-3.3124,-3.3124,-3.3124,-3.283,-3.2252,-3.17,-3.1009,-3.0156,-2.9905,-2.9792,-2.9792,-2.9792,-2.9792,-2.9792,-2.9792,-2.9792,-2.9792,-2.9792,-2.9792,-2.3222,0.0,0.0,0.0,0.0,0.0,0.0,0.0,0.0,0.0,0.0,0.0,0.0,0.0,0.0,0.0,0.0,0.0,0.0,0.0,0.0,0.0,0.0,0.0,0.0,0.0,0.0,0.0,0.0,0.0,0.0,0.0,0.0,0.0,0.0,0.0,-3.3081,-3.3124,-3.3124,0.0,-3.3124,-3.3124,-3.3136,-3.3596,-3.4123,-3.465,-3.465,-3.4675,-3.468,-3.4663,-3.4675,-3.4731,-3.5232,-3.542,-3.5483,-3.6019,-3.6292,-3.6329,-3.6329,-3.6367,-3.6405,-3.6405,-3.6405,-3.6405,-3.6405,-3.6405,-3.6358,-3.6263,-3.6216,-3.6216,-3.6061,-3.5114,-3.4532,-3.5763,-3.6048,-3.6061,-3.6216,-3.6216,-3.6263,-3.6358,-3.6405,-3.6405,-3.6405,-3.6405,-3.6182,-3.5583,-3.465,-3.3771,-3.3219,-3.3106,-3.3124,-3.3124,-3.3124,-3.3124,-3.3124,-3.3124,-3.2855,-3.2328,-3.1763,-3.1235,-3.0708,-3.0118,-2.9792,-2.9792,-2.9792,-2.9792,-2.9792,-2.9792,-2.9792,-2.9792,-2.9792,-2.9792,0.0,-2.4617,0.0,0.0,0.0,0.0,0.0,0.0,0.0,0.0,0.0,0.0,0.0,0.0,0.0,0.0,0.0,0.0,0.0,0.0,0.0,0.0,0.0,0.0,0.0,0.0,0.0,0.0,0.0,0.0,0.0,0.0,0.0,0.0,0.0,-3.3206,-3.3124,-3.3124,-3.3124,0.0,-3.3124,-3.3124,-3.3124,-3.3206,-3.3558,-3.4073,-3.4073,-3.4324,-3.4688,-3.4261,-3.4336,-3.4726,-3.4806,-3.4856,-3.4868,-3.5027,-3.5353,-3.5671,-3.5671,-3.5994,-3.6405,-3.6405,-3.6405,-3.6405,-3.6405,-3.6405,-3.6156,-3.5126,-3.4836,-3.4581,-3.3441,-3.2994,-3.2844,-3.3093,-3.3193,-3.3491,-3.4569,-3.4836,-3.5126,-3.6216,-3.6405,-3.6405,-3.6405,-3.6405,-3.6182,-3.5583,-3.4931,-3.4349,-3.3796,-3.3345,-3.3124,-3.3124,-3.3124,-3.3124,-3.3124,-3.3124,-3.3018,-3.2893,-3.2353,-3.1788,-3.1248,-3.0306,-2.9792,-2.9792,-2.9792,-2.9792,-2.9792,-2.9792,-2.9792,-2.9792,-2.9792,-2.9792,0.0,0.0,0.0,0.0,0.0,0.0,0.0,0.0,0.0,0.0,0.0,0.0,0.0,0.0,0.0,0.0,0.0,0.0,0.0,0.0,0.0,0.0,0.0,0.0,0.0,0.0,0.0,0.0,0.0,0.0,0.0,0.0,0.0,0.0,-3.2528,-3.2541,-3.2277,-3.2528,-3.2528,-3.2265,-3.2265,-3.2403,-3.2667,-3.2955,-3.3232,-3.3508,-3.3508,-3.3671,-3.3909,-3.3621,-3.3671,-3.396,-3.4223,-3.4324,-3.4361,-3.4625,-3.4856,-3.5144,-3.5408,-3.5567,-3.5667,-3.6229,-3.5779,-3.5072,-3.5342,-3.4957,-3.4242,-3.3371,-3.3105,-3.29,-3.195,-3.1191,-3.0758,-3.0987,-3.171,-3.2694,-3.408,-3.3871,-3.4007,-3.6001,-3.587,-3.5667,-3.631,-3.6405,-3.5994,-3.4914,-3.4693,-3.4424,-3.3608,-3.3257,-3.3124,-3.3124,-3.3124,-3.3124,-3.3124,-3.3124,-3.3124,-3.3124,-3.229,-3.1687,-3.1399,-3.0369,-2.9792,-2.9792,-2.9792,-2.9792,-2.9792,-2.9792,-2.9792,-2.9792,-2.9792,-2.9792,0.0,0.0,0.0,0.0,0.0,0.0,0.0,0.0,0.0,0.0,0.0,0.0,0.0,0.0,0.0,0.0,0.0,0.0,0.0,0.0,0.0,0.0,0.0,0.0,0.0,0.0,0.0,0.0,0.0,0.0,0.0,0.0,-3.1386,-3.1386,-3.1838,-3.1851,-3.1399,-3.1838,-3.1838,-3.1386,-3.1386,-3.1625,-3.2089,-3.2566,-3.2842,-3.293,-3.293,-3.293,-3.293,-3.3074,-3.3124,-3.3119,-3.3352,-3.3426,-3.3488,-3.3936,-3.416,-3.4354,-3.5011,-3.4832,-3.4533,-3.5488,-3.4579,-3.3171,-3.3667,-3.2989,-3.1956,-3.1405,-3.1245,-3.1107,-3.0453,-2.9475,-2.8759,-2.9143,-3.0352,-3.1839,-3.338,-3.2794,-3.2682,-3.5198,-3.4969,-3.4751,-3.5734,-3.5924,-3.5354,-3.3518,-3.3621,-3.3637,-3.2878,-3.2797,-3.284,-3.3081,-3.3124,-3.3124,-3.3124,-3.3124,-3.3124,-3.3124,-3.2102,-3.1486,-3.1386,-3.0457,-2.9892,-2.9792,-2.9792,-2.9792,-2.9792,-2.9792,-2.9792,-2.9792,-2.9792,-2.9792,0.0,0.0,0.0,0.0,0.0,0.0,0.0,0.0,0.0,0.0,0.0,0.0,0.0,0.0,0.0,0.0,0.0,0.0,0.0,0.0,0.0,0.0,0.0,0.0,0.0,0.0,0.0,0.0,0.0,0.0,0.0,-3.1436,-3.1386,-3.1386,-3.1461,-3.1461,-3.1386,-3.1461,-3.1461,-3.1386,-3.1386,-3.1436,-3.1499,-3.1587,-3.1876,-3.2328,-3.2328,-3.2328,-3.2365,-3.2867,-3.3124,-3.2995,-3.195,-3.1552,-3.1564,-3.1636,-3.2004,-3.2617,-3.3717,-3.3675,-3.3166,-3.331,-3.2429,-3.1371,-3.144,-3.1306,-3.0908,-2.9681,-2.9374,-2.9076,-2.7854,-2.7399,-2.7266,-2.7335,-2.7538,-2.8268,-3.0397,-3.0721,-3.103,-3.2532,-3.3712,-3.434,-3.4114,-3.4042,-3.3303,-3.1054,-3.0764,-3.0963,-3.1395,-3.1456,-3.1877,-3.2982,-3.3124,-3.3124,-3.3124,-3.3124,-3.3124,-3.3124,-3.2466,-3.1888,-3.1411,-3.0821,-3.0281,-2.9804,-2.9792,-2.9792,-2.9792,-2.9792,-2.9792,-2.9792,-2.9792,-2.9792,0.0,0.0,0.0,0.0,0.0,0.0,0.0,0.0,0.0,0.0,0.0,0.0,0.0,0.0,0.0,0.0,0.0,0.0,0.0,0.0,0.0,0.0,0.0,0.0,0.0,0.0,0.0,0.0,0.0,0.0,-3.0947,-3.067,-3.0495,-3.0495,-3.0796,-3.0809,-3.0495,-3.0796,-3.0796,-3.0495,-3.0495,-3.0353,-2.9967,-2.9675,-3.0384,-3.1709,-3.1102,-3.0851,-3.0821,-3.0443,-3.0458,-3.0631,-3.0078,-3.043,-3.1223,-3.1223,-3.1377,-3.1717,-3.258,-3.2029,-3.1044,-3.1656,-3.0732,-2.951,-2.9781,-2.9327,-2.8603,-2.7781,-2.7521,-2.7371,-2.6507,-2.6249,-2.6366,-2.6894,-2.6836,-2.7037,-2.8558,-2.8642,-2.8942,-3.0539,-3.2305,-3.3232,-3.2317,-3.2175,-3.1628,-3.0017,-3.0014,-3.0421,-3.1104,-3.1223,-3.1689,-3.2982,-3.3124,-3.3124,-3.3124,-3.3124,-3.2943,-3.2616,-3.2064,-3.1512,-3.0972,-3.0444,-3.0043,-2.9792,-2.9792,-2.9792,-2.9792,-2.9792,-2.9792,-2.9792,-2.9792,-2.9792,0.0,0.0,0.0,0.0,0.0,0.0,0.0,0.0,0.0,0.0,0.0,0.0,0.0,0.0,0.0,0.0,0.0,0.0,0.0,0.0,0.0,0.0,0.0,0.0,0.0,0.0,0.0,0.0,0.0,0.0,-3.0382,-3.0018,-2.9792,-2.9792,-3.0193,-3.0206,-2.9792,-2.9893,-2.9762,-2.9365,-2.9079,-2.8747,-2.8287,-2.7859,-2.8605,-3.0122,-2.9457,-2.9181,-2.9108,-2.8414,-2.8295,-2.8588,-2.8277,-2.897,-3.012,-3.012,-3.0201,-3.0362,-3.1132,-3.032,-2.9068,-2.9891,-2.8983,-2.7634,-2.8023,-2.7452,-2.6631,-2.6318,-2.6221,-2.6143,-2.5771,-2.5693,-2.5879,-2.667,-2.6533,-2.6455,-2.7314,-2.7246,-2.7498,-2.9203,-3.0792,-3.1569,-3.043,-3.0312,-2.9917,-2.8661,-2.8798,-2.9355,-3.0181,-3.0271,-3.0866,-3.2426,-3.2612,-3.2754,-3.3068,-3.3124,-3.2744,-3.1849,-3.1303,-3.0728,-3.0196,-2.965,-2.9495,-2.9792,-2.9792,-2.9792,-2.9792,-2.9792,-2.9792,-2.9792,-2.9792,-2.9792,0.0,0.0,0.0,0.0,0.0,0.0,0.0,0.0,0.0,0.0,0.0,0.0,0.0,0.0,0.0,0.0,0.0,0.0,0.0,0.0,0.0,0.0,0.0,0.0,0.0,0.0,0.0,0.0,0.0,0.0,-2.9829,-2.9817,-2.9792,-2.9792,-2.9817,-2.9829,-2.9792,-2.8752,-2.8199,-2.8176,-2.7168,-2.6659,-2.664,-2.6607,-2.667,-2.6791,-2.7211,-2.7414,-2.7448,-2.7922,-2.8136,-2.8028,-2.6873,-2.6724,-2.7101,-2.7101,-2.7433,-2.7955,-2.9119,-2.8749,-2.7683,-2.7783,-2.69,-2.582,-2.584,-2.5801,-2.5752,-2.5732,-2.5723,-2.5713,-2.5693,-2.5693,-2.5801,-2.6309,-2.6084,-2.5957,-2.6865,-2.7031,-2.7409,-2.8786,-2.9112,-2.9053,-2.8619,-2.8544,-2.7914,-2.618,-2.5936,-2.6362,-2.7636,-2.7767,-2.868,-3.1033,-3.1311,-3.1777,-3.2982,-3.3124,-3.2432,-3.08,-3.0187,-2.9606,-2.9015,-2.845,-2.8688,-2.9792,-2.9792,-2.9792,-2.9792,-2.9792,-2.9792,-2.9792,-2.9792,-2.9792,0.0,0.0,0.0,0.0,0.0,0.0,0.0,0.0,0.0,0.0,0.0,0.0,0.0,0.0,0.0,0.0,0.0,0.0,0.0,0.0,0.0,0.0,0.0,0.0,0.0,0.0,0.0,0.0,0.0,0.0,-2.9792,-2.9792,-2.9792,-2.9792,-2.9106,-2.8359,-2.7678,-2.7302,-2.7087,-2.7087,-2.6678,-2.6099,-2.542,-2.542,-2.501,-2.4317,-2.4524,-2.5007,-2.5647,-2.5098,-2.5052,-2.532,-2.484,-2.5454,-2.6515,-2.6515,-2.6774,-2.7231,-2.7636,-2.715,-2.638,-2.638,-2.6062,-2.5693,-2.5693,-2.5693,-2.5693,-2.5693,-2.5693,-2.5693,-2.5693,-2.5693,-2.5732,-2.5937,-2.6064,-2.6162,-2.6142,-2.6812,-2.7362,-2.7321,-2.7757,-2.7883,-2.7218,-2.7101,-2.6803,-2.5849,-2.5977,-2.6525,-2.7489,-2.7589,-2.8541,-3.0944,-3.1223,-3.1733,-3.2982,-3.2326,-3.146,-3.0529,-2.9296,-2.8657,-2.881,-2.8369,-2.8307,-2.8688,-2.9443,-2.9792,-2.9792,-2.9792,-2.9792,-2.9792,-2.9792,-2.9792,0.0,0.0,0.0,0.0,0.0,0.0,0.0,0.0,0.0,0.0,0.0,0.0,0.0,0.0,0.0,0.0,0.0,0.0,0.0,0.0,0.0,0.0,0.0,0.0,0.0,0.0,0.0,0.0,0.0,0.0,-2.9792,-2.9792,-2.9792,-2.9792,-2.9067,-2.8148,-2.7046,-2.6678,-2.6307,-2.5922,-2.5557,-2.4967,-2.4211,-2.4211,-2.3844,-2.3091,-2.3091,-2.3507,-2.4168,-2.343,-2.3266,-2.3574,-2.3574,-2.4346,-2.5472,-2.5472,-2.5817,-2.6274,-2.6121,-2.5879,-2.5664,-2.5557,-2.5567,-2.5693,-2.5693,-2.5693,-2.5693,-2.5693,-2.5693,-2.5693,-2.5693,-2.5801,-2.5918,-2.5723,-2.6074,-2.6269,-2.5781,-2.6342,-2.6797,-2.6251,-2.659,-2.6807,-2.6261,-2.6172,-2.6074,-2.5732,-2.5986,-2.6349,-2.689,-2.6945,-2.772,-2.9772,-2.9988,-3.0496,-3.1745,-3.1089,-3.0186,-2.9268,-2.8372,-2.7833,-2.7676,-2.7597,-2.7562,-2.7562,-2.8648,-2.9236,-2.9236,-2.9624,-2.9792,-2.9792,-2.9792,-2.9792,0.0,0.0,0.0,0.0,0.0,0.0,0.0,0.0,0.0,0.0,0.0,0.0,0.0,0.0,0.0,0.0,0.0,0.0,0.0,0.0,0.0,0.0,0.0,0.0,0.0,0.0,0.0,0.0,0.0,-2.9714,-2.9714,-2.9714,-2.9675,-2.9663,-2.9663,-2.9118,-2.7964,-2.6924,-2.585,-2.4745,-2.3637,-2.3091,-2.3091,-2.3091,-2.3091,-2.3091,-2.3091,-2.3091,-2.3091,-2.3091,-2.3091,-2.3091,-2.3091,-2.3398,-2.3769,-2.3779,-2.4326,-2.5037,-2.458,-2.4962,-2.5615,-2.5225,-2.5381,-2.5693,-2.5693,-2.5693,-2.5693,-2.5693,-2.5693,-2.5693,-2.5693,-2.6055,-2.626,-2.5791,-2.6074,-2.6269,-2.5781,-2.5703,-2.5703,-2.5693,-2.5693,-2.5693,-2.5693,-2.5703,-2.5703,-2.5693,-2.5703,-2.5703,-2.5693,-2.5693,-2.6207,-2.7447,-2.7589,-2.8096,-2.9315,-2.9361,-2.8657,-2.702,-2.7478,-2.7086,-2.552,-2.6103,-2.6464,-2.6464,-2.7493,-2.8056,-2.8016,-2.9197,-2.9792,-2.9792,-2.9792,-2.9792,-2.0605,0.0,0.0,0.0,0.0,0.0,0.0,0.0,0.0,0.0,0.0,0.0,0.0,0.0,0.0,0.0,0.0,0.0,0.0,0.0,0.0,0.0,0.0,0.0,0.0,0.0,0.0,0.0,-2.7424,-2.7424,-2.7424,-2.7424,-2.7046,-2.6202,-2.616,-2.563,-2.45,-2.4178,-2.3887,-2.3551,-2.3256,-2.3091,-2.3091,-2.3091,-2.3091,-2.3091,-2.3091,-2.3091,-2.3091,-2.3091,-2.3091,-2.3091,-2.3091,-2.3169,-2.3315,-2.3672,-2.4131,-2.4619,-2.4814,-2.5264,-2.5664,-2.5596,-2.5586,-2.5693,-2.5693,-2.5693,-2.5693,-2.5693,-2.5693,-2.5693,-2.5693,-2.5781,-2.584,-2.5713,-2.6074,-2.6269,-2.5781,-2.5986,-2.6113,-2.5752,-2.5693,-2.5693,-2.5693,-2.5996,-2.6103,-2.5732,-2.6006,-2.6094,-2.5732,-2.5693,-2.6207,-2.7447,-2.7589,-2.8096,-2.9315,-2.8588,-2.7902,-2.7447,-2.645,-2.6003,-2.6316,-2.5951,-2.569,-2.569,-2.6526,-2.6543,-2.5734,-2.845,-2.9792,-2.9792,-2.9792,-2.9792,0.0,0.0,0.0,0.0,0.0,0.0,0.0,0.0,0.0,0.0,0.0,0.0,0.0,0.0,0.0,0.0,0.0,0.0,0.0,0.0,0.0,0.0,0.0,0.0,0.0,0.0,0.0,0.0,-2.6524,-2.6524,-2.6524,-2.6524,-2.6182,-2.5546,-2.5504,-2.4967,-2.3844,-2.38,-2.3551,-2.3091,-2.3091,-2.3091,-2.3091,-2.3091,-2.3091,-2.3091,-2.3091,-2.3091,-2.3091,-2.3091,-2.3091,-2.3091,-2.3091,-2.3091,-2.312,-2.3428,-2.3789,-2.4189,-2.4443,-2.4941,-2.5459,-2.5459,-2.5538,-2.5693,-2.5693,-2.5693,-2.5693,-2.5693,-2.5693,-2.5693,-2.5693,-2.5693,-2.5693,-2.5693,-2.5937,-2.6045,-2.5742,-2.5888,-2.6045,-2.5732,-2.5693,-2.5693,-2.5693,-2.5947,-2.6035,-2.5723,-2.5908,-2.6025,-2.5723,-2.5693,-2.5965,-2.6716,-2.6802,-2.7078,-2.7804,-2.721,-2.6802,-2.6802,-2.6138,-2.5839,-2.6016,-2.5647,-2.5205,-2.473,-2.5424,-2.5911,-2.6191,-2.8148,-2.9326,-2.9792,-2.9792,-2.9534,0.0,0.0,0.0,0.0,0.0,0.0,-2.2275,-2.2158,-2.1982,0.0,0.0,0.0,0.0,0.0,0.0,0.0,0.0,0.0,0.0,0.0,0.0,0.0,0.0,0.0,0.0,0.0,-2.6099,-2.6099,-2.6099,-2.6099,-2.6099,-2.6099,-2.6099,-2.6099,-2.6099,-2.5641,-2.4628,-2.4617,-2.4082,-2.3091,-2.3091,-2.3091,-2.3091,-2.3091,-2.3091,-2.3091,-2.3091,-2.3091,-2.3091,-2.3091,-2.3091,-2.3091,-2.3091,-2.3091,-2.3101,-2.3149,-2.3457,-2.3799,-2.3838,-2.4355,-2.5047,-2.5047,-2.5264,-2.5557,-2.5596,-2.5586,-2.5557,-2.5596,-2.5654,-2.5693,-2.5693,-2.5693,-2.5693,-2.5693,-2.5723,-2.5742,-2.5703,-2.5723,-2.5742,-2.5703,-2.5693,-2.5693,-2.5693,-2.5693,-2.5693,-2.5693,-2.5693,-2.5693,-2.5693,-2.5693,-2.5693,-2.5693,-2.5693,-2.5693,-2.5693,-2.5693,-2.5693,-2.5693,-2.6273,-2.6133,-2.5194,-2.5234,-2.4846,-2.3902,-2.4467,-2.5786,-2.7723,-2.7844,-2.8518,-2.9624,-2.9495,-2.891,0.0,0.0,0.0,0.0,0.0,0.0,-2.1973,-2.1943,-2.1807,0.0,0.0,0.0,0.0,0.0,0.0,0.0,0.0,0.0,0.0,0.0,0.0,0.0,0.0,0.0,0.0,0.0,-2.3767,-2.3767,-2.3767,-2.3767,-2.3767,-2.3767,-2.3767,-2.3767,-2.3767,-2.3637,-2.342,-2.343,-2.3299,-2.3091,-2.3091,-2.3091,-2.3091,-2.3091,-2.3091,-2.3091,-2.3091,-2.3091,-2.3091,-2.3091,-2.3091,-2.3091,-2.3091,-2.3091,-2.314,-2.3535,-2.3721,-2.3838,-2.418,-2.4404,-2.4541,-2.4541,-2.46,-2.4736,-2.5088,-2.4951,-2.4746,-2.5098,-2.5459,-2.5693,-2.5693,-2.5693,-2.5693,-2.5693,-2.6006,-2.6162,-2.5762,-2.6016,-2.6162,-2.5762,-2.5693,-2.5693,-2.5693,-2.5693,-2.5693,-2.5693,-2.5693,-2.5693,-2.5693,-2.5693,-2.5693,-2.5693,-2.5693,-2.5693,-2.5693,-2.5693,-2.5693,-2.5693,-2.5838,-2.5789,-2.5605,-2.4943,-2.4516,-2.4297,-2.462,-2.4988,-2.5452,-2.6378,-2.7371,-2.8426,-2.7545,-2.7017,0.0,0.0,0.0,-2.273,0.0,0.0,0.0,-2.1885,0.0,0.0,0.0,0.0,0.0,0.0,0.0,0.0,0.0,0.0,0.0,0.0,0.0,0.0,0.0,0.0,0.0,0.0,-2.3091,-2.3091,-2.3091,-2.3091,-2.3091,-2.3091,-2.3091,-2.3091,-2.3091,-2.3091,-2.3091,-2.3091,-2.3091,-2.3091,-2.3091,-2.3091,-2.3091,-2.3091,-2.3091,-2.3091,-2.3091,-2.3091,-2.3091,-2.3091,-2.3091,-2.3091,-2.3091,-2.3091,-2.312,-2.3344,-2.3467,-2.3525,-2.3955,-2.4102,-2.4141,-2.4346,-2.4414,-2.4453,-2.4678,-2.459,-2.4502,-2.4988,-2.5234,-2.5449,-2.5635,-2.5693,-2.5693,-2.5693,-2.5908,-2.6006,-2.5732,-2.5859,-2.5996,-2.5732,-2.5693,-2.5693,-2.5693,-2.5693,-2.5693,-2.5693,-2.5693,-2.5693,-2.5693,-2.5693,-2.5693,-2.5693,-2.5693,-2.5693,-2.5693,-2.5693,-2.5693,-2.5693,-2.5693,-2.5693,-2.5693,-2.5098,-2.4541,-2.4111,-2.4011,-2.4211,-2.4787,-2.4798,-2.5672,-2.729,-2.676,-2.6524,0.0,0.0,0.0,0.0,0.0,-2.2519,0.0,0.0,0.0,0.0,0.0,0.0,0.0,0.0,0.0,0.0,0.0,0.0,0.0,0.0,0.0,0.0,0.0,0.0,0.0,0.0,-2.3013,-2.3091,-2.3023,-2.3013,-2.3091,-2.3091,-2.3091,-2.3091,-2.3091,-2.3091,-2.3091,-2.3091,-2.3091,-2.3091,-2.3091,-2.3091,-2.3091,-2.3091,-2.3091,-2.3091,-2.3091,-2.3091,-2.3091,-2.3091,-2.3091,-2.3091,-2.3091,-2.3091,-2.3091,-2.3091,-2.3091,-2.3149,-2.3545,-2.3662,-2.3721,-2.4062,-2.4228,-2.4277,-2.4199,-2.4287,-2.4473,-2.4746,-2.493,-2.5029,-2.5391,-2.5499,-2.5557,-2.5557,-2.5625,-2.5693,-2.5693,-2.5693,-2.5693,-2.5693,-2.5693,-2.5693,-2.5693,-2.5693,-2.5693,-2.5693,-2.5693,-2.5693,-2.5693,-2.5693,-2.5693,-2.5693,-2.5693,-2.5693,-2.5693,-2.5693,-2.5693,-2.5693,-2.5693,-2.5693,-2.5693,-2.5303,-2.4715,-2.3809,-2.3614,-2.3847,-2.4457,-2.3757,-2.4392,-2.6182,-2.5933,-2.585,0.0,0.0,0.0,0.0,-2.3062,0.0,0.0,0.0,0.0,0.0,0.0,0.0,0.0,0.0,0.0,0.0,0.0,0.0,0.0,0.0,0.0,0.0,0.0,0.0,0.0,0.0,0.0,-2.3062,-2.275,-2.2701,-2.3081,-2.3091,-2.3091,-2.3091,-2.3091,-2.3091,-2.3091,-2.3091,-2.3091,-2.3091,-2.3091,-2.3091,-2.3091,-2.3091,-2.3091,-2.3091,-2.3091,-2.3091,-2.3091,-2.3091,-2.3091,-2.3091,-2.3091,-2.3091,-2.3091,-2.3091,-2.3091,-2.3101,-2.3149,-2.3169,-2.3179,-2.3218,-2.3545,-2.3789,-2.3354,-2.3773,-2.4346,-2.4023,-2.4199,-2.4502,-2.4551,-2.4853,-2.5194,-2.5194,-2.5449,-2.5693,-2.5693,-2.5693,-2.5693,-2.5693,-2.5693,-2.5693,-2.5693,-2.5693,-2.5693,-2.5693,-2.5693,-2.5693,-2.5693,-2.5693,-2.5693,-2.5693,-2.5693,-2.5693,-2.5693,-2.5693,-2.5693,-2.5693,-2.5693,-2.5693,-2.5693,-2.5303,-2.4715,-2.3809,-2.4679,-2.4543,-2.3299,-2.4168,-2.4755,-2.4957,-2.3973,-2.3474,0.0,0.0,0.0,0.0,0.0,0.0,0.0,0.0,-2.2393,0.0,0.0,0.0,0.0,0.0,0.0,0.0,0.0,0.0,0.0,0.0,0.0,0.0,0.0,0.0,0.0,0.0,0.0,0.0,0.0,-2.2588,-2.2721,-2.2964,-2.3091,-2.3091,-2.3091,-2.3091,-2.3091,-2.3091,-2.3091,-2.3091,-2.3091,-2.3091,-2.3091,-2.3091,-2.3091,-2.3091,-2.3091,-2.3091,-2.3091,-2.3091,-2.3091,-2.3091,-2.3091,-2.3091,-2.3091,-2.3091,-2.3091,-2.3091,-2.3091,-2.3091,-2.3091,-2.3091,-2.3218,-2.3379,-2.3149,-2.3344,-2.3647,-2.3769,-2.3916,-2.4111,-2.4355,-2.4746,-2.5116,-2.5116,-2.541,-2.5693,-2.5693,-2.5693,-2.5693,-2.5693,-2.5693,-2.5693,-2.5693,-2.5693,-2.5693,-2.5693,-2.5693,-2.5693,-2.5693,-2.5693,-2.5693,-2.5693,-2.5693,-2.5693,-2.5693,-2.5693,-2.5693,-2.5693,-2.5693,-2.5693,-2.5693,-2.5303,-2.4949,-2.4541,-2.4715,-2.4376,-2.3516,-2.3983,-2.4095,-2.38,-2.3299,-2.3464,-2.3091,0.0,0.0,0.0,0.0,0.0,0.0,0.0,0.0,0.0,0.0,0.0,0.0,0.0,0.0,0.0,0.0,0.0,0.0,0.0,0.0,0.0,0.0,0.0,0.0,0.0,0.0,0.0,-2.206,0.0,-2.2334,-2.2744,-2.2925,-2.2925,-2.3033,-2.3091,-2.3091,-2.3091,-2.3091,-2.3091,-2.3091,-2.3091,-2.3091,-2.3091,-2.3091,-2.3091,-2.3091,-2.3091,-2.3091,-2.3091,-2.3091,-2.3091,-2.3091,-2.3091,-2.3091,-2.3091,-2.3091,-2.3091,-2.3091,-2.3091,-2.3091,-2.3091,-2.3091,-2.3091,-2.3091,-2.3091,-2.3159,-2.3525,-2.3613,-2.3711,-2.4141,-2.457,-2.4922,-2.5086,-2.541,-2.5693,-2.5693,-2.5693,-2.5693,-2.5693,-2.5693,-2.5693,-2.5693,-2.5693,-2.5693,-2.5693,-2.5693,-2.5693,-2.5693,-2.5693,-2.5693,-2.5693,-2.5693,-2.5693,-2.5693,-2.5693,-2.5693,-2.5693,-2.5693,-2.5693,-2.5693,-2.543,-2.5195,-2.5116,-2.4756,-2.4385,-2.3965,-2.3965,-2.374,-2.3276,-2.3149,-2.3551,0.0,0.0,0.0,-2.3091,0.0,0.0,0.0,0.0,-2.3071,0.0,0.0,0.0,0.0,0.0,0.0,-2.2031,0.0,0.0,0.0,0.0,0.0,0.0,0.0,0.0,0.0,0.0,0.0,-2.1855,-2.1504,0.0,-2.1885,-2.2305,-2.2539,-2.2539,-2.2886,-2.3091,-2.3091,-2.3091,-2.3091,-2.3091,-2.3091,-2.3091,-2.3091,-2.3091,-2.3091,-2.3091,-2.3091,-2.3091,-2.3091,-2.3091,-2.3091,-2.3091,-2.3091,-2.3091,-2.3091,-2.3091,-2.3091,-2.3091,-2.3091,-2.3091,-2.3091,-2.3091,-2.3091,-2.3091,-2.3091,-2.3091,-2.3091,-2.311,-2.312,-2.3218,-2.3691,-2.4121,-2.4551,-2.4971,-2.541,-2.5693,-2.5693,-2.5693,-2.5693,-2.5693,-2.5693,-2.5693,-2.5693,-2.5693,-2.5693,-2.5693,-2.5693,-2.5693,-2.5693,-2.5693,-2.5693,-2.5693,-2.5693,-2.5693,-2.5693,-2.5693,-2.5693,-2.5693,-2.5693,-2.5693,-2.5693,-2.5674,-2.5518,-2.5125,-2.5106,-2.4834,-2.4394,-2.4394,-2.418,-2.376,-2.3286,-2.3135,0.0,0.0,-2.3091,-2.3091,0.0,0.0,0.0,0.0,0.0,0.0,0.0,0.0,0.0,0.0,-2.3003,-2.2721,-2.2246,0.0,0.0,0.0,0.0,0.0,0.0,0.0,0.0,0.0,0.0,-2.1045,-2.1152,-2.1259,0.0,-2.2129,-2.251,-2.251,-2.2877,-2.3091,-2.3091,-2.3091,-2.3091,-2.3091,-2.3091,-2.3091,-2.3091,-2.3091,-2.3091,-2.3091,-2.3091,-2.3091,-2.3091,-2.3091,-2.3091,-2.3091,-2.3091,-2.3091,-2.3091,-2.3091,-2.3091,-2.3091,-2.3091,-2.3091,-2.3091,-2.3091,-2.3091,-2.3091,-2.3091,-2.3091,-2.3091,-2.3091,-2.3091,-2.313,-2.3276,-2.3887,-2.4453,-2.46,-2.5205,-2.5693,-2.5693,-2.5693,-2.5693,-2.5693,-2.5693,-2.5693,-2.5693,-2.5693,-2.5693,-2.5693,-2.5693,-2.5693,-2.5693,-2.5693,-2.5693,-2.5693,-2.5693,-2.5693,-2.5693,-2.5693,-2.5693,-2.5693,-2.5693,-2.5693,-2.5693,-2.5693,-2.5615,-2.5518,-2.5508,-2.5293,-2.4844,-2.4844,-2.4629,-2.4199,-2.3769,-2.3418,-2.3091,-2.3091,0.0,-2.3091,-2.3091,0.0,-2.3091,0.0,0.0,0.0,0.0,0.0,0.0,0.0,0.0,-2.2744,-2.2236,-2.1777,0.0,-2.0967,0.0,0.0,0.0,0.0,0.0,0.0,-2.0605,-2.0605,-2.083,-2.0996,0.0,0.0,-2.2295,-2.2295,-2.2799,-2.3091,-2.3091,-2.3091,-2.3091,-2.3091,-2.3091,-2.3091,-2.3091,-2.3091,-2.3091,-2.3091,-2.3091,-2.3091,-2.3091,-2.3091,-2.3091,-2.3091,-2.3091,-2.3091,-2.3091,-2.3091,-2.3091,-2.3091,-2.3091,-2.3091,-2.3091,-2.3091,-2.3091,-2.3091,-2.3091,-2.3091,-2.3091,-2.3091,-2.3091,-2.313,-2.333,-2.3887,-2.4453,-2.4609,-2.5205,-2.5693,-2.5693,-2.5693,-2.5693,-2.5693,-2.5693,-2.5693,-2.5693,-2.5693,-2.5693,-2.5693,-2.5693,-2.5693,-2.5693,-2.5693,-2.5693,-2.5693,-2.5693,-2.5693,-2.5693,-2.5693,-2.5693,-2.5693,-2.5693,-2.5693,-2.5693,-2.5693,-2.5762,-2.5967,-2.5771,-2.5664,-2.5537,-2.5381,-2.5,-2.4414,-2.4297,-2.3935]}]]